Date StartTime U_cm/s V_cm/s W_cm/s Ustd_cm/s Vstd_cm/s Wstd_cm/s Uvar_(cm/s)^2 Vvar_(cm/s)^2 Wvar_(cm/s)^2 KE_(m/s)^2 TurbulentKE_(m/s)^2 HorizWindSpeed_cm/s FrictionSpeec_cm/s DragCoef SpeedOfSound_m/s SonicTemperature_C Pressure_mb 
10/01/2013  00:00:00       -2.752       60.597      -12.177       24.362       25.671       10.578      593.497      659.011      111.897        0.260        0.068       60.660       11.732        0.037      338.810       11.716      860.129
10/01/2013  00:01:00      -90.674       -9.517      -19.476       27.623       32.471       14.541      763.027     1054.386      211.451        0.536        0.101       91.172        6.801        0.006      338.544       11.266      860.153
10/01/2013  00:02:00     -121.863       -8.633      -16.782       39.537       28.500       22.238     1563.172      812.222      494.519        0.904        0.143      122.168       21.820        0.032      338.356       10.953      860.168
10/01/2013  00:03:00      -69.887        3.426      -14.169       33.169       19.732       13.465     1100.180      389.340      181.301        0.338        0.084       69.971       12.608        0.032      338.303       10.862      860.162
10/01/2013  00:04:00      -67.625       69.659      -21.885       17.647       23.334       10.713      311.425      544.498      114.778        0.544        0.049       97.085        6.540        0.005      339.226       12.414      860.142
10/01/2013  00:05:00      -63.063       46.328      -12.814       21.661       37.542        9.303      469.196     1409.411       86.544        0.413        0.098       78.251        9.177        0.014      339.141       12.272      860.131
10/01/2013  00:06:00     -103.453        2.208      -12.980       31.011       27.837       14.719      961.660      774.916      216.661        0.641        0.098      103.476       13.634        0.017      338.508       11.206      860.119
10/01/2013  00:07:00     -119.801       -0.551      -20.541       29.626       27.581       22.512      877.729      760.689      506.772        0.846        0.107      119.802       14.123        0.014      338.437       11.087      860.097
10/01/2013  00:08:00     -116.332       -4.632      -23.608       38.351       25.247       21.218     1470.816      637.401      450.219        0.833        0.128      116.424       18.453        0.025      338.391       11.011      860.074
10/01/2013  00:09:00      -82.482        0.412      -23.218       36.847       29.242       15.850     1357.673      855.113      251.232        0.490        0.123       82.483       13.093        0.025      338.492       11.180      860.058
10/01/2013  00:10:00      -92.699        4.899      -21.560       35.935       38.580       18.684     1291.289     1488.410      349.103        0.610        0.156       92.828        7.561        0.007      338.513       11.215      860.047
10/01/2013  00:11:00     -103.077       -6.953       -2.632       53.026       48.054       32.038     2811.805     2309.174     1026.403        0.841        0.307      103.311       36.294        0.123      338.399       11.024      860.053
10/01/2013  00:12:00     -129.068      -11.857       -8.872       47.695       36.480       26.617     2274.827     1330.806      708.451        1.060        0.216      129.612       25.795        0.040      338.306       10.867      860.064
10/01/2013  00:13:00     -105.905      -25.878      -13.615       21.351       21.822       16.417      455.859      476.209      269.510        0.664        0.060      109.021        9.082        0.007      338.323       10.898      860.060
10/01/2013  00:14:00     -135.946      -42.192      -14.837       28.746       17.721       11.967      826.360      314.032      143.212        1.088        0.064      142.343        7.006        0.002      338.378       10.988      860.034
10/01/2013  00:15:00     -126.907      -43.700       -1.560       26.522       34.168       22.349      703.406     1167.420      499.481        1.019        0.119      134.220       16.447        0.015      338.345       10.934      860.030
10/01/2013  00:16:00     -129.782       31.281      -11.790       46.748       29.460       22.250     2185.357      867.907      495.045        1.075        0.177      133.498       16.830        0.016      338.524       11.233      860.029
10/01/2013  00:17:00     -140.443      -18.400      -10.676       38.855       48.430       21.395     1509.698     2345.459      457.746        1.224        0.216      141.643       17.634        0.015      338.572       11.314      860.015
10/01/2013  00:18:00     -118.971      -30.641       -9.815       48.461       29.392       22.434     2348.474      863.898      503.305        0.945        0.186      122.854       20.414        0.028      338.471       11.144      860.027
10/01/2013  00:19:00      -83.025      -61.120       -7.522       39.561       41.291       24.119     1565.068     1704.956      581.718        0.727        0.193      103.096       15.056        0.021      338.446       11.103      860.036
10/01/2013  00:20:00     -120.756      -42.990       -4.067       47.409       51.774       29.063     2247.599     2680.516      844.658        1.111        0.289      128.180       22.867        0.032      338.347       10.936      860.032
10/01/2013  00:21:00     -113.404      -18.909       -7.786       46.060       31.645       25.203     2121.548     1001.391      635.198        0.852        0.188      114.970       26.702        0.054      338.301       10.860      860.040
10/01/2013  00:22:00      -99.279      -35.247        4.204       33.590       32.042       19.071     1128.293     1026.711      363.720        0.682        0.126      105.351       15.761        0.022      338.249       10.773      860.044
10/01/2013  00:23:00     -140.715      -39.305       -7.204       33.964       28.386       17.143     1153.553      805.740      293.883        1.182        0.113      146.101       13.291        0.008      338.311       10.876      860.037
10/01/2013  00:24:00     -157.486      -66.033       -8.182       28.972       30.520       18.496      839.392      931.460      342.108        1.567        0.106      170.769       18.175        0.011      338.290       10.840      860.063
10/01/2013  00:25:00     -141.099      -66.208        0.870       28.340       29.586       18.016      803.148      875.342      324.576        1.315        0.100      155.860       13.639        0.008      338.361       10.960      860.076
10/01/2013  00:26:00     -112.633      -38.098       -4.450       28.473       21.949       19.870      810.717      481.778      394.805        0.792        0.084      118.902       17.831        0.022      338.351       10.943      860.071
10/01/2013  00:27:00      -64.082      -27.082        1.538       29.074       21.633       10.476      845.323      468.004      109.754        0.313        0.071       69.570        7.212        0.011      338.425       11.069      860.060
10/01/2013  00:28:00      -48.790      -20.626       -1.834       26.573       19.644       11.035      706.138      385.890      121.778        0.201        0.061       52.971        9.216        0.030      338.450       11.109      860.034
10/01/2013  00:29:00      -36.395      -19.035        3.244       37.445       25.495       15.054     1402.152      649.976      226.616        0.199        0.114       41.072       15.378        0.140      338.513       11.215      860.041
10/01/2013  00:30:00     -119.350      -57.289       -3.105       28.592       22.397       17.091      817.481      501.604      292.096        0.957        0.081      132.387        8.714        0.004      338.444       11.099      860.063
10/01/2013  00:31:00      -94.835      -73.873        4.039       41.388       39.728       25.226     1712.990     1578.294      636.346        0.920        0.196      120.212       14.802        0.015      338.362       10.961      860.084
10/01/2013  00:32:00     -151.257      -69.632       -2.023       43.980       36.245       26.782     1934.248     1313.724      717.272        1.585        0.198      166.515       21.183        0.016      338.369       10.973      860.087
10/01/2013  00:33:00     -140.853      -70.741        1.812       42.828       35.774       23.793     1834.198     1279.773      566.113        1.426        0.184      157.619       22.652        0.021      338.394       11.015      860.080
10/01/2013  00:34:00     -171.727      -51.466       -5.721       45.662       38.172       20.956     2085.052     1457.134      439.158        1.808        0.199      179.273       16.658        0.009      338.430       11.076      860.063
10/01/2013  00:35:00     -191.990      -59.120      -12.929       41.347       37.621       21.862     1709.565     1415.329      477.955        2.206        0.180      200.886       23.416        0.014      338.339       10.922      860.046
10/01/2013  00:36:00     -162.929      -23.593       -4.095       54.655       41.952       30.856     2987.120     1759.940      952.119        1.641        0.285      164.628       30.622        0.035      338.347       10.936      860.028
10/01/2013  00:37:00     -208.933       10.550      -20.999       26.171       22.625       19.171      684.920      511.887      367.528        2.288        0.078      209.199       12.937        0.004      338.499       11.191      860.029
10/01/2013  00:38:00     -197.375      -10.507      -24.594       34.850       31.350       25.424     1214.507      982.815      646.386        2.126        0.142      197.654       22.448        0.013      338.535       11.251      860.035
10/01/2013  00:39:00     -116.942      -18.294      -14.190       57.507       34.511       23.845     3307.106     1190.999      568.604        0.964        0.253      118.364       26.679        0.051      338.468       11.139      860.047
10/01/2013  00:40:00     -125.334      -18.048      -14.304       27.677       32.760       18.880      766.039     1073.217      356.437        0.922        0.110      126.627       14.168        0.013      338.526       11.237      860.067
10/01/2013  00:41:00     -104.181      -41.636      -11.588       33.481       35.476       17.985     1120.994     1258.577      323.472        0.771        0.135      112.193       13.046        0.014      338.449       11.108      860.069
10/01/2013  00:42:00      -98.133        4.961       -4.321       26.421       29.222       14.726      698.075      853.951      216.841        0.572        0.088       98.258       12.397        0.016      338.485       11.169      860.055
10/01/2013  00:43:00      -84.580       15.843       -5.894       32.930       22.088       19.763     1084.417      487.888      390.578        0.470        0.098       86.051       18.461        0.046      338.481       11.161      860.041
10/01/2013  00:44:00     -108.962       15.059      -12.078       31.424       23.938       13.773      987.491      573.041      189.682        0.700        0.088      109.998       12.481        0.013      338.496       11.188      860.038
10/01/2013  00:45:00     -110.351      -29.833       -3.145       36.209       26.822       21.246     1311.068      719.416      451.372        0.778        0.124      114.312       19.605        0.029      338.445       11.101      860.039
10/01/2013  00:46:00     -133.548      -20.715      -11.373       32.987       25.611       18.707     1088.118      655.933      349.967        1.024        0.105      135.145       16.680        0.015      338.323       10.897      860.046
10/01/2013  00:47:00     -127.839       13.413       -5.971       42.352       35.480       19.811     1793.720     1258.827      392.458        1.000        0.172      128.540       17.606        0.019      338.321       10.893      860.045
10/01/2013  00:48:00     -167.605       25.888      -10.280       29.716       27.058       17.266      883.045      732.132      298.115        1.539        0.096      169.592        6.653        0.002      338.365       10.966      860.035
10/01/2013  00:49:00     -161.846        1.025      -13.792       27.681       32.722       19.999      766.248     1070.699      399.954        1.431        0.112      161.850       18.182        0.013      338.472       11.146      860.021
10/01/2013  00:50:00     -150.702      -22.431      -13.559       34.705       30.074       18.626     1204.443      904.441      346.944        1.293        0.123      152.362       15.549        0.010      338.357       10.953      860.010
10/01/2013  00:51:00     -132.205       -4.943       -7.070       44.449       41.926       22.818     1975.728     1757.823      520.670        1.090        0.213      132.297       19.887        0.023      338.253       10.780      859.984
10/01/2013  00:52:00     -168.279        6.288      -14.454       26.892       32.289       18.121      723.161     1042.570      328.373        1.533        0.105      168.396       14.652        0.008      338.241       10.758      859.949
10/01/2013  00:53:00     -169.753        3.485      -15.904       30.879       30.906       23.546      953.504      955.171      554.437        1.577        0.123      169.789       16.003        0.009      338.373       10.980      859.941
10/01/2013  00:54:00     -130.971      -23.731      -13.538       43.731       30.692       25.162     1912.412      942.026      633.128        1.069        0.174      133.103       24.138        0.033      338.389       11.008      859.963
10/01/2013  00:55:00     -119.676      -33.956      -12.596       38.526       28.407       20.175     1484.222      806.981      407.027        0.917        0.135      124.400       14.041        0.013      338.470       11.144      859.985
10/01/2013  00:56:00     -122.038      -19.806      -15.665       24.723       30.174       22.969      611.215      910.450      527.583        0.879        0.102      123.634       13.180        0.011      338.419       11.056      859.999
10/01/2013  00:57:00     -110.242      -35.071       -7.433       22.548       25.968       13.950      508.397      674.357      194.590        0.741        0.069      115.686       12.937        0.013      338.395       11.018      860.005
10/01/2013  00:58:00     -126.676      -30.913      -11.174       26.371       18.742       15.708      695.448      351.258      246.736        0.921        0.065      130.393       12.013        0.008      338.266       10.802      860.011
10/01/2013  00:59:00     -157.052      -13.697       -9.847       42.584       27.999       21.834     1813.375      783.962      476.722        1.401        0.154      157.649       20.550        0.017      338.570       11.312      860.016
10/01/2013  01:00:00     -144.527      -40.406      -14.433       43.452       33.742       16.213     1888.116     1138.506      262.845        1.301        0.164      150.068       17.475        0.014      338.439       11.092      860.032
10/01/2013  01:01:00     -118.595      -21.753       -0.275       37.188       27.021       18.722     1382.978      730.113      350.496        0.850        0.123      120.574       17.926        0.022      338.329       10.906      860.043
10/01/2013  01:02:00     -107.735      -21.199       -5.566       26.732       18.290       14.997      714.585      334.518      224.906        0.668        0.064      109.801       13.520        0.015      338.414       11.049      860.049
10/01/2013  01:03:00      -95.721      -44.132        0.083       24.926       18.835       10.813      621.315      354.749      116.911        0.610        0.055      105.404        7.520        0.005      338.359       10.957      860.053
10/01/2013  01:04:00      -86.154      -11.951        2.374       23.989       23.832       13.958      575.470      567.949      194.812        0.445        0.067       86.979        9.286        0.011      338.303       10.863      860.069
10/01/2013  01:05:00      -62.754      -20.312       -5.399       23.336       16.613       12.372      544.589      275.980      153.062        0.268        0.049       65.959       10.190        0.024      338.360       10.959      860.088
10/01/2013  01:06:00      -97.184       -6.707      -11.599       15.893       13.338       11.821      252.585      177.909      139.742        0.510        0.029       97.415        9.506        0.010      338.323       10.897      860.102
10/01/2013  01:07:00      -79.788      -12.437       -3.918       23.208       18.795       11.149      538.597      353.261      124.292        0.378        0.051       80.752       11.083        0.019      338.268       10.804      860.090
10/01/2013  01:08:00      -88.384       13.286       -7.951       30.679       22.446       14.652      941.210      503.805      214.679        0.486        0.083       89.377       15.095        0.029      338.372       10.979      860.067
10/01/2013  01:09:00      -94.105       -1.534       -8.660       28.895       19.209       14.068      834.923      369.003      197.904        0.517        0.070       94.117       16.014        0.029      338.444       11.098      860.059
10/01/2013  01:10:00      -68.247      -14.630      -10.472       19.623       16.283       15.851      385.060      265.135      251.247        0.294        0.045       69.797       10.487        0.023      338.367       10.970      860.061
10/01/2013  01:11:00      -41.713      -24.194       -1.604       11.235       12.119       13.596      126.217      146.861      184.857        0.139        0.023       48.222        9.934        0.042      338.361       10.960      860.061
10/01/2013  01:12:00      -63.029      -18.492      -12.837       27.711       14.444       12.924      767.907      208.617      167.026        0.281        0.057       65.685       13.166        0.040      338.330       10.909      860.047
10/01/2013  01:13:00      -45.132      -33.569       -2.769       37.165       27.962       17.475     1381.222      781.852      305.371        0.282        0.123       56.247       18.053        0.103      338.267       10.802      860.050
10/01/2013  01:14:00      -52.270      -23.672       -9.617       28.955       22.512       13.055      838.376      506.770      170.437        0.245        0.076       57.381        7.336        0.016      338.263       10.797      860.062
10/01/2013  01:15:00      -65.954      -33.908       -1.349       16.990       17.038       14.154      288.663      290.292      200.336        0.314        0.039       74.159        7.216        0.009      338.234       10.746      860.092
10/01/2013  01:16:00      -62.264      -32.096       -4.337       17.407       17.412        8.961      303.009      303.191       80.296        0.281        0.034       70.050        5.741        0.007      338.153       10.610      860.100
10/01/2013  01:17:00      -85.772      -23.213       -5.688       27.253       20.008       14.440      742.747      400.329      208.519        0.464        0.068       88.858       12.616        0.020      338.084       10.495      860.093
10/01/2013  01:18:00      -96.417      -26.505       -9.544       32.800       29.771       16.994     1075.853      886.301      288.796        0.617        0.113       99.994       12.751        0.016      337.988       10.332      860.082
10/01/2013  01:19:00     -130.499      -62.698       -2.718       55.814       46.200       26.169     3115.209     2134.468      684.799        1.345        0.297      144.779       20.134        0.019      338.008       10.367      860.074
10/01/2013  01:20:00     -120.053      -17.156       -3.807       32.887       24.228       18.100     1081.533      586.981      327.611        0.836        0.100      121.273       16.578        0.019      337.934       10.244      860.070
10/01/2013  01:21:00      -63.901       -1.206        2.002       44.113       21.975       20.407     1945.941      482.921      416.427        0.347        0.142       63.912       18.443        0.083      337.945       10.262      860.076
10/01/2013  01:22:00     -104.895      -39.580      -11.357       20.963       20.402       14.538      439.451      416.261      211.343        0.688        0.053      112.114       11.338        0.010      337.973       10.308      860.077
10/01/2013  01:23:00     -118.488      -19.095      -11.080       40.151       32.335       19.023     1612.111     1045.521      361.877        0.877        0.151      120.017       12.782        0.011      337.969       10.303      860.082
10/01/2013  01:24:00     -142.279      -34.544      -11.561       49.334       53.667       19.681     2433.888     2880.200      387.356        1.363        0.285      146.412       21.188        0.021      337.860       10.118      860.085
10/01/2013  01:25:00     -135.610       10.277      -11.858       35.798       39.195       25.482     1281.502     1536.211      649.330        1.105        0.173      135.999       16.273        0.014      337.812       10.039      860.100
10/01/2013  01:26:00     -128.186      -16.969      -10.698       47.106       37.294       25.532     2218.934     1390.877      651.908        1.055        0.213      129.304       20.306        0.025      337.726        9.896      860.111
10/01/2013  01:27:00     -111.175       -6.476       -9.304       40.115       25.299       16.682     1609.227      640.029      278.274        0.751        0.126      111.363       19.280        0.030      337.784        9.990      860.115
10/01/2013  01:28:00      -36.991      -16.415        0.574       29.440       20.690       14.171      866.728      428.059      200.804        0.157        0.075       40.470       12.222        0.091      337.779        9.983      860.127
10/01/2013  01:29:00      -61.676      -12.858       -9.650       15.935       15.815        9.497      253.915      250.103       90.186        0.233        0.030       63.002        5.371        0.007      337.834       10.077      860.122
10/01/2013  01:30:00      -95.516      -14.012      -16.325       19.053       26.912       11.983      363.011      724.242      143.604        0.541        0.062       96.538       13.450        0.019      338.018       10.384      860.110
10/01/2013  01:31:00     -129.992      -59.363      -10.505       23.903       35.046       15.540      571.339     1228.216      241.484        1.129        0.102      142.905        8.132        0.003      337.941       10.256      860.109
10/01/2013  01:32:00     -161.198      -90.615      -13.120       52.907       30.691       24.248     2799.203      941.958      587.984        1.935        0.216      184.921       19.234        0.011      337.808       10.032      860.109
10/01/2013  01:33:00     -182.056      -33.941      -12.987       25.727       37.442       21.605      661.887     1401.890      466.776        1.850        0.127      185.193       12.745        0.005      337.746        9.929      860.119
10/01/2013  01:34:00     -147.990       -0.582      -11.652       36.281       37.324       24.114     1316.336     1393.096      581.476        1.266        0.165      147.991       13.831        0.009      337.735        9.911      860.131
10/01/2013  01:35:00     -128.353        3.063      -11.018       53.352       38.264       22.675     2846.472     1464.106      514.161        1.071        0.241      128.390       25.054        0.038      337.779        9.984      860.132
10/01/2013  01:36:00      -70.723        0.762      -11.642       32.312       32.999       16.314     1044.088     1088.923      266.153        0.377        0.120       70.727       14.358        0.041      337.815       10.043      860.134
10/01/2013  01:37:00      -95.166       -3.313       -9.251       33.399       23.695       13.774     1115.488      561.433      189.733        0.551        0.093       95.224       12.295        0.017      337.798       10.016      860.131
10/01/2013  01:38:00      -86.683      -18.119       -5.304       21.898       31.296       14.924      479.535      979.410      222.726        0.478        0.084       88.556        9.073        0.010      337.831       10.070      860.130
10/01/2013  01:39:00     -101.655      -59.397      -10.148       30.247       26.997       14.841      914.911      728.819      220.251        0.791        0.093      117.736        4.190        0.001      337.781        9.988      860.141
10/01/2013  01:40:00     -128.037      -53.931      -12.448       44.837       36.916       21.197     2010.321     1362.792      449.312        1.164        0.191      138.932       21.511        0.024      337.695        9.843      860.146
10/01/2013  01:41:00     -130.894      -43.985       -3.627       45.350       42.183       22.940     2056.609     1779.437      526.264        1.172        0.218      138.087       20.163        0.021      337.675        9.809      860.138
10/01/2013  01:42:00     -127.719       -6.448       -6.721       63.819       35.515       31.816     4072.910     1261.283     1012.228        1.137        0.317      127.882       37.094        0.084      337.651        9.770      860.126
10/01/2013  01:43:00     -161.513       16.813      -19.397       38.509       33.922       22.101     1482.913     1150.716      488.452        1.493        0.156      162.386       15.157        0.009      337.649        9.765      860.122
10/01/2013  01:44:00     -158.078       21.434      -15.978       33.012       23.675       15.286     1089.821      560.521      233.653        1.379        0.094      159.525       13.971        0.008      337.760        9.952      860.132
10/01/2013  01:45:00     -172.486        7.351      -14.553       23.146       23.903       13.100      535.724      571.347      171.606        1.565        0.064      172.643        9.098        0.003      337.727        9.896      860.139
10/01/2013  01:46:00     -137.252       -2.157      -13.300       25.902       20.683       16.005      670.928      427.769      256.175        1.019        0.068      137.269       13.776        0.010      337.726        9.894      860.130
10/01/2013  01:47:00     -155.867        8.167      -18.633       48.507       36.387       22.576     2352.952     1324.036      509.679        1.445        0.209      156.081       11.777        0.006      337.724        9.891      860.132
10/01/2013  01:48:00     -211.994       39.919      -21.150       61.193       37.549       30.827     3744.539     1409.958      950.296        2.654        0.305      215.720       24.166        0.013      337.872       10.136      860.125
10/01/2013  01:49:00     -163.169       -0.013      -11.988       58.323       53.286       24.690     3401.612     2839.379      609.607        1.681        0.343      163.169       24.309        0.022      337.829       10.066      860.118
10/01/2013  01:50:00     -104.640       28.387      -10.018       43.945       25.445       20.526     1931.150      647.438      421.337        0.743        0.150      108.423       18.543        0.029      337.851       10.104      860.108
10/01/2013  01:51:00     -127.815       32.168       -4.504       32.506       28.880       19.379     1056.666      834.029      375.530        0.983        0.113      131.801       13.337        0.010      338.083       10.493      860.090
10/01/2013  01:52:00     -138.223       28.381      -14.536       68.810       40.960       30.959     4734.753     1677.720      958.483        1.375        0.369      141.107       29.731        0.044      337.937       10.248      860.073
10/01/2013  01:53:00     -139.394       23.972      -12.730       46.317       49.873       26.689     2145.303     2487.351      712.279        1.276        0.267      141.441       16.403        0.013      337.743        9.922      860.085
10/01/2013  01:54:00     -141.119      -71.379      -13.740       49.563       45.482       26.014     2456.471     2068.578      676.751        1.520        0.260      158.144       16.333        0.011      337.666        9.793      860.103
10/01/2013  01:55:00     -128.851      -39.549       -5.906       36.177       37.932       24.860     1308.742     1438.844      618.010        1.078        0.168      134.784       12.793        0.009      337.657        9.780      860.117
10/01/2013  01:56:00     -109.607       15.832       -7.502       25.871       21.772       18.946      669.334      474.034      358.944        0.691        0.075      110.745        8.866        0.006      337.822       10.054      860.104
10/01/2013  01:57:00     -133.883       -8.715      -13.085       30.303       26.092       20.748      918.254      680.800      430.498        1.010        0.101      134.166       15.786        0.014      337.747        9.929      860.105
10/01/2013  01:58:00     -129.901      -49.260       -0.943       63.683       38.163       25.491     4055.474     1456.377      649.793        1.273        0.308      138.928       24.165        0.030      337.670        9.801      860.115
10/01/2013  01:59:00     -149.603       -5.444      -14.854       63.794       41.728       29.279     4069.695     1741.196      857.277        1.465        0.333      149.702       31.691        0.045      337.600        9.683      860.137
10/01/2013  02:00:00     -134.682        0.901       -6.154       59.232       47.587       31.704     3508.401     2264.498     1005.129        1.248        0.339      134.685       28.366        0.044      337.697        9.843      860.146
10/01/2013  02:01:00     -193.169       -3.654      -22.626       37.745       50.834       23.047     1424.653     2584.144      531.182        2.119        0.227      193.203       18.226        0.009      337.708        9.863      860.135
10/01/2013  02:02:00     -176.876       26.130      -16.624       32.026       32.505       14.598     1025.666     1056.586      213.094        1.727        0.115      178.796        6.127        0.001      337.762        9.957      860.108
10/01/2013  02:03:00     -167.703       41.615      -10.144       31.848       20.673       14.348     1014.273      427.377      205.870        1.580        0.082      172.790       10.031        0.003      337.984       10.328      860.092
10/01/2013  02:04:00     -156.691       36.750      -10.404       29.979       30.555       19.833      898.764      933.627      393.356        1.412        0.111      160.942        8.168        0.003      338.062       10.458      860.102
10/01/2013  02:05:00     -127.495        2.324       -7.696       45.383       37.089       25.375     2059.623     1375.614      643.873        1.020        0.204      127.516       21.657        0.029      337.976       10.315      860.113
10/01/2013  02:06:00     -194.832       -0.011      -18.017       35.014       28.569       22.628     1225.946      816.189      512.033        2.042        0.128      194.832       18.616        0.009      337.934       10.244      860.114
10/01/2013  02:07:00     -125.597      -63.448      -12.601       43.876       41.953       22.652     1925.116     1760.081      513.116        1.208        0.210      140.713       17.876        0.016      337.795       10.011      860.112
10/01/2013  02:08:00     -116.460      -36.169       -3.068       35.108       37.175       20.957     1232.552     1381.990      439.181        0.897        0.153      121.947       17.669        0.021      337.714        9.875      860.121
10/01/2013  02:09:00     -106.014      -26.517       -6.704       26.247       23.803       17.167      688.914      566.569      294.696        0.677        0.078      109.280       13.823        0.016      337.700        9.851      860.110
10/01/2013  02:10:00     -152.176       -6.935      -18.074       35.375       17.620       13.942     1251.390      310.473      194.389        1.264        0.088      152.334       12.972        0.007      337.719        9.883      860.088
10/01/2013  02:11:00     -160.731      -45.228       -8.341       45.460       34.438       22.391     2066.576     1185.953      501.368        1.585        0.188      166.973       24.669        0.022      337.738        9.916      860.072
10/01/2013  02:12:00     -139.996      -22.402      -15.407       33.692       31.247       19.675     1135.163      976.380      387.123        1.142        0.125      141.777       12.279        0.008      337.756        9.945      860.083
10/01/2013  02:13:00     -125.541      -17.497      -14.043       45.416       32.413       28.871     2062.610     1050.593      833.535        1.010        0.197      126.754       28.985        0.052      337.766        9.962      860.090
10/01/2013  02:14:00      -92.892      -21.227       -4.864       26.089       25.203       18.735      680.623      635.215      350.990        0.538        0.083       95.286       15.637        0.027      337.793       10.006      860.076
10/01/2013  02:15:00      -84.080      -26.677       -5.021       20.136       26.517       14.120      405.477      703.145      199.386        0.456        0.065       88.211        8.552        0.009      337.866       10.131      860.046
10/01/2013  02:16:00      -96.323      -15.221       -4.029       23.771       20.814       16.602      565.083      433.212      275.623        0.540        0.064       97.518       13.535        0.019      337.872       10.140      860.023
10/01/2013  02:17:00      -76.045      -35.959        1.932       33.889       22.377       13.162     1148.470      500.750      173.250        0.445        0.091       84.118       12.420        0.022      337.858       10.114      860.018
10/01/2013  02:18:00        2.543        9.405       10.725       15.716       12.206       11.976      246.994      148.985      143.430        0.037        0.027        9.742        2.972        0.093      337.863       10.126      860.020
10/01/2013  02:19:00       -2.148        8.802        8.181       11.709       15.508       12.230      137.091      240.490      149.577        0.034        0.026        9.060        9.436        1.085      337.919       10.218      860.012
10/01/2013  02:20:00      -47.603        4.743       -9.358        9.109       12.483        7.062       82.974      155.814       49.872        0.133        0.014       47.838        4.722        0.010      337.974       10.310      860.009
10/01/2013  02:21:00      -95.406      -23.872      -11.795       16.148       17.338       11.896      260.742      300.613      141.525        0.526        0.035       98.347        5.205        0.003      337.960       10.287      860.004
10/01/2013  02:22:00      -85.491      -63.455       -4.316       29.317       19.889       15.990      859.488      395.565      255.675        0.643        0.076      106.467       14.640        0.019      337.941       10.257      859.986
10/01/2013  02:23:00      -55.736      -59.163       -7.152       18.361       17.800       13.000      337.121      316.844      168.996        0.374        0.041       81.282        7.396        0.008      337.959       10.285      859.960
10/01/2013  02:24:00      -18.824      -37.985       -5.154       19.964       11.550       12.476      398.578      133.399      155.648        0.126        0.034       42.394       10.274        0.059      338.010       10.371      859.944
10/01/2013  02:25:00        8.625       -7.654        1.405       10.757       12.055       12.488      115.709      145.333      155.959        0.028        0.021       11.532        9.162        0.631      337.994       10.342      859.950
10/01/2013  02:26:00      -24.091      -10.931       -1.539       32.190       13.869       10.931     1036.177      192.338      119.483        0.102        0.067       26.455        7.013        0.070      337.918       10.217      859.985
10/01/2013  02:27:00      -25.630      -36.829        2.118       46.003       34.900       22.625     2116.311     1217.999      511.904        0.293        0.192       44.869       20.605        0.211      337.851       10.105      860.010
10/01/2013  02:28:00     -147.710      -73.648       -6.177       30.847       21.733       14.072      951.539      472.317      198.020        1.445        0.081      165.053       11.562        0.005      337.754        9.942      860.000
10/01/2013  02:29:00      -75.690      -56.480       -2.216       19.031       17.449       13.870      362.192      304.484      192.375        0.489        0.043       94.440        9.808        0.011      337.780        9.985      859.976
10/01/2013  02:30:00      -43.032      -26.866        1.836       18.486       14.909       10.604      341.717      222.281      112.451        0.163        0.034       50.730       10.212        0.041      337.849       10.101      859.958
10/01/2013  02:31:00      -20.801      -27.252        2.744       23.259       11.199        9.664      540.960      125.426       93.401        0.097        0.038       34.284       10.539        0.094      338.016       10.382      859.946
10/01/2013  02:32:00        8.745      -10.691        8.261        8.899       15.155        8.202       79.198      229.677       67.268        0.032        0.019       13.812        5.513        0.159      337.966       10.298      859.964
10/01/2013  02:33:00       -1.357        6.701       12.487        5.533        7.995        6.054       30.614       63.915       36.654        0.017        0.007        6.837        4.310        0.397      337.760        9.951      859.987
10/01/2013  02:34:00       -1.760      -17.466       -3.852        6.688        7.950        5.549       44.725       63.204       30.789        0.023        0.007       17.554        3.506        0.040      337.852       10.108      859.998
10/01/2013  02:35:00       10.573        6.679       -3.336        6.957        8.137        5.768       48.398       66.206       33.268        0.016        0.007       12.506        5.745        0.211      337.931       10.238      859.974
10/01/2013  02:36:00       11.460        4.849        4.567        6.019        6.462        5.550       36.229       41.756       30.807        0.014        0.005       12.443        2.517        0.041      337.856       10.113      859.941
10/01/2013  02:37:00        2.487       -4.756        2.948       13.900       12.856        6.500      193.199      165.284       42.247        0.022        0.020        5.367        4.519        0.709      337.838       10.084      859.924
10/01/2013  02:38:00       -9.728      -23.412        5.679       30.664       15.627       11.647      940.296      244.200      135.653        0.100        0.066       25.352        8.532        0.113      337.906       10.196      859.945
10/01/2013  02:39:00      -21.905      -26.292        0.559       31.197       27.267       17.482      973.233      743.499      305.614        0.160        0.101       34.221       13.217        0.149      337.655        9.775      859.948
10/01/2013  02:40:00      -20.141      -26.071        4.590       25.252       18.896       10.756      637.653      357.057      115.682        0.111        0.056       32.945       10.929        0.110      337.849       10.099      859.906
10/01/2013  02:41:00       27.784       11.555        9.004       19.032       16.998       17.136      362.236      288.916      293.653        0.097        0.047       30.091       19.248        0.409      337.742        9.922      859.850
10/01/2013  02:42:00        9.429       21.238       30.811       27.136       24.095       15.147      736.385      580.585      229.436        0.152        0.077       23.237       13.504        0.338      337.672        9.806      859.846
10/01/2013  02:43:00       11.726      -10.277       28.319       14.828       27.099       17.298      219.859      734.363      299.228        0.115        0.063       15.592       14.556        0.872      337.660        9.784      859.866
10/01/2013  02:44:00        0.417      -47.106       -7.512       20.629       28.870       13.263      425.571      833.455      175.903        0.185        0.072       47.108        8.808        0.035      338.001       10.358      859.878
10/01/2013  02:45:00      -68.579      -23.541       -0.832       38.198       22.695       15.417     1459.074      515.069      237.688        0.373        0.111       72.507       11.159        0.024      337.795       10.010      859.890
10/01/2013  02:46:00      -52.293      -47.624       -1.241       43.216       26.991       23.872     1867.621      728.500      569.887        0.408        0.158       70.729       24.219        0.117      337.701        9.853      859.882
10/01/2013  02:47:00      -30.091      -24.326        5.719       39.867       25.945       17.231     1589.358      673.148      296.908        0.204        0.128       38.694       19.511        0.254      337.705        9.860      859.876
10/01/2013  02:48:00       22.586       12.006       14.445        9.177       10.219        9.534       84.211      104.433       90.889        0.057        0.014       25.579        2.460        0.009      337.621        9.718      859.868
10/01/2013  02:49:00      -20.533        4.804       -4.459       25.999        8.517        7.309      675.958       72.535       53.415        0.063        0.040       21.087        6.927        0.108      337.746        9.929      859.879
10/01/2013  02:50:00      -71.711        6.125       -4.606       14.909       11.681        8.189      222.276      136.441       67.066        0.281        0.021       71.972        5.040        0.005      337.628        9.730      859.906
10/01/2013  02:51:00     -105.111        5.517      -11.383       17.708       10.950        9.517      313.558      119.907       90.579        0.587        0.026      105.256        7.798        0.005      337.634        9.740      859.911
10/01/2013  02:52:00      -48.461       -4.378       -2.697       27.013       20.444       15.879      729.721      417.943      252.147        0.189        0.070       48.658       17.431        0.128      337.503        9.520      859.901
10/01/2013  02:53:00      -39.551       -6.442       -6.483       30.258       23.853       11.248      915.557      568.971      126.523        0.163        0.081       40.072       11.581        0.084      337.388        9.328      859.890
10/01/2013  02:54:00      -38.009      -13.505       -3.125       18.982       17.468        9.261      360.300      305.130       85.768        0.119        0.038       40.337        6.452        0.026      337.403        9.351      859.899
10/01/2013  02:55:00      -60.781      -32.142       -3.133       18.890       22.393       13.179      356.822      501.464      173.689        0.288        0.052       68.756        7.421        0.012      337.450        9.431      859.904
10/01/2013  02:56:00      -70.196      -29.941       -6.742       22.901       17.340       12.858      524.451      300.670      165.335        0.343        0.050       76.315        7.445        0.010      337.399        9.345      859.910
10/01/2013  02:57:00      -97.136      -41.356       -9.380       30.706       24.175       12.408      942.864      584.440      153.967        0.646        0.084      105.573        9.083        0.007      337.337        9.244      859.914
10/01/2013  02:58:00     -122.780      -43.016       -6.830       23.546       30.930       16.362      554.415      956.635      267.705        0.938        0.089      130.098       11.860        0.008      337.188        8.992      859.910
10/01/2013  02:59:00      -71.053      -20.767       -6.372       28.039       21.317       15.713      786.168      454.429      246.886        0.350        0.074       74.026       12.059        0.027      337.167        8.959      859.898
10/01/2013  03:00:00      -32.747        0.122      -10.557       24.831       20.526       10.400      616.603      421.316      108.160        0.116        0.057       32.747        6.965        0.045      337.183        8.985      859.873
10/01/2013  03:01:00     -103.233       37.530      -11.209       49.414       30.734       20.260     2441.726      944.603      410.472        0.799        0.190      109.843       13.392        0.015      337.254        9.105      859.853
10/01/2013  03:02:00     -106.128       58.232      -18.947       63.237       41.488       25.985     3998.976     1721.223      675.245        1.070        0.320      121.055       14.266        0.014      337.340        9.247      859.856
10/01/2013  03:03:00      -73.975      -22.873       -8.565       25.929       25.094       15.156      672.323      629.702      229.716        0.380        0.077       77.430       15.029        0.038      337.435        9.406      859.875
10/01/2013  03:04:00     -105.136      -27.882      -12.405       52.224       39.944       20.973     2727.350     1595.536      439.875        0.837        0.238      108.770       16.242        0.022      337.361        9.284      859.904
10/01/2013  03:05:00      -89.691      -11.364       -6.863       56.894       22.813       16.727     3236.976      520.442      279.796        0.613        0.202       90.409       17.974        0.040      337.159        8.946      859.909
10/01/2013  03:06:00      -57.450       -8.180       -5.781       24.755       13.709       12.486      612.821      187.925      155.907        0.218        0.048       58.030       10.252        0.031      337.131        8.899      859.888
10/01/2013  03:07:00      -90.301        1.335       -7.223       32.030       20.398       19.405     1025.944      416.064      376.570        0.501        0.091       90.311       15.624        0.030      337.041        8.746      859.871
10/01/2013  03:08:00      -66.858       12.003      -13.016       12.849       16.308       11.455      165.086      265.942      131.223        0.267        0.028       67.927        8.380        0.015      337.200        9.014      859.872
10/01/2013  03:09:00      -96.126      -42.083      -13.466       29.870       23.105       12.834      892.210      533.843      164.705        0.639        0.080      104.934       10.164        0.009      337.220        9.047      859.893
10/01/2013  03:10:00     -127.410      -63.117      -12.632       46.329       40.827       24.779     2146.356     1666.860      613.998        1.240        0.221      142.187       20.146        0.020      337.112        8.866      859.919
10/01/2013  03:11:00      -90.468      -15.261       -2.580       51.474       38.851       22.811     2649.596     1509.399      520.339        0.655        0.234       91.746       16.176        0.031      336.944        8.585      859.928
10/01/2013  03:12:00      -79.816      -23.716       -3.161       26.624       21.104       16.166      708.821      445.374      261.328        0.418        0.071       83.265       11.260        0.018      336.922        8.548      859.919
10/01/2013  03:13:00      -20.133      -13.691       -0.064       21.144       11.883       11.106      447.082      141.210      123.347        0.065        0.036       24.347        4.367        0.032      337.058        8.774      859.895
10/01/2013  03:14:00     -101.251      -31.718      -15.218       36.225       23.100       16.212     1312.222      533.630      262.838        0.680        0.105      106.103       11.414        0.012      337.075        8.803      859.890
10/01/2013  03:15:00     -114.978      -72.638       -8.961       27.725       34.955       21.297      768.656     1221.835      453.564        1.051        0.122      136.001       14.755        0.012      336.992        8.663      859.881
10/01/2013  03:16:00      -66.855      -42.469       -2.537       38.450       33.879       24.275     1478.407     1147.789      589.272        0.475        0.161       79.204       18.557        0.055      337.004        8.685      859.865
10/01/2013  03:17:00     -113.625      -27.235      -13.316       27.721       26.891       15.686      768.448      723.104      246.048        0.778        0.087      116.844       11.862        0.010      337.017        8.705      859.848
10/01/2013  03:18:00      -93.960      -30.527       -2.283       27.780       34.995       21.914      771.740     1224.679      480.202        0.612        0.124       98.795       17.978        0.033      336.972        8.630      859.854
10/01/2013  03:19:00     -115.472      -35.066      -14.714       33.368       26.293       21.922     1113.448      691.337      480.577        0.853        0.114      120.679       10.324        0.007      336.934        8.569      859.865
10/01/2013  03:20:00      -55.533       -2.148       -0.647       22.326       19.128       17.875      498.462      365.884      319.516        0.214        0.059       55.575       11.062        0.040      336.977        8.638      859.865
10/01/2013  03:21:00      -20.052      -39.474       -2.709       24.343       22.654       16.506      592.583      513.210      272.444        0.167        0.069       44.275        5.830        0.017      337.004        8.685      859.866
10/01/2013  03:22:00      -46.662      -21.098       -0.594       50.586       27.281       22.083     2558.951      744.270      487.641        0.321        0.190       51.210       20.777        0.165      336.945        8.587      859.846
10/01/2013  03:23:00     -136.594      -45.888      -12.456       50.462       43.626       22.836     2546.447     1903.196      521.480        1.294        0.249      144.096       17.503        0.015      336.978        8.641      859.828
10/01/2013  03:24:00     -159.685       10.339      -14.537       45.108       35.358       22.904     2034.696     1250.205      524.582        1.481        0.190      160.019       17.188        0.012      336.836        8.404      859.815
10/01/2013  03:25:00     -165.047       -2.053      -15.056       45.987       49.812       22.791     2114.778     2481.255      519.413        1.629        0.256      165.060       21.244        0.017      336.893        8.499      859.800
10/01/2013  03:26:00      -98.518      -43.293       -2.968       49.860       38.505       23.856     2486.046     1482.606      569.097        0.806        0.227      107.610       19.732        0.034      336.845        8.420      859.795
10/01/2013  03:27:00     -101.911      -31.741       -8.468       33.009       39.310       23.442     1089.568     1545.289      549.518        0.732        0.159      106.740        9.922        0.009      336.867        8.456      859.787
10/01/2013  03:28:00     -183.155       -7.803      -18.219       58.692       43.437       26.759     3444.740     1886.814      716.061        1.999        0.302      183.321       24.591        0.018      336.812        8.364      859.787
10/01/2013  03:29:00     -150.571      -14.411       -9.564       64.459       51.632       39.560     4155.009     2665.849     1565.004        1.568        0.419      151.259       32.498        0.046      336.775        8.302      859.799
10/01/2013  03:30:00     -148.749       62.073      -16.444       50.542       52.357       29.336     2554.485     2741.216      860.582        1.620        0.308      161.181       21.035        0.017      336.851        8.430      859.792
10/01/2013  03:31:00     -207.878       69.475      -25.172       61.638       49.786       28.051     3799.185     2478.686      786.852        2.787        0.353      219.181       22.082        0.010      336.988        8.656      859.784
10/01/2013  03:32:00     -161.462      -55.922      -10.391       50.459       67.161       32.912     2546.142     4510.630     1083.224        1.872        0.407      170.872       23.961        0.020      336.954        8.600      859.795
10/01/2013  03:33:00     -188.104       18.635      -16.841       64.014       65.395       33.063     4097.848     4276.445     1093.143        2.274        0.473      189.025       30.974        0.027      336.935        8.568      859.812
10/01/2013  03:34:00     -173.505       29.887      -16.481       54.122       36.450       27.743     2929.164     1328.612      769.654        1.815        0.251      176.060       17.540        0.010      337.036        8.738      859.796
10/01/2013  03:35:00     -120.477       30.861       -6.253       60.938       52.043       33.063     3713.463     2708.500     1093.153        1.151        0.376      124.367       38.326        0.095      337.103        8.850      859.769
10/01/2013  03:36:00     -115.071       -0.672       -9.136       52.610       38.098       21.873     2767.821     1451.483      478.427        0.901        0.235      115.073       26.511        0.053      337.152        8.932      859.761
10/01/2013  03:37:00     -146.419      -20.412      -10.105       43.317       37.412       26.767     1876.327     1399.677      716.492        1.297        0.200      147.835       21.095        0.020      337.075        8.804      859.770
10/01/2013  03:38:00     -139.711      -32.992      -10.915       43.636       44.396       27.492     1904.131     1971.025      755.809        1.268        0.232      143.553       24.174        0.028      337.014        8.700      859.774
10/01/2013  03:39:00     -102.669      -32.685       -5.859       40.717       42.887       25.682     1657.885     1839.322      659.544        0.790        0.208      107.746       19.146        0.032      336.915        8.537      859.791
10/01/2013  03:40:00     -117.363      -27.616      -12.700       43.297       34.038       21.313     1874.644     1158.590      454.253        0.909        0.174      120.568       22.224        0.034      336.974        8.634      859.797
10/01/2013  03:41:00     -101.219      -22.761      -10.468       36.787       42.284       21.670     1353.290     1787.901      469.586        0.724        0.181      103.747       12.055        0.014      336.945        8.584      859.782
10/01/2013  03:42:00      -74.734      -22.795      -11.612       31.969       29.055       15.804     1021.996      844.173      249.764        0.418        0.106       78.133        8.232        0.011      336.941        8.579      859.769
10/01/2013  03:43:00     -119.860        0.170      -14.037       35.559       25.468       19.026     1264.410      648.610      361.988        0.842        0.114      119.860       16.694        0.019      337.014        8.701      859.763
10/01/2013  03:44:00     -129.561      -28.364      -16.370       37.088       19.614       18.100     1375.537      384.710      327.623        0.997        0.104      132.629       18.037        0.018      336.934        8.568      859.751
10/01/2013  03:45:00      -84.170      -24.336       -8.008       37.653       24.127       18.926     1417.714      582.131      358.180        0.505        0.118       87.618       15.830        0.033      336.952        8.598      859.744
10/01/2013  03:46:00     -101.935        3.602       -9.305       27.201       30.655       19.569      739.914      939.712      382.946        0.628        0.103      101.999       11.182        0.012      337.013        8.699      859.736
10/01/2013  03:47:00      -75.516      -16.288       -4.801       27.490       30.399       19.954      755.707      924.081      398.178        0.403        0.104       77.252       13.897        0.032      337.129        8.894      859.721
10/01/2013  03:48:00     -103.826      -62.652       -4.987       35.573       38.216       24.238     1265.419     1460.432      587.457        0.902        0.166      121.264       14.446        0.014      337.049        8.761      859.714
10/01/2013  03:49:00     -180.163      -31.333       -9.083       51.426       42.857       29.462     2644.602     1836.722      867.996        1.944        0.267      182.867       28.365        0.024      336.905        8.518      859.730
10/01/2013  03:50:00     -118.596      -32.641       -6.941       48.669       39.562       27.923     2368.652     1565.181      779.682        0.995        0.236      123.006       22.611        0.034      336.918        8.542      859.736
10/01/2013  03:51:00     -138.934      -38.912       -2.505       46.087       36.137       24.150     2124.029     1305.877      583.238        1.242        0.201      144.280       23.956        0.028      336.957        8.606      859.736
10/01/2013  03:52:00     -116.066      -19.970       -7.087       54.703       49.431       28.092     2992.381     2443.388      789.166        1.007        0.311      117.771       30.407        0.067      336.977        8.640      859.742
10/01/2013  03:53:00      -96.869      -12.147       -5.065       52.398       39.262       24.585     2745.567     1541.473      604.403        0.722        0.245       97.628       24.429        0.063      337.033        8.732      859.726
10/01/2013  03:54:00     -125.636      -63.392       -5.883       36.733       39.372       23.424     1349.293     1550.119      548.680        1.164        0.172      140.723       15.213        0.012      337.027        8.724      859.712
10/01/2013  03:55:00     -171.217      -27.661      -12.802       43.536       48.537       25.054     1895.358     2355.877      627.707        1.756        0.244      173.437       17.980        0.011      337.000        8.677      859.727
10/01/2013  03:56:00     -186.522       10.307      -12.853       55.379       40.441       24.380     3066.875     1635.492      594.368        2.018        0.265      186.806       24.809        0.018      337.035        8.735      859.745
10/01/2013  03:57:00     -151.653      -24.726      -12.464       42.253       32.915       20.236     1785.348     1083.369      409.488        1.352        0.164      153.656       20.416        0.018      337.055        8.771      859.746
10/01/2013  03:58:00     -120.136      -10.081       -9.835       33.799       17.821       16.954     1142.401      317.606      287.440        0.819        0.087      120.558       15.506        0.017      337.017        8.708      859.723
10/01/2013  03:59:00     -148.348      -32.840       -8.510       27.233       27.993       16.792      741.661      783.630      281.967        1.248        0.090      151.939       10.789        0.005      337.049        8.759      859.716
10/01/2013  04:00:00     -210.516      -52.376      -16.034       23.858       31.661       17.292      569.202     1002.443      299.026        2.459        0.094      216.934        8.181        0.001      336.971        8.629      859.730
10/01/2013  04:01:00     -122.281      -48.767       -3.867       46.743       43.877       21.378     2184.886     1925.179      456.998        1.096        0.228      131.647       21.168        0.026      337.058        8.775      859.760
10/01/2013  04:02:00      -88.014      -13.398       -5.638       25.343       13.292       14.040      642.275      176.680      197.111        0.449        0.051       89.028       12.777        0.021      337.034        8.734      859.756
10/01/2013  04:03:00     -121.295      -37.086       -7.306       32.163       22.486       15.476     1034.468      505.636      239.495        0.896        0.089      126.838       15.905        0.016      337.079        8.809      859.750
10/01/2013  04:04:00     -118.740      -35.831        5.784       72.887       32.685       26.807     5312.501     1068.293      718.599        1.126        0.355      124.028       32.385        0.068      337.002        8.680      859.758
10/01/2013  04:05:00      -99.688      -48.501       -6.845       28.795       23.517       16.136      829.163      553.039      260.385        0.699        0.082      110.861       17.658        0.025      337.150        8.929      859.762
10/01/2013  04:06:00       40.684       33.635       13.116       46.415       21.509       20.127     2154.364      462.659      405.100        0.299        0.151       52.787       18.033        0.117      337.185        8.988      859.732
10/01/2013  04:07:00      124.121       57.933       -4.749       27.613       28.745       23.418      762.489      826.284      548.424        1.046        0.107      136.976       11.298        0.007      337.189        8.994      859.696
10/01/2013  04:08:00      100.453       67.568       27.822       51.590       30.586       30.121     2661.578      935.518      907.270        0.997        0.225      121.063       25.114        0.043      337.153        8.934      859.684
10/01/2013  04:09:00      -36.249       11.536        2.359       73.109       40.557       29.350     5344.873     1644.859      861.421        0.465        0.393       38.041       37.047        0.948      337.173        8.969      859.717
10/01/2013  04:10:00      -48.797      -62.069        2.768       52.102       39.274       29.250     2714.589     1542.425      855.581        0.568        0.256       78.954       18.897        0.057      337.165        8.955      859.775
10/01/2013  04:11:00      -40.520      -53.972        4.538       29.903       17.664       16.537      894.167      312.033      273.484        0.303        0.074       67.490       14.990        0.049      337.465        9.456      859.796
10/01/2013  04:12:00       22.083       27.711        5.997       22.782       18.311       15.818      519.028      335.277      250.203        0.120        0.055       35.433       13.470        0.145      337.331        9.232      859.787
10/01/2013  04:13:00       26.619       11.068        7.701       10.962        9.618       10.891      120.161       92.497      118.616        0.061        0.017       28.829        4.429        0.024      337.557        9.611      859.768
10/01/2013  04:14:00       -1.607      -11.714       -1.015       30.493       23.941       17.828      929.808      573.151      317.849        0.098        0.091       11.824        8.209        0.482      337.421        9.383      859.789
10/01/2013  04:15:00      -88.175      -63.280        2.600       68.316       37.454       31.640     4667.078     1402.831     1001.113        0.943        0.354      108.532       30.492        0.079      337.083        8.817      859.805
10/01/2013  04:16:00      -39.676      -27.329        9.584       30.007       28.951       14.782      900.394      838.185      218.508        0.218        0.098       48.177       17.340        0.130      337.081        8.813      859.784
10/01/2013  04:17:00       -8.224        7.451        7.857       11.456       15.489        8.611      131.245      239.898       74.150        0.031        0.022       11.097        7.612        0.470      337.020        8.711      859.754
10/01/2013  04:18:00       -4.439       -2.846       19.258       17.030       24.768       13.174      290.032      613.470      173.547        0.074        0.054        5.274       16.161        9.391      337.000        8.677      859.738
10/01/2013  04:19:00      -55.125      -45.001        2.342       48.775       22.118       19.843     2378.985      489.227      393.764        0.416        0.163       71.160        9.104        0.016      337.120        8.879      859.723
10/01/2013  04:20:00      -36.492      -44.585        1.345       40.519       30.640       21.702     1641.789      938.828      470.986        0.319        0.153       57.615       13.199        0.052      337.051        8.763      859.719
10/01/2013  04:21:00     -104.466      -21.538       -2.336       32.788       32.854       10.459     1075.052     1079.376      109.381        0.682        0.113      106.664        7.820        0.005      336.987        8.657      859.728
10/01/2013  04:22:00      -44.664       30.219       -9.271       18.320       18.894       13.368      335.632      356.994      178.698        0.193        0.044       53.926        8.018        0.022      336.960        8.611      859.710
10/01/2013  04:23:00      -32.982       28.760       -4.836       18.359       27.042       11.099      337.043      731.273      123.188        0.156        0.060       43.759        8.160        0.035      337.070        8.797      859.714
10/01/2013  04:24:00      -65.895      -32.644      -11.689       43.867       30.425       18.881     1924.301      925.675      356.494        0.437        0.160       73.538       15.587        0.045      337.028        8.725      859.758
10/01/2013  04:25:00       -5.386      -32.209        7.666       32.015       28.436       23.078     1024.934      808.591      532.601        0.175        0.118       32.656        9.696        0.088      337.002        8.682      859.788
10/01/2013  04:26:00       -4.127      -13.081        5.930       22.106       12.264       14.351      488.665      150.412      205.951        0.053        0.042       13.717       11.254        0.673      336.956        8.604      859.803
10/01/2013  04:27:00      -48.870      -10.161       -1.695       26.497       13.078        8.970      702.100      171.030       80.457        0.172        0.048       49.915        6.901        0.019      337.025        8.721      859.787
10/01/2013  04:28:00      -44.159       12.827       -4.819       13.500       18.241        9.577      182.249      332.738       91.719        0.137        0.030       45.984        9.346        0.041      337.024        8.717      859.765
10/01/2013  04:29:00      -38.714       43.821       -6.628       17.439       12.397        8.370      304.121      153.696       70.063        0.200        0.026       58.472        7.275        0.015      337.253        9.100      859.750
10/01/2013  04:30:00       31.868       37.577       -3.119       29.237       19.657       11.862      854.814      386.393      140.700        0.191        0.069       49.271        9.091        0.034      337.450        9.433      859.757
10/01/2013  04:31:00       43.752        6.049        1.515       12.434       14.177       10.334      154.603      200.979      106.783        0.121        0.023       44.169        6.514        0.022      337.315        9.205      859.782
10/01/2013  04:32:00       13.640       -6.287       -5.248       22.608        8.708        7.215      511.133       75.827       52.057        0.045        0.032       15.019        2.905        0.037      337.445        9.424      859.818
10/01/2013  04:33:00      -38.337       -0.561       -4.064       22.979       13.127       11.293      528.046      172.310      127.532        0.116        0.041       38.341       13.545        0.125      337.352        9.268      859.826
10/01/2013  04:34:00      -73.894       13.040      -10.132       13.559       11.862        9.391      183.847      140.702       88.185        0.307        0.021       75.035        7.482        0.010      337.030        8.728      859.826
10/01/2013  04:35:00      -75.215       23.126      -14.116       17.007       12.064        8.567      289.230      145.547       73.386        0.345        0.025       78.690        4.336        0.003      337.060        8.779      859.831
10/01/2013  04:36:00      -41.648       31.751       -9.757       12.324       13.767        8.127      151.887      189.520       66.046        0.162        0.020       52.371        4.228        0.007      337.371        9.299      859.827
10/01/2013  04:37:00       -0.012       18.100       -3.035       12.511       14.642        8.321      156.520      214.377       69.235        0.039        0.022       18.100        4.886        0.073      337.649        9.765      859.840
10/01/2013  04:38:00      -21.139      -16.484        2.040       24.337       10.083        8.828      592.290      101.662       77.942        0.075        0.039       26.806        9.891        0.136      337.585        9.660      859.867
10/01/2013  04:39:00     -109.649      -39.508      -12.628       18.211       15.872        9.194      331.649      251.923       84.535        0.721        0.033      116.550        5.693        0.002      337.069        8.793      859.868
10/01/2013  04:40:00      -73.323       -9.313       -7.408       18.166       19.512        8.065      330.007      380.731       65.041        0.315        0.039       73.912        4.526        0.004      337.081        8.813      859.837
10/01/2013  04:41:00      -37.974       30.163       -8.710       19.387       12.414       12.055      375.860      154.099      145.312        0.155        0.034       48.496        7.543        0.024      337.507        9.528      859.794
10/01/2013  04:42:00        0.150       23.034        0.249        7.900        9.993        7.363       62.407       99.850       54.221        0.037        0.011       23.035        5.166        0.050      337.687        9.830      859.770
10/01/2013  04:43:00      -12.108        4.399        1.639        9.612       19.827        5.583       92.399      393.100       31.167        0.034        0.026       12.882        4.131        0.103      337.668        9.797      859.770
10/01/2013  04:44:00      -39.337      -16.651       -1.878       26.528        9.160       11.126      703.736       83.900      123.787        0.137        0.046       42.716       12.435        0.085      337.294        9.170      859.771
10/01/2013  04:45:00      -90.402      -26.617       -6.093       13.555       13.481        8.057      183.734      181.739       64.913        0.467        0.022       94.238        4.053        0.002      337.090        8.830      859.769
10/01/2013  04:46:00      -89.963      -28.194      -10.445       14.244       19.875        7.962      202.889      395.029       63.388        0.483        0.033       94.277        6.035        0.004      337.074        8.801      859.769
10/01/2013  04:47:00      -67.360      -17.926       -3.058       15.476       11.799        7.530      239.515      139.222       56.699        0.265        0.022       69.704        6.126        0.008      337.054        8.769      859.779
10/01/2013  04:48:00      -19.233       21.638       -7.906       10.806       15.357        5.870      116.776      235.831       34.461        0.064        0.019       28.950        6.016        0.043      337.057        8.774      859.767
10/01/2013  04:49:00      -21.147       37.052       -7.197       20.124       20.241        6.620      404.978      409.707       43.820        0.136        0.043       42.662        9.686        0.052      337.416        9.376      859.709
10/01/2013  04:50:00      -69.654       44.531      -11.932       25.021       30.140       13.742      626.045      908.445      188.838        0.435        0.086       82.672        8.446        0.010      337.228        9.060      859.705
10/01/2013  04:51:00      -84.666      -22.659      -13.580       21.749       16.715       11.392      473.015      279.402      129.782        0.437        0.044       87.646        8.846        0.010      336.730        8.229      859.731
10/01/2013  04:52:00      -14.360       -3.147        0.608       22.974       16.778       12.210      527.810      281.500      149.079        0.059        0.048       14.701       11.324        0.593      336.973        8.635      859.714
10/01/2013  04:53:00      -13.292       16.511       -0.853       22.102       23.626        7.174      488.482      558.167       51.469        0.077        0.055       21.196        9.106        0.185      337.508        9.529      859.692
10/01/2013  04:54:00      -68.036      -19.241       -6.798       14.444       15.322        9.954      208.638      234.749       99.080        0.279        0.027       70.704        2.926        0.002      337.085        8.819      859.674
10/01/2013  04:55:00      -26.392       19.090       -9.268       16.058       20.454        9.557      257.848      418.383       91.346        0.096        0.038       32.573       10.484        0.104      337.440        9.417      859.647
10/01/2013  04:56:00       10.330       25.845        2.213        9.850       11.293       10.572       97.020      127.531      111.765        0.056        0.017       27.833        9.176        0.109      337.937       10.250      859.631
10/01/2013  04:57:00      -62.999      -19.297       -7.021       62.618       23.757       10.663     3920.977      564.382      113.708        0.449        0.230       65.888       15.165        0.053      337.828       10.065      859.672
10/01/2013  04:58:00     -142.803      -64.671        3.303       60.243       71.186       35.323     3629.240     5067.385     1247.686        1.726        0.497      156.764       22.400        0.020      336.858        8.439      859.692
10/01/2013  04:59:00     -131.340      -26.537      -11.370       41.847       32.893       24.965     1751.201     1081.918      623.271        1.077        0.173      133.995       22.032        0.027      336.926        8.556      859.708
10/01/2013  05:00:00      -58.051       17.666       -3.237       20.990       11.990       10.783      440.587      143.756      116.270        0.220        0.035       60.679        9.609        0.025      337.235        9.072      859.702
10/01/2013  05:01:00      -37.922      -22.905       -6.825       23.671       18.574       12.169      560.324      345.007      148.084        0.153        0.053       44.302        6.613        0.022      337.385        9.324      859.669
10/01/2013  05:02:00     -129.999      -35.666       -6.446       48.242       47.877       33.944     2327.303     2292.180     1152.195        1.199        0.289      134.803       29.473        0.048      336.929        8.559      859.646
10/01/2013  05:03:00     -171.435        3.191      -24.091       29.180       25.687       18.103      851.447      659.842      327.722        1.591        0.092      171.465       10.494        0.004      336.782        8.316      859.640
10/01/2013  05:04:00     -123.823      -23.854       -0.461       53.812       32.711       23.568     2895.696     1070.024      555.436        1.021        0.226      126.100       24.597        0.038      337.035        8.737      859.642
10/01/2013  05:05:00      -56.476      -29.890       -3.211       40.164       21.565       16.543     1613.114      465.055      273.673        0.322        0.118       63.899       14.739        0.053      336.894        8.501      859.627
10/01/2013  05:06:00      -33.266      -10.976       -0.075       21.118       12.119        8.034      445.981      146.860       64.547        0.094        0.033       35.030        4.959        0.020      336.903        8.515      859.587
10/01/2013  05:07:00      -40.669      -20.245       -3.830       37.359       17.854       12.102     1395.660      318.749      146.453        0.197        0.093       45.430       16.325        0.129      336.954        8.601      859.576
10/01/2013  05:08:00      -99.030      -61.689       -7.160       38.430       31.029       18.566     1476.862      962.818      344.685        0.822        0.139      116.672       19.803        0.029      336.863        8.449      859.621
10/01/2013  05:09:00      -95.993      -48.464        5.520       47.400       34.175       24.081     2246.779     1167.909      579.895        0.779        0.200      107.533       19.836        0.034      336.801        8.348      859.661
10/01/2013  05:10:00     -108.163      -51.141       -4.632       32.102       35.039       14.138     1030.538     1227.752      199.875        0.840        0.123      119.644        8.094        0.005      336.799        8.344      859.660
10/01/2013  05:11:00     -116.009      -49.210       -5.909       25.481       19.195       17.742      649.302      368.442      314.767        0.862        0.067      126.014       14.015        0.012      336.805        8.353      859.631
10/01/2013  05:12:00      -88.423      -33.021       -6.946       18.518       29.380       12.037      342.907      863.191      144.900        0.515        0.068       94.388       10.118        0.011      336.859        8.442      859.579
10/01/2013  05:13:00      -40.942       26.274       -3.925       19.418       19.179       11.232      377.060      367.838      126.164        0.163        0.044       48.647       11.413        0.055      336.929        8.559      859.514
10/01/2013  05:14:00      -33.460       -6.188       -7.331       31.641       34.748       12.539     1001.183     1207.421      157.237        0.179        0.118       34.028       17.932        0.278      337.110        8.863      859.513
10/01/2013  05:15:00      -86.377      -74.304       -3.321       69.600       49.611       35.900     4844.127     2461.260     1288.793        1.079        0.430      113.938       29.667        0.068      337.037        8.740      859.622
10/01/2013  05:16:00      -47.481      -42.620       11.932       46.934       46.980       28.759     2202.816     2207.152      827.094        0.472        0.262       63.804       30.217        0.224      336.847        8.423      859.653
10/01/2013  05:17:00      -12.414       23.493        9.601       30.948       22.106       15.717      957.760      488.674      247.027        0.125        0.085       26.571       17.754        0.446      336.824        8.385      859.601
10/01/2013  05:18:00       21.845       40.230        7.884       20.781       17.099       12.945      431.864      292.366      167.566        0.152        0.045       45.779        8.498        0.034      337.217        9.042      859.541
10/01/2013  05:19:00      -25.670       -8.114      -15.228       30.770       21.375       12.212      946.777      456.906      149.131        0.125        0.078       26.922        6.677        0.062      337.685        9.825      859.526
10/01/2013  05:20:00      -69.198      -22.008       -3.640       50.468       20.016       16.373     2547.022      400.622      268.065        0.425        0.161       72.614       14.878        0.042      337.130        8.896      859.583
10/01/2013  05:21:00      -58.553      -44.737        4.853       56.040       42.716       26.182     3140.512     1824.636      685.511        0.555        0.283       73.687       22.268        0.091      336.938        8.575      859.649
10/01/2013  05:22:00      -71.300      -46.267       -2.497       33.572       31.803       17.423     1127.062     1011.424      303.574        0.484        0.122       84.996       16.922        0.040      337.013        8.701      859.668
10/01/2013  05:23:00      -27.875      -10.633       -0.919       17.045       10.176        9.305      290.518      103.561       86.584        0.069        0.024       29.834        7.831        0.069      337.061        8.780      859.635
10/01/2013  05:24:00      -33.153        1.635       -7.505       15.436        9.684        6.320      238.280       93.772       39.939        0.076        0.019       33.193        8.943        0.073      336.934        8.568      859.591
10/01/2013  05:25:00      -71.370      -10.237      -13.449       20.317       13.263       14.318      412.767      175.903      205.006        0.309        0.040       72.101       11.016        0.023      337.102        8.848      859.565
10/01/2013  05:26:00      -98.669      -11.471      -15.452       14.404       11.088       12.842      207.470      122.942      164.922        0.530        0.025       99.334        5.179        0.003      337.018        8.708      859.540
10/01/2013  05:27:00     -117.933      -22.848      -15.938       11.573       16.248        9.335      133.930      263.986       87.135        0.758        0.024      120.126        4.239        0.001      336.869        8.459      859.535
10/01/2013  05:28:00     -111.387      -56.160      -16.320       13.293       17.530       13.022      176.698      307.296      169.574        0.824        0.033      124.743        6.469        0.003      336.848        8.425      859.555
10/01/2013  05:29:00      -63.791      -37.847       -2.779       23.622       22.820       15.752      557.980      520.763      248.117        0.342        0.066       74.174       13.141        0.031      336.755        8.271      859.568
10/01/2013  05:30:00      -29.647      -34.286       -4.577       29.943       18.649       17.350      896.564      347.782      301.016        0.181        0.077       45.327       15.419        0.116      336.807        8.357      859.569
10/01/2013  05:31:00      -36.681       -9.431       -4.078       18.021       17.302       11.599      324.747      299.342      134.528        0.110        0.038       37.874        9.049        0.057      336.793        8.336      859.552
10/01/2013  05:32:00      -31.603       36.463       -9.156       13.736       16.242        7.390      188.674      263.788       54.618        0.146        0.025       48.253        8.289        0.030      337.038        8.741      859.508
10/01/2013  05:33:00       -7.229       15.016        1.202        8.999       24.706        5.124       80.987      610.368       26.250        0.050        0.036       16.666        7.748        0.216      337.326        9.225      859.485
10/01/2013  05:34:00      -75.392      -14.640       -9.528       25.953       22.688       12.764      673.545      514.760      162.932        0.367        0.068       76.801       12.493        0.026      336.942        8.582      859.524
10/01/2013  05:35:00     -121.989      -63.753       -7.541       32.803       31.119       18.267     1076.018      968.375      333.683        1.069        0.119      137.644       16.104        0.014      336.723        8.217      859.563
10/01/2013  05:36:00     -104.406      -23.525      -11.364       38.745       39.090       24.702     1501.155     1527.995      610.174        0.761        0.182      107.023       17.481        0.027      336.607        8.024      859.571
10/01/2013  05:37:00      -78.710       32.450       -9.350       34.313       45.654       20.732     1177.413     2084.279      429.802        0.551        0.185       85.137       23.428        0.076      336.680        8.145      859.550
10/01/2013  05:38:00      -24.501      108.640       -4.467       24.272       21.164       15.856      589.133      447.895      251.428        0.686        0.064      111.368       12.495        0.013      337.004        8.685      859.510
10/01/2013  05:39:00      -38.575       79.972      -16.458       26.050       27.876       12.840      678.582      777.076      164.877        0.489        0.081       88.790        7.552        0.007      336.918        8.542      859.526
10/01/2013  05:40:00      -78.980      -26.155       -8.722       51.193       18.015       13.816     2620.725      324.536      190.875        0.507        0.157       83.198       16.819        0.041      336.768        8.292      859.600
10/01/2013  05:41:00     -119.174      -42.597       -8.497       71.433       42.204       27.917     5102.744     1781.181      779.356        1.187        0.383      126.558       17.190        0.018      336.582        7.981      859.664
10/01/2013  05:42:00     -109.965        5.155        0.746       54.913       40.345       34.872     3015.479     1627.748     1216.066        0.899        0.293      110.086       27.717        0.063      336.327        7.555      859.699
10/01/2013  05:43:00      -34.025        4.017       -4.576       29.813       17.545       18.655      888.836      307.816      347.992        0.137        0.077       34.261       13.105        0.146      336.524        7.885      859.681
10/01/2013  05:44:00        3.420        8.647       12.366       15.181       12.480       14.513      230.448      155.739      210.621        0.042        0.030        9.298        9.322        1.005      336.722        8.217      859.645
10/01/2013  05:45:00      -18.659       21.019       -3.207       16.901       11.539        9.334      285.650      133.151       87.132        0.065        0.025       28.106        8.702        0.096      336.843        8.417      859.613
10/01/2013  05:46:00      -81.167      -16.678       -8.001       29.047       28.683       13.625      843.743      822.716      185.652        0.439        0.093       82.862       16.903        0.042      336.946        8.590      859.595
10/01/2013  05:47:00     -140.462      -42.901      -16.398       36.739       22.818       16.826     1349.731      520.678      283.122        1.200        0.108      146.868        8.715        0.004      336.517        7.873      859.614
10/01/2013  05:48:00     -170.551      -52.679      -16.206       47.509       42.300       22.424     2257.131     1789.263      502.826        1.834        0.227      178.501       19.759        0.012      336.549        7.925      859.648
10/01/2013  05:49:00      -79.870      -31.152       -7.120       65.361       35.620       18.053     4272.017     1268.816      325.896        0.663        0.293       85.730       20.435        0.057      336.649        8.093      859.666
10/01/2013  05:50:00      -26.798       -8.343        6.517       33.443       24.118       23.076     1118.414      581.678      532.489        0.153        0.112       28.067       24.010        0.732      336.733        8.234      859.664
10/01/2013  05:51:00        2.126      -13.423        7.089       23.754       18.510       13.949      564.271      342.603      194.571        0.067        0.055       13.591       13.416        0.974      336.752        8.266      859.652
10/01/2013  05:52:00       -6.897      -30.660      -11.117       12.281       11.902        8.873      150.819      141.669       78.736        0.074        0.019       31.426        5.585        0.032      336.892        8.500      859.646
10/01/2013  05:53:00      -67.352      -24.345       -9.410       23.360       13.135       11.792      545.683      172.525      139.056        0.304        0.043       71.617        9.115        0.016      336.752        8.266      859.644
10/01/2013  05:54:00      -69.583      -19.543       -9.832       11.345        7.949        7.025      128.710       63.182       49.346        0.278        0.012       72.275        2.593        0.001      336.818        8.376      859.629
10/01/2013  05:55:00      -28.160      -21.441       -7.403       10.580        6.573        6.311      111.944       43.203       39.831        0.075        0.010       35.394        3.899        0.012      336.833        8.400      859.622
10/01/2013  05:56:00      -34.072      -18.225      -12.862       16.942        7.942        8.938      287.022       63.082       79.882        0.104        0.021       38.640        9.098        0.055      336.883        8.482      859.637
10/01/2013  05:57:00      -69.008      -16.128       -8.784       18.218       11.355        9.227      331.878      128.928       85.135        0.282        0.027       70.867        0.591        0.000      336.868        8.459      859.660
10/01/2013  05:58:00     -108.392       -4.894      -12.534       12.736       10.423        8.647      162.198      108.630       74.768        0.614        0.017      108.503        6.208        0.003      336.821        8.381      859.668
10/01/2013  05:59:00      -99.472       -9.671      -14.903       24.402       13.733        8.059      595.457      188.594       64.947        0.553        0.042       99.941        7.087        0.005      336.757        8.274      859.664
10/01/2013  06:00:00      -15.169      -19.322        4.422       24.572       17.825       12.337      603.761      317.740      152.196        0.085        0.054       24.565       11.610        0.223      336.683        8.150      859.672
10/01/2013  06:01:00      -26.802      -18.923       -8.283       17.137       12.175       11.875      293.663      148.238      141.009        0.086        0.029       32.809        9.578        0.085      336.706        8.189      859.674
10/01/2013  06:02:00      -34.865      -14.811       -4.439       23.032       13.596       17.780      530.459      184.848      316.129        0.124        0.052       37.881       15.761        0.173      336.695        8.171      859.695
10/01/2013  06:03:00      -26.440      -33.883       -0.324       11.185       18.897       13.460      125.099      357.110      181.175        0.126        0.033       42.978        8.159        0.036      336.732        8.234      859.690
10/01/2013  06:04:00       -1.905       -3.314       -0.148       13.646       11.839        4.972      186.204      140.163       24.723        0.018        0.018        3.822        3.062        0.642      336.729        8.227      859.683
10/01/2013  06:05:00       19.755       22.866        4.942        8.778        7.115        7.473       77.050       50.617       55.850        0.056        0.009       30.218        5.967        0.039      336.744        8.251      859.667
10/01/2013  06:06:00        8.366       13.766        7.753        4.299        6.348        5.952       18.477       40.294       35.432        0.021        0.005       16.109        3.847        0.057      336.747        8.258      859.658
10/01/2013  06:07:00      -12.342       28.044       -6.136        8.952       14.530        7.883       80.132      211.119       62.146        0.066        0.018       30.639        3.996        0.017      336.805        8.354      859.654
10/01/2013  06:08:00      -64.786       13.035      -13.947       16.423       18.313       13.284      269.730      335.377      176.464        0.267        0.039       66.085        6.821        0.011      336.550        7.929      859.654
10/01/2013  06:09:00      -75.894       -8.037      -12.874       16.122       13.264        8.809      259.926      175.937       77.606        0.325        0.026       76.319        8.441        0.012      336.506        7.853      859.666
10/01/2013  06:10:00      -59.634      -13.111      -10.910       12.394       16.039        8.987      153.622      257.265       80.773        0.217        0.025       61.058        6.387        0.011      336.495        7.835      859.674
10/01/2013  06:11:00      -47.994      -10.390      -11.812       15.891       16.236       10.059      252.538      263.599      101.184        0.158        0.031       49.105        9.536        0.038      336.511        7.862      859.674
10/01/2013  06:12:00       -2.842       -6.437        0.386       16.284       10.600       12.676      265.168      112.371      160.680        0.029        0.027        7.036       10.100        2.060      336.713        8.200      859.669
10/01/2013  06:13:00       12.383       14.396        7.947       13.468       10.749        7.645      181.395      115.540       58.439        0.039        0.018       18.989        6.189        0.106      336.831        8.396      859.685
10/01/2013  06:14:00       -6.089      -10.434       -4.956        8.691        7.021        9.332       75.535       49.293       87.091        0.019        0.011       12.081        1.453        0.014      336.710        8.196      859.718
10/01/2013  06:15:00      -39.957       -9.425       -5.970       12.842        7.791        7.575      164.916       60.705       57.384        0.100        0.014       41.053        3.434        0.007      336.571        7.964      859.727
10/01/2013  06:16:00      -17.912       -8.472       -1.559       11.911       11.257        9.335      141.866      126.729       87.142        0.038        0.018       19.814        8.638        0.190      336.701        8.182      859.728
10/01/2013  06:17:00       -9.838       62.275       -8.265       11.371       52.998       12.677      129.295     2808.772      160.713        0.357        0.155       63.047       22.535        0.128      337.034        8.736      859.706
10/01/2013  06:18:00      -26.221       78.294      -10.484       19.171       56.654       12.699      367.542     3209.688      161.267        0.533        0.187       82.568       21.782        0.070      337.101        8.847      859.684
10/01/2013  06:19:00      -39.512       17.434       -4.390       16.567       24.686       11.525      274.454      609.412      132.825        0.145        0.051       43.188        8.701        0.041      336.789        8.327      859.693
10/01/2013  06:20:00      -49.485      -19.181       -7.825        8.454       13.710       10.325       71.471      187.971      106.605        0.162        0.018       53.072        6.289        0.014      336.490        7.825      859.709
10/01/2013  06:21:00      -47.741       -1.093      -18.363        9.340       14.237       12.835       87.237      202.685      164.746        0.154        0.023       47.754        7.998        0.028      336.480        7.809      859.726
10/01/2013  06:22:00      -22.921       -4.333       -1.353       24.001       10.801       14.074      576.052      116.658      198.089        0.072        0.045       23.327       14.578        0.391      336.501        7.845      859.725
10/01/2013  06:23:00       11.337        7.539       13.732        9.260       11.219        9.918       85.752      125.868       98.357        0.034        0.015       13.615        4.525        0.110      336.833        8.401      859.700
10/01/2013  06:24:00        0.587        7.368       15.313        9.433       12.933        9.590       88.978      167.266       91.961        0.032        0.017        7.391        8.383        1.286      336.673        8.134      859.686
10/01/2013  06:25:00        3.612       20.314       -1.418       27.705       19.683        8.993      767.585      387.420       80.869        0.083        0.062       20.632        8.305        0.162      337.033        8.734      859.677
10/01/2013  06:26:00      -81.392        0.822      -14.571       20.135       10.422        9.377      405.437      108.627       87.925        0.372        0.030       81.397       10.240        0.016      336.574        7.967      859.680
10/01/2013  06:27:00     -130.784        8.390      -24.400       21.120       15.084       11.612      446.040      227.535      134.844        0.929        0.040      131.053       12.634        0.009      336.490        7.826      859.692
10/01/2013  06:28:00     -117.483      -12.445      -15.580       29.313       31.073       18.230      859.231      965.519      332.323        0.818        0.108      118.140       11.811        0.010      336.290        7.491      859.701
10/01/2013  06:29:00      -37.768        0.470        0.664       47.814       30.966       23.121     2286.198      958.870      534.571        0.260        0.189       37.771       23.621        0.391      336.215        7.366      859.712
10/01/2013  06:30:00      -70.818      -14.855       -9.073       35.585       24.099       15.340     1266.295      580.777      235.304        0.370        0.104       72.360       15.702        0.047      336.295        7.502      859.712
10/01/2013  06:31:00      -42.224      -26.368       -4.932       11.087       13.702        9.547      122.917      187.731       91.148        0.145        0.020       49.780        6.645        0.018      336.428        7.724      859.710
10/01/2013  06:32:00      -86.857      -22.841      -16.678       21.504       10.257       10.247      462.432      105.202      105.005        0.451        0.034       89.810        8.627        0.009      336.590        7.994      859.705
10/01/2013  06:33:00     -123.109      -12.369      -18.534       12.909       12.081       10.744      166.652      145.954      115.428        0.804        0.021      123.729        6.102        0.002      336.538        7.908      859.702
10/01/2013  06:34:00     -108.949      -29.165      -14.436       22.440       19.261       14.892      503.552      370.988      221.772        0.701        0.055      112.785       11.656        0.011      336.489        7.825      859.715
10/01/2013  06:35:00      -57.983      -10.826      -15.452       21.876       24.036       15.791      478.565      577.714      249.370        0.251        0.065       58.984       11.537        0.038      336.392        7.665      859.720
10/01/2013  06:36:00      -57.336       39.114      -15.324       16.560       23.796       11.339      274.248      566.236      128.574        0.301        0.048       69.406       10.216        0.022      336.749        8.260      859.699
10/01/2013  06:37:00       -9.511       73.603       -8.051       23.068       19.947        9.123      532.120      397.881       83.227        0.329        0.051       74.215        6.327        0.007      337.290        9.164      859.686
10/01/2013  06:38:00      -10.401      112.446      -17.741       20.994       24.953       11.940      440.768      622.663      142.555        0.714        0.060      112.926       11.086        0.010      337.551        9.602      859.696
10/01/2013  06:39:00      -29.448       77.289       -7.266       16.399       51.654       12.746      268.937     2668.123      162.449        0.500        0.155       82.709       14.620        0.031      337.465        9.456      859.722
10/01/2013  06:40:00      -48.957      -27.747       -5.783       16.018       14.021       11.458      256.569      196.577      131.295        0.189        0.029       56.274        9.677        0.030      336.629        8.058      859.762
10/01/2013  06:41:00      -64.012      -31.407      -13.371       22.489       13.871       13.460      505.769      192.400      181.180        0.307        0.044       71.302        9.490        0.018      336.622        8.047      859.787
10/01/2013  06:42:00      -55.020      -54.938       -9.801       23.947       16.104       11.756      573.450      259.339      138.205        0.356        0.049       77.752        6.811        0.008      336.582        7.982      859.803
10/01/2013  06:43:00      -60.621      -36.324      -11.069       20.158       15.879       11.383      406.330      252.139      129.564        0.295        0.039       70.671       10.687        0.023      336.674        8.134      859.808
10/01/2013  06:44:00      -33.352      -13.245      -12.754       13.556       14.104        8.884      183.771      198.936       78.919        0.096        0.023       35.885        4.719        0.017      336.748        8.259      859.795
10/01/2013  06:45:00      -36.064      -10.456       -2.167       11.515        5.724        4.669      132.586       32.759       21.802        0.080        0.009       37.549        4.501        0.014      336.977        8.640      859.781
10/01/2013  06:46:00      -72.713       -2.785       -9.961       10.784        5.818        7.465      116.288       33.847       55.728        0.280        0.010       72.767        4.417        0.004      336.814        8.369      859.769
10/01/2013  06:47:00      -60.743        5.495      -12.144       14.672       14.004        5.995      215.260      196.125       35.934        0.216        0.022       60.991        4.493        0.005      336.915        8.537      859.761
10/01/2013  06:48:00      -62.951      -17.323      -14.209       13.344       13.408        9.617      178.051      179.772       92.488        0.246        0.023       65.291        5.625        0.007      336.799        8.344      859.763
10/01/2013  06:49:00      -67.406      -29.024       -3.762       18.662       16.967       16.213      348.271      287.867      262.855        0.315        0.045       73.389       12.480        0.029      336.658        8.109      859.767
10/01/2013  06:50:00      -57.774      -28.050       -3.498       25.592       14.715       17.376      654.950      216.537      301.916        0.265        0.059       64.223       17.169        0.071      336.682        8.149      859.787
10/01/2013  06:51:00      -97.653      -55.471      -11.186       22.296       24.211       14.826      497.113      586.156      219.814        0.702        0.065      112.308        7.919        0.005      336.550        7.928      859.791
10/01/2013  06:52:00     -128.126      -58.069      -12.012       33.659       30.228       22.176     1132.899      913.750      491.791        1.124        0.127      140.671       13.427        0.009      336.392        7.662      859.781
10/01/2013  06:53:00     -121.235      -40.962       -9.289       25.949       25.855       16.968      673.348      668.481      287.899        0.905        0.081      127.968       15.238        0.014      336.409        7.690      859.778
10/01/2013  06:54:00      -84.578      -57.203       -3.440       33.713       23.360       17.271     1136.549      545.683      298.300        0.621        0.099      102.106       12.777        0.016      336.459        7.774      859.792
10/01/2013  06:55:00      -55.621      -48.236        3.005       48.229       29.611       21.842     2325.992      876.789      477.089        0.455        0.184       73.623       21.061        0.082      336.461        7.778      859.806
10/01/2013  06:56:00      -75.176      -37.007        5.361       38.517       25.539       19.175     1483.582      652.246      367.670        0.478        0.125       83.791       15.806        0.036      336.542        7.913      859.817
10/01/2013  06:57:00      -57.860      -23.027       -4.224       18.309       16.116       10.973      335.212      259.711      120.410        0.231        0.036       62.274        4.748        0.006      336.581        7.981      859.820
10/01/2013  06:58:00      -79.985      -16.492      -12.481       13.618       11.262        8.112      185.441      126.841       65.805        0.360        0.019       81.667        5.341        0.004      336.673        8.133      859.821
10/01/2013  06:59:00      -71.613      -43.651       -9.174       17.101       14.618       15.286      292.430      213.681      233.662        0.393        0.037       83.868        7.575        0.008      336.748        8.258      859.831
10/01/2013  07:00:00      -54.194      -35.512       -0.216       34.567       29.995       20.088     1194.869      899.687      403.526        0.335        0.125       64.793       18.669        0.083      336.682        8.148      859.848
10/01/2013  07:01:00      -39.812      -43.919        6.015       46.614       37.620       27.103     2172.825     1415.288      734.574        0.394        0.216       59.278       27.630        0.217      336.703        8.185      859.870
10/01/2013  07:02:00     -133.654     -108.525        2.217       72.919       55.911       45.452     5317.214     3125.993     2065.910        2.008        0.525      172.166       39.212        0.052      336.455        7.766      859.876
10/01/2013  07:03:00     -161.066     -124.707       -0.125       80.665       80.470       48.033     6506.806     6475.382     2307.177        2.839        0.764      203.701       45.411        0.050      336.322        7.543      859.873
10/01/2013  07:04:00     -142.386      -98.179        2.253       57.266       45.129       28.688     3279.437     2036.600      823.016        1.803        0.307      172.954       30.467        0.031      336.535        7.900      859.842
10/01/2013  07:05:00      -73.250      -48.524       11.236       53.525       36.162       28.792     2864.914     1307.670      828.974        0.642        0.250       87.864       34.184        0.151      336.511        7.862      859.812
10/01/2013  07:06:00     -107.665      -23.462       -8.746       46.276       30.325       21.376     2141.491      919.579      456.941        0.787        0.176      110.192       20.961        0.036      336.556        7.937      859.795
10/01/2013  07:07:00      -93.236      -55.391        1.419       38.775       31.780       20.624     1503.538     1009.958      425.347        0.735        0.147      108.448       23.572        0.047      336.589        7.994      859.797
10/01/2013  07:08:00      -75.734      -44.186       -4.561       19.754       16.577       14.395      390.204      274.801      207.228        0.429        0.044       87.681       11.118        0.016      336.611        8.031      859.791
10/01/2013  07:09:00       -7.705      -28.327       -4.527       22.220       15.695       10.166      493.732      246.320      103.349        0.086        0.042       29.356        5.889        0.040      336.722        8.214      859.794
10/01/2013  07:10:00       -4.347       -5.927        4.910       14.709        8.218       11.566      216.350       67.542      133.780        0.025        0.021        7.350        8.369        1.297      336.844        8.418      859.796
10/01/2013  07:11:00      -39.609        1.712       -4.491       15.075        8.893       11.281      227.251       79.089      127.271        0.101        0.022       39.646        7.774        0.038      336.818        8.376      859.808
10/01/2013  07:12:00      -69.249        5.811       -6.334       21.172       13.725        8.727      448.261      188.370       76.158        0.279        0.036       69.492        9.090        0.017      336.727        8.225      859.836
10/01/2013  07:13:00      -93.129      -17.933       -5.325       24.716       17.366       14.465      610.902      301.575      209.237        0.507        0.056       94.840       12.924        0.019      336.674        8.136      859.859
10/01/2013  07:14:00      -79.356      -35.343        9.121       58.251       33.665       21.836     3393.207     1133.365      476.790        0.632        0.250       86.870       27.990        0.104      336.646        8.089      859.877
10/01/2013  07:15:00      -62.883      -48.870       -0.950       59.036       55.930       24.296     3485.285     3128.208      590.319        0.677        0.360       79.641       31.820        0.160      336.642        8.082      859.877
10/01/2013  07:16:00     -129.280      -71.716       -3.816       42.233       39.166       25.215     1783.653     1534.014      635.791        1.291        0.198      147.840       26.428        0.032      336.650        8.095      859.868
10/01/2013  07:17:00      -90.026      -41.931      -11.142       38.629       28.927       19.865     1492.220      836.772      394.614        0.635        0.136       99.312       12.653        0.016      336.591        7.998      859.858
10/01/2013  07:18:00      -98.225      -17.406      -10.805       14.056       21.350       12.128      197.573      455.805      147.095        0.543        0.040       99.756        8.616        0.007      336.629        8.060      859.851
10/01/2013  07:19:00     -104.897      -10.026      -10.606       28.114       23.112       17.150      790.401      534.161      294.117        0.642        0.081      105.375       15.592        0.022      336.482        7.814      859.834
10/01/2013  07:20:00      -66.499      -27.574       -0.084       25.676       21.943       14.086      659.235      481.485      198.410        0.326        0.067       71.989       10.752        0.022      336.564        7.950      859.803
10/01/2013  07:21:00      -28.484      -23.907        7.258       25.106       20.369       15.534      630.330      414.910      241.319        0.136        0.064       37.187       18.351        0.244      336.756        8.272      859.805
10/01/2013  07:22:00      -30.679      -22.218       -5.712       19.732       12.349       12.118      389.359      152.486      146.857        0.108        0.034       37.879        7.848        0.043      336.837        8.407      859.795
10/01/2013  07:23:00      -60.568      -36.868       -0.548       31.369       25.687       12.491      984.002      659.835      156.026        0.341        0.090       70.907        6.631        0.009      336.819        8.378      859.796
10/01/2013  07:24:00     -146.027      -55.814       -3.689       30.785       26.503       13.846      947.713      702.412      191.708        1.315        0.092      156.330       10.544        0.005      336.754        8.269      859.820
10/01/2013  07:25:00     -128.938      -34.587        4.267       39.660       31.296       21.301     1572.912      979.438      453.724        1.042        0.150      133.497       21.294        0.025      336.674        8.134      859.842
10/01/2013  07:26:00     -108.329      -18.331        2.666       39.174       25.565       20.664     1534.639      653.559      426.994        0.735        0.131      109.869       20.852        0.036      336.694        8.169      859.862
10/01/2013  07:27:00      -57.396      -19.011        1.223       35.320       17.416       13.738     1247.533      303.310      188.733        0.270        0.087       60.463       11.800        0.038      336.732        8.232      859.851
10/01/2013  07:28:00      -35.816       -9.674        3.405       24.533       16.770        9.762      601.891      281.223       95.303        0.118        0.049       37.099       11.965        0.104      336.875        8.471      859.839
10/01/2013  07:29:00      -23.440       -8.296       -1.791        7.695        7.124        7.699       59.221       50.748       59.274        0.040        0.008       24.864        3.454        0.019      336.859        8.445      859.824
10/01/2013  07:30:00      -62.744      -29.951      -11.113       22.865       17.529       12.101      522.789      307.268      146.432        0.297        0.049       69.526       10.488        0.023      336.952        8.597      859.860
10/01/2013  07:31:00     -127.091      -93.806        1.888       47.480       36.658       26.329     2254.371     1343.839      693.221        1.462        0.215      157.961       12.624        0.006      336.867        8.455      859.911
10/01/2013  07:32:00     -170.640      -64.880       -2.523       43.719       42.779       30.194     1911.357     1830.004      911.673        1.899        0.233      182.558       27.476        0.023      336.818        8.374      859.966
10/01/2013  07:33:00     -136.748      -25.155        2.810       67.914       42.756       25.325     4612.253     1828.066      641.350        1.321        0.354      139.042       32.489        0.055      336.887        8.489      859.991
10/01/2013  07:34:00      -72.520        7.985        4.487       46.418       27.392       22.669     2154.652      750.345      513.889        0.438        0.171       72.958       24.806        0.116      336.944        8.586      859.966
10/01/2013  07:35:00      -35.629       23.667       -0.348       23.850       22.025       18.532      568.824      485.110      343.420        0.161        0.070       42.773       14.070        0.108      337.143        8.917      859.911
10/01/2013  07:36:00       -1.361        3.515        7.732       11.858       17.981        9.573      140.615      323.327       91.639        0.031        0.028        3.770        9.698        6.618      337.413        9.369      859.867
10/01/2013  07:37:00       26.528       10.123        0.310       11.315       11.745       14.512      128.026      137.955      210.593        0.064        0.024       28.394        4.088        0.021      337.255        9.107      859.850
10/01/2013  07:38:00       -8.709       -0.789        3.981       14.835        6.609        8.641      220.089       43.675       74.666        0.022        0.017        8.745        7.894        0.815      337.481        9.484      859.864
10/01/2013  07:39:00      -40.382      -11.749       -1.240       18.185       16.104       11.354      330.699      259.349      128.903        0.124        0.036       42.056        8.445        0.040      337.382        9.317      859.883
10/01/2013  07:40:00      -22.774       -6.202       -6.727       15.571       10.817       10.059      242.444      116.997      101.188        0.053        0.023       23.603        8.458        0.128      337.369        9.297      859.902
10/01/2013  07:41:00      -30.407      -24.019       -4.332       28.429       21.966       12.850      808.215      482.523      165.133        0.149        0.073       38.750       16.144        0.174      337.468        9.462      859.920
10/01/2013  07:42:00      -46.917      -41.004       -1.094       25.082       19.243       16.805      629.085      370.279      282.411        0.258        0.064       62.309        8.312        0.018      337.367        9.293      859.937
10/01/2013  07:43:00      -71.905      -38.986        7.079       37.786       32.963       29.457     1427.806     1086.534      867.708        0.506        0.169       81.794       19.252        0.055      337.419        9.380      859.940
10/01/2013  07:44:00      -65.013      -52.418        2.978       34.309       31.784       21.336     1177.108     1010.221      455.220        0.481        0.132       83.513       18.233        0.048      337.453        9.436      859.937
10/01/2013  07:45:00      -72.907      -62.792       -0.874       35.289       32.363       19.418     1245.290     1047.340      377.041        0.596        0.133       96.221       20.004        0.043      337.579        9.648      859.922
10/01/2013  07:46:00      -45.886     -102.708       -4.215       26.692       12.345       11.745      712.459      152.401      137.939        0.684        0.050      112.492       13.893        0.015      337.574        9.639      859.926
10/01/2013  07:47:00      -31.083      -86.069        0.644       25.371       25.172       14.857      643.697      633.628      220.716        0.494        0.075       91.510        9.477        0.011      337.693        9.840      859.927
10/01/2013  07:48:00      -31.558      -31.726        6.624       42.129       36.464       20.689     1774.842     1329.623      428.037        0.279        0.177       44.749       22.201        0.246      337.834       10.075      859.941
10/01/2013  07:49:00     -103.711      -96.784       -9.092       27.627       23.805       18.901      763.224      566.688      357.245        1.095        0.084      141.856       16.929        0.014      337.633        9.740      859.954
10/01/2013  07:50:00      -87.258      -92.631        0.476       38.184       27.196       25.400     1457.998      739.626      645.154        0.952        0.142      127.258       22.664        0.032      337.631        9.735      859.951
10/01/2013  07:51:00      -82.320      -56.046        2.686       31.919       33.873       21.871     1018.824     1147.381      478.354        0.628        0.132       99.588       18.016        0.033      337.665        9.793      859.935
10/01/2013  07:52:00      -65.229      -42.405       -1.895       21.912       32.995       17.274      480.145     1088.690      298.397        0.396        0.093       77.801       12.974        0.028      337.693        9.840      859.932
10/01/2013  07:53:00      -54.025      -44.726       -1.383       21.295       28.599       13.971      453.486      817.879      195.185        0.319        0.073       70.136        7.211        0.011      337.789       10.001      859.936
10/01/2013  07:54:00        1.789      -39.215        5.348       18.714       21.825       12.019      350.229      476.330      144.464        0.127        0.049       39.256       11.174        0.081      337.915       10.212      859.948
10/01/2013  07:55:00      -26.210      -21.772        3.449       16.865       10.756       15.072      284.425      115.696      227.150        0.090        0.031       34.073       11.009        0.104      338.007       10.366      859.964
10/01/2013  07:56:00      -24.280       -9.084       -0.442        9.716        8.750        6.882       94.396       76.559       47.361        0.045        0.011       25.924        4.999        0.037      337.927       10.233      859.976
10/01/2013  07:57:00      -17.340       -8.346        9.018       22.674       13.506        9.372      514.093      182.416       87.828        0.062        0.039       19.244        8.982        0.218      338.160       10.624      859.985
10/01/2013  07:58:00      -25.550      -47.730        0.539       15.109       17.904       10.978      228.287      320.555      120.509        0.180        0.033       54.138        5.082        0.009      337.994       10.345      859.996
10/01/2013  07:59:00      -47.747      -37.653       -2.255       19.232       17.141        9.618      369.881      293.823       92.505        0.223        0.038       60.808       10.491        0.030      338.030       10.406      860.015
10/01/2013  08:00:00      -29.266        0.157       -2.671       10.936       11.721        8.518      119.592      137.392       72.561        0.060        0.016       29.266        9.215        0.099      338.086       10.500      860.020
10/01/2013  08:01:00      -12.522        1.821        5.493       15.351        9.778       15.733      235.641       95.602      247.533        0.038        0.029       12.654       11.892        0.883      338.198       10.687      860.010
10/01/2013  08:02:00       -7.915       13.386       19.004       16.272       13.662       16.690      264.788      186.643      278.548        0.067        0.036       15.551       14.921        0.921      338.300       10.857      859.998
10/01/2013  08:03:00       41.256       37.211       21.020       14.232       11.354       17.498      202.538      128.921      306.165        0.208        0.032       55.559        9.959        0.032      338.175       10.648      859.977
10/01/2013  08:04:00       -1.524       30.936        4.432       20.855       17.019       14.895      434.925      289.630      221.872        0.096        0.047       30.974       13.862        0.200      338.211       10.709      859.963
10/01/2013  08:05:00      -14.321       25.967       -0.134       16.484       18.700       13.525      271.720      349.689      182.913        0.084        0.040       29.654        8.268        0.078      338.209       10.705      859.958
10/01/2013  08:06:00      -44.225        1.125       -7.446       15.116       16.931        8.219      228.504      286.649       67.550        0.130        0.029       44.239        7.818        0.031      338.075       10.480      859.967
10/01/2013  08:07:00      -34.126       -0.924       -5.248       21.299        8.267        8.131      453.648       68.349       66.111        0.089        0.029       34.139       10.644        0.097      338.121       10.557      859.980
10/01/2013  08:08:00      -22.484        2.574       -3.473       12.548        7.382       10.183      157.456       54.497      103.703        0.042        0.016       22.631        9.483        0.176      338.304       10.863      859.974
10/01/2013  08:09:00       34.086       35.154       11.247       28.904       23.163       15.929      835.462      536.519      253.728        0.207        0.081       48.965        5.991        0.015      338.372       10.978      859.944
10/01/2013  08:10:00       98.122       49.832        8.929       23.137       20.073       21.600      535.340      402.910      466.574        0.680        0.070      110.051       10.739        0.010      338.165       10.630      859.918
10/01/2013  08:11:00       84.182       78.689       28.985       42.612       25.393       38.447     1815.793      644.815     1478.141        0.903        0.197      115.233       32.435        0.079      338.242       10.759      859.912
10/01/2013  08:12:00       76.107       68.047        7.864       36.316       25.591       21.068     1318.867      654.889      443.880        0.645        0.121      102.092       12.407        0.015      338.198       10.686      859.938
10/01/2013  08:13:00       24.652       35.300       -4.220       18.839       14.516       13.791      354.925      210.716      190.192        0.131        0.038       43.055        9.382        0.047      338.278       10.821      859.981
10/01/2013  08:14:00      -39.184       11.112       -7.099       22.415       17.914        7.741      502.450      320.926       59.929        0.130        0.044       40.729        6.486        0.025      338.218       10.721      860.019
10/01/2013  08:15:00      -83.823      -15.749       -7.147       12.947       12.768        9.730      167.620      163.016       94.672        0.388        0.021       85.289        6.882        0.007      338.214       10.713      860.054
10/01/2013  08:16:00      -29.254      -34.089      -18.160       23.258       20.498       16.479      540.932      420.172      271.543        0.179        0.062       44.920        9.656        0.046      338.336       10.918      860.070
10/01/2013  08:17:00        3.809       10.899       25.308       18.074       34.776       26.703      326.656     1209.402      713.047        0.151        0.112       11.546       24.803        4.615      338.783       11.669      860.050
10/01/2013  08:18:00       89.129       76.762       22.035       36.552       28.537       28.194     1336.056      814.379      794.886        0.863        0.147      117.628       12.632        0.012      338.534       11.251      859.999
10/01/2013  08:19:00       83.862       60.836       11.935       36.075       28.967       28.215     1301.421      839.065      796.092        0.691        0.147      103.604       18.883        0.033      338.495       11.187      859.966
10/01/2013  08:20:00       24.859       41.422       52.383       32.265       28.221       24.019     1041.035      796.408      576.915        0.375        0.121       48.309       17.838        0.136      338.682       11.501      859.969
10/01/2013  08:21:00       85.331       57.182       25.512       35.087       18.899       32.004     1231.072      357.175     1024.234        0.691        0.131      102.719       21.812        0.045      338.476       11.152      859.992
10/01/2013  08:22:00       66.300       46.286       29.235       26.426       31.148       23.897      698.349      970.198      571.088        0.482        0.112       80.858       13.130        0.026      338.458       11.124      860.020
10/01/2013  08:23:00       29.604      -14.222       17.458       23.631       30.084       22.693      558.431      905.050      514.981        0.168        0.099       32.843       23.246        0.501      338.698       11.527      860.052
10/01/2013  08:24:00       -8.475      -44.786        5.838       16.190       19.557       14.650      262.100      382.463      214.629        0.149        0.043       45.581        7.133        0.024      338.533       11.249      860.092
10/01/2013  08:25:00      -10.523      -53.086      -10.154       13.932       13.239       13.647      194.110      175.282      186.241        0.179        0.028       54.119        6.395        0.014      338.409       11.041      860.124
10/01/2013  08:26:00      -18.906      -29.997      -13.616       18.193       16.410        6.481      330.996      269.304       42.009        0.104        0.032       35.458        8.298        0.055      338.428       11.073      860.149
10/01/2013  08:27:00      -32.357        6.182       -0.996       14.340        9.428       12.501      205.632       88.893      156.283        0.077        0.023       32.942       11.372        0.119      338.612       11.380      860.168
10/01/2013  08:28:00      -13.818        0.243       13.696       13.974       19.790       12.062      195.279      391.631      145.499        0.056        0.037       13.820        6.531        0.223      339.106       12.215      860.172
10/01/2013  08:29:00       16.330       16.099       43.994       34.125       38.176       28.122     1164.498     1457.427      790.855        0.294        0.171       22.931       28.269        1.520      339.189       12.352      860.153
10/01/2013  08:30:00       28.152      -35.854       21.365       41.982       66.366       36.685     1762.478     4404.425     1345.796        0.502        0.376       45.586       31.602        0.481      338.873       11.820      860.109
10/01/2013  08:31:00       89.693       85.036       52.820       44.799       29.858       30.764     2006.995      891.496      946.404        1.095        0.192      123.596       15.378        0.015      338.840       11.765      860.070
10/01/2013  08:32:00       87.305       79.917       59.225       65.973       55.568       29.990     4352.433     3087.827      899.413        1.293        0.417      118.359       14.796        0.016      338.787       11.676      860.058
10/01/2013  08:33:00        4.983       47.285       65.891       31.844       45.123       29.043     1014.055     2036.054      843.513        0.525        0.195       47.547       21.979        0.214      339.127       12.247      860.075
10/01/2013  08:34:00      103.840       77.642       61.753       71.005       33.890       36.580     5041.716     1148.499     1338.067        1.407        0.376      129.657       35.645        0.076      338.714       11.553      860.097
10/01/2013  08:35:00       69.211       42.377       41.137       54.558       30.964       32.207     2976.552      958.745     1037.276        0.662        0.249       81.154        4.766        0.003      338.806       11.708      860.116
10/01/2013  08:36:00       50.956       36.349       14.678       53.910       37.641       35.365     2906.250     1416.825     1250.707        0.485        0.279       62.592       11.065        0.031      338.983       12.008      860.127
10/01/2013  08:37:00      101.035       65.496       11.604       42.060       30.316       29.507     1769.006      919.087      870.657        0.909        0.178      120.407       24.308        0.041      338.900       11.865      860.125
10/01/2013  08:38:00       41.878       41.979       15.155       57.456       53.998       32.428     3301.196     2915.820     1051.590        0.551        0.363       59.296       18.700        0.099      339.006       12.043      860.128
10/01/2013  08:39:00       65.688       72.744       43.558       67.214       35.308       30.505     4517.726     1246.636      930.550        0.910        0.335       98.013       13.377        0.019      338.948       11.947      860.138
10/01/2013  08:40:00      112.628       73.277       25.132       53.654       34.725       32.266     2878.748     1205.853     1041.090        1.190        0.256      134.368       10.752        0.006      338.775       11.656      860.162
10/01/2013  08:41:00       44.878       28.219       45.130       44.495       38.504       36.414     1979.788     1482.578     1326.011        0.482        0.239       53.013       14.552        0.075      339.127       12.248      860.182
10/01/2013  08:42:00       67.445       52.903       34.822       29.289       36.696       29.335      857.840     1346.579      860.569        0.581        0.153       85.718       19.805        0.053      338.841       11.768      860.202
10/01/2013  08:43:00       96.919       38.746       12.859       53.947       26.926       30.778     2910.308      725.014      947.309        0.782        0.229      104.376       32.016        0.094      338.826       11.741      860.201
10/01/2013  08:44:00       91.817       65.070       12.236       52.073       36.047       40.188     2711.618     1299.411     1615.096        0.922        0.281      112.536       22.544        0.040      338.928       11.913      860.189
10/01/2013  08:45:00       83.474       84.426       28.304       43.943       42.528       34.254     1930.998     1808.648     1173.313        0.990        0.246      118.725       24.699        0.043      339.090       12.186      860.192
10/01/2013  08:46:00       25.656       37.729       60.289       38.063       34.978       26.757     1448.783     1223.461      715.941        0.455        0.169       45.626       12.600        0.076      339.304       12.546      860.200
10/01/2013  08:47:00       82.203       60.841       54.265       29.503       38.554       34.881      870.454     1486.426     1216.656        0.849        0.179      102.270       27.925        0.075      338.956       11.960      860.199
10/01/2013  08:48:00       23.062       41.915       36.946       39.311       44.569       38.767     1545.381     1986.438     1502.887        0.434        0.252       47.841       24.938        0.272      339.164       12.311      860.212
10/01/2013  08:49:00       51.108       54.256       61.910       53.264       46.797       28.436     2837.026     2189.956      808.583        0.761        0.292       74.537       25.739        0.119      339.065       12.143      860.222
10/01/2013  08:50:00       85.834       74.274       51.578       38.807       34.256       39.210     1505.991     1173.487     1537.427        0.988        0.211      113.508       25.966        0.052      338.789       11.678      860.238
10/01/2013  08:51:00       66.823       56.966        9.850       20.652       15.439       28.191      426.503      238.368      794.748        0.463        0.073       87.809        9.141        0.011      338.749       11.613      860.249
10/01/2013  08:52:00       39.291       40.081        0.190       29.593       14.862       24.618      875.759      220.888      606.052        0.243        0.085       56.127       13.161        0.055      338.946       11.944      860.270
10/01/2013  08:53:00       -4.817       35.611      -13.409       17.154       18.828       12.863      294.277      354.505      165.448        0.114        0.041       35.935        8.941        0.062      338.929       11.916      860.277
10/01/2013  08:54:00       80.525       46.702       18.887       56.809       31.241       37.727     3227.276      975.972     1423.345        0.732        0.281       93.087       27.031        0.084      339.055       12.126      860.260
10/01/2013  08:55:00       85.549       88.613       52.909       40.118       27.778       28.204     1609.478      771.613      795.464        1.057        0.159      123.171       21.416        0.030      339.025       12.076      860.261
10/01/2013  08:56:00       46.981      -63.767       21.919       35.484       60.948       33.801     1259.134     3714.678     1142.508        0.643        0.306       79.205       34.275        0.187      338.938       11.929      860.274
10/01/2013  08:57:00       24.023      -11.724       18.643       50.491       67.762       38.609     2549.389     4591.732     1490.647        0.485        0.432       26.731       27.219        1.037      339.257       12.466      860.285
10/01/2013  08:58:00       54.253      -86.769      -19.840       53.391       49.227       29.872     2850.549     2423.279      892.353        0.851        0.308      102.334       24.619        0.058      339.148       12.284      860.310
10/01/2013  08:59:00       72.636     -108.367      -14.054       35.714       25.684       19.125     1275.503      659.653      365.776        0.976        0.115      130.458        6.314        0.002      339.006       12.043      860.335
10/01/2013  09:00:00       38.007      -28.847       14.597       38.951       46.214       30.059     1517.183     2135.762      903.549        0.352        0.228       47.715       30.284        0.403      339.470       12.826      860.343
10/01/2013  09:01:00       14.740       36.582       58.458       43.332       43.712       24.309     1877.699     1910.709      590.950        0.468        0.219       39.440       25.751        0.426      339.687       13.190      860.346
10/01/2013  09:02:00       31.752      -23.385       24.723       46.775       31.027       33.104     2187.902      962.646     1095.904        0.321        0.212       39.434       23.668        0.360      339.653       13.135      860.338
10/01/2013  09:03:00       13.917       -8.859       29.916       31.609       48.239       29.817      999.133     2326.991      889.075        0.269        0.211       16.497       25.137        2.322      339.687       13.191      860.332
10/01/2013  09:04:00       39.635      -76.685       19.822       45.102       61.120       43.441     2034.205     3735.630     1887.124        0.775        0.383       86.322       26.770        0.096      339.262       12.474      860.327
10/01/2013  09:05:00       30.483      -48.170      -10.214       52.396       35.980       35.301     2745.321     1294.525     1246.189        0.432        0.264       57.005       26.797        0.221      339.334       12.597      860.330
10/01/2013  09:06:00        8.728      -22.579       40.583       31.237       46.411       36.063      975.759     2153.937     1300.539        0.333        0.222       24.208       28.181        1.355      339.800       13.383      860.341
10/01/2013  09:07:00       33.697      -87.885        3.330       42.619       42.939       36.723     1816.355     1843.797     1348.572        0.694        0.250       94.124       27.021        0.082      339.763       13.320      860.350
10/01/2013  09:08:00       -3.140       24.866       29.341       53.216       37.879       26.750     2831.911     1434.794      715.580        0.323        0.249       25.063       21.181        0.714      339.765       13.324      860.361
10/01/2013  09:09:00       45.043       23.234       32.617       34.127       27.090       31.214     1164.685      733.853      974.286        0.325        0.144       50.683       20.291        0.160      339.639       13.109      860.369
10/01/2013  09:10:00       60.052       65.525       29.888       52.385       39.142       34.675     2744.234     1532.091     1202.359        0.713        0.274       88.881       18.913        0.045      339.412       12.728      860.355
10/01/2013  09:11:00       64.266       59.719       42.762       25.107       20.499       20.036      630.347      420.226      401.426        0.549        0.073       87.730       10.985        0.016      339.442       12.777      860.341
10/01/2013  09:12:00       21.977       54.867       38.217       35.908       42.176       33.066     1289.375     1778.851     1093.359        0.456        0.208       59.105        6.471        0.012      339.686       13.190      860.339
10/01/2013  09:13:00       18.606      -85.993       -1.336       28.529       43.931       29.563      813.898     1929.933      873.972        0.568        0.181       87.983       25.661        0.085      339.564       12.984      860.347
10/01/2013  09:14:00       47.103      -42.331        7.446       33.272       44.592       41.400     1107.058     1988.445     1713.996        0.444        0.240       63.330       32.020        0.256      339.653       13.134      860.368
10/01/2013  09:15:00       -2.526      -13.416       33.934       21.221       42.152       29.240      450.335     1776.807      854.996        0.221        0.154       13.652       30.303        4.927      340.175       14.016      860.400
10/01/2013  09:16:00       -8.198        6.207       34.861       16.794       32.725       22.855      282.040     1070.953      522.357        0.160        0.094       10.283       18.419        3.209      340.293       14.214      860.429
10/01/2013  09:17:00       20.744       34.965        5.209       50.522       39.305       20.123     2552.462     1544.881      404.920        0.309        0.225       40.655       18.281        0.202      340.114       13.912      860.435
10/01/2013  09:18:00       71.607       69.845       18.086       33.214       39.895       32.503     1103.180     1591.575     1056.444        0.704        0.188      100.030       19.111        0.037      340.012       13.739      860.434
10/01/2013  09:19:00       61.267       77.896        1.735       38.799       40.742       34.574     1505.342     1659.905     1195.350        0.709        0.218       99.103       21.568        0.047      340.032       13.774      860.412
10/01/2013  09:20:00       64.514       49.252       29.071       41.337       32.235       31.403     1708.782     1039.069      986.127        0.558        0.187       81.165       16.510        0.041      340.133       13.944      860.398
10/01/2013  09:21:00       94.127       96.639       58.237       37.793       39.629       44.148     1428.335     1570.467     1949.037        1.327        0.247      134.904       25.157        0.035      339.804       13.390      860.400
10/01/2013  09:22:00       86.937       82.905       17.744       45.619       32.347       35.241     2081.086     1046.329     1241.898        0.956        0.218      120.131       25.300        0.044      339.912       13.571      860.421
10/01/2013  09:23:00      138.215       95.392       20.849       30.709       35.247       28.136      943.069     1242.372      791.616        1.581        0.149      167.938       21.648        0.017      339.760       13.314      860.434
10/01/2013  09:24:00      116.315       75.168       21.526       46.142       33.900       31.174     2129.083     1149.219      971.798        1.195        0.213      138.489       13.710        0.010      339.902       13.554      860.437
10/01/2013  09:25:00      104.382       96.099       46.765       47.278       29.886       29.486     2235.182      893.159      869.436        1.316        0.200      141.883       17.370        0.015      339.812       13.401      860.456
10/01/2013  09:26:00       35.300      -87.576        7.386       40.966       60.815       34.332     1678.192     3698.412     1178.677        0.776        0.328       94.422       29.218        0.096      339.797       13.377      860.468
10/01/2013  09:27:00       43.322      -66.249        1.814       47.991       55.213       37.388     2303.106     3048.460     1397.895        0.651        0.337       79.156       33.537        0.180      340.271       14.178      860.494
10/01/2013  09:28:00       21.877      -92.254      -10.894       33.091       34.772       22.661     1095.045     1209.104      513.533        0.596        0.141       94.813       15.275        0.026      340.168       14.003      860.503
10/01/2013  09:29:00        1.550      -39.888       32.382       27.780       54.555       33.809      771.730     2976.245     1143.071        0.377        0.245       39.918       30.454        0.582      340.688       14.882      860.487
10/01/2013  09:30:00       49.847      -11.515       33.160       63.348       74.555       39.730     4012.993     5558.416     1578.506        0.743        0.557       51.160       42.392        0.687      340.357       14.321      860.473
10/01/2013  09:31:00       39.508       -9.097       44.461       44.950       52.849       36.726     2020.477     2792.986     1348.825        0.489        0.308       40.542       20.528        0.256      340.367       14.340      860.466
10/01/2013  09:32:00       39.117      -78.810        6.763       36.720       45.625       29.773     1348.368     2081.632      886.425        0.605        0.216       87.984        9.510        0.012      340.324       14.266      860.471
10/01/2013  09:33:00       49.488      -52.967       10.715       59.615       71.475       50.425     3553.981     5108.637     2542.708        0.829        0.560       72.488       47.982        0.438      340.422       14.432      860.446
10/01/2013  09:34:00       19.325       15.873       36.792       36.750       44.856       36.258     1350.586     2012.080     1314.669        0.333        0.234       25.008       21.965        0.771      340.673       14.855      860.450
10/01/2013  09:35:00       68.055       68.165       35.953       46.129       41.314       25.182     2127.858     1706.820      634.115        0.752        0.223       96.322       20.432        0.045      340.237       14.120      860.455
10/01/2013  09:36:00       72.332       66.772       47.326       43.138       32.686       31.416     1860.904     1068.351      986.970        0.792        0.196       98.440       15.216        0.024      340.162       13.993      860.452
10/01/2013  09:37:00       36.872      -11.083       13.966       45.451       53.573       29.605     2065.779     2870.039      876.475        0.374        0.291       38.501       32.791        0.725      340.124       13.929      860.461
10/01/2013  09:38:00        9.882      -17.799       17.467       38.251       47.781       39.584     1463.106     2283.053     1566.924        0.302        0.266       20.359       33.208        2.661      340.416       14.421      860.450
10/01/2013  09:39:00       15.700      -20.218       46.967       38.936       85.414       45.748     1515.992     7295.491     2092.866        0.688        0.545       25.598       41.887        2.678      340.789       15.051      860.443
10/01/2013  09:40:00      110.042     -160.887       -7.399       51.275       46.875       33.309     2629.150     2197.273     1109.469        2.199        0.297      194.920       28.608        0.022      340.359       14.323      860.439
10/01/2013  09:41:00       93.714     -112.137       12.079       47.264       68.250       44.503     2233.847     4658.102     1980.525        1.519        0.444      146.140       41.022        0.079      340.634       14.790      860.437
10/01/2013  09:42:00       84.564       35.846       57.774       49.831       90.723       36.368     2483.121     8230.718     1322.652        1.190        0.602       91.848       39.078        0.181      340.752       14.990      860.439
10/01/2013  09:43:00      104.466       87.762       41.708       68.446       45.990       33.576     4684.841     2115.071     1127.334        1.414        0.396      136.438       28.213        0.043      340.702       14.905      860.448
10/01/2013  09:44:00        0.980        6.533       37.477       35.697       57.506       30.344     1274.262     3306.900      920.764        0.347        0.275        6.606       31.783       23.149      341.040       15.477      860.466
10/01/2013  09:45:00       96.872      -94.888       -2.761       53.359       73.364       41.993     2847.155     5382.319     1763.416        1.419        0.500      135.602       41.924        0.096      340.891       15.224      860.476
10/01/2013  09:46:00       81.403      -94.759        3.003       40.348       38.248       38.205     1627.966     1462.904     1459.587        1.008        0.228      124.923       24.545        0.039      340.537       14.626      860.495
10/01/2013  09:47:00       32.631       11.801       47.703       43.545       81.708       57.154     1896.175     6676.246     3266.558        0.766        0.592       34.699       61.190        3.110      341.038       15.474      860.498
10/01/2013  09:48:00       53.888       75.414       83.529       45.656       43.403       42.203     2084.454     1883.796     1781.052        1.066        0.287       92.689       14.868        0.026      340.795       15.063      860.498
10/01/2013  09:49:00       83.698       68.852       10.971       38.947       28.096       27.374     1516.878      789.379      749.363        0.746        0.153      108.379        9.723        0.008      340.768       15.017      860.498
10/01/2013  09:50:00       52.414      -19.067        7.505       45.917       85.019       34.436     2108.390     7228.178     1185.860        0.684        0.526       55.774       34.416        0.381      341.046       15.487      860.490
10/01/2013  09:51:00       70.090      -46.445        5.646       57.324       73.424       30.842     3286.012     5391.091      951.237        0.836        0.481       84.082       22.800        0.074      340.846       15.150      860.484
10/01/2013  09:52:00       53.946      -57.070       -5.857       35.949       39.556       37.211     1292.341     1564.672     1384.656        0.522        0.212       78.532       22.187        0.080      340.861       15.175      860.479
10/01/2013  09:53:00        9.277      -40.762        7.513       35.367       37.647       27.880     1250.834     1417.315      777.313        0.262        0.172       41.804       26.470        0.401      340.748       14.984      860.472
10/01/2013  09:54:00       24.405      -20.139       24.401       30.643       50.820       38.312      938.968     2582.687     1467.789        0.329        0.249       31.641       23.991        0.575      340.957       15.336      860.467
10/01/2013  09:55:00       27.939      -11.326       40.977       29.292       28.544       32.704      857.994      814.760     1069.527        0.266        0.137       30.147       11.323        0.141      341.097       15.573      860.470
10/01/2013  09:56:00       23.488        4.652       24.656       26.893       55.085       29.905      723.209     3034.384      894.312        0.292        0.233       23.944       12.965        0.293      341.205       15.756      860.459
10/01/2013  09:57:00        6.583       -0.251       36.771       35.158       49.046       29.565     1236.053     2405.499      874.100        0.295        0.226        6.588       28.549       18.781      341.684       16.567      860.446
10/01/2013  09:58:00       32.627      -64.597       11.571       33.928       55.747       31.214     1151.124     3107.723      974.323        0.530        0.262       72.369       29.914        0.171      341.435       16.147      860.437
10/01/2013  09:59:00       30.420      -66.304       -5.709       29.761       54.446       28.414      885.710     2964.321      807.366        0.500        0.233       72.949       23.724        0.106      341.499       16.255      860.440
10/01/2013  10:00:00       17.283      -25.322       15.014       41.873       47.845       23.812     1753.352     2289.121      567.028        0.289        0.230       30.658       24.941        0.662      341.559       16.356      860.427
10/01/2013  10:01:00        0.335      -58.954        8.257       34.492       31.558       29.904     1189.675      995.889      894.264        0.331        0.154       58.955       23.062        0.153      341.287       15.895      860.432
10/01/2013  10:02:00       23.177        3.380       64.241       40.571       52.874       26.732     1646.030     2795.702      714.575        0.491        0.258       23.422       19.767        0.712      342.012       17.126      860.419
10/01/2013  10:03:00       68.352      -62.975       15.983       66.494       80.745       61.964     4421.404     6519.777     3839.553        1.183        0.739       92.941       61.891        0.443      341.505       16.264      860.423
10/01/2013  10:04:00       87.485      -70.689       20.472       76.042      113.247       53.814     5782.371    12824.858     2895.959        1.728        1.075      112.475       66.089        0.345      341.535       16.314      860.409
10/01/2013  10:05:00       36.166      -43.920       -1.762       38.319       52.483       44.324     1468.320     2754.484     1964.631        0.471        0.309       56.894       42.238        0.551      341.159       15.679      860.434
10/01/2013  10:06:00       13.250      -43.803        1.031       26.347       35.840       25.744      694.181     1284.529      662.768        0.237        0.132       45.763       11.684        0.065      341.375       16.044      860.419
10/01/2013  10:07:00       18.792      -16.543       35.568       36.543       53.097       36.091     1335.394     2819.275     1302.568        0.367        0.273       25.036       25.989        1.078      341.940       17.003      860.409
10/01/2013  10:08:00       24.446       11.114       51.794       64.641       34.794       28.934     4178.430     1210.603      837.167        0.481        0.311       26.854       27.158        1.023      341.942       17.005      860.386
10/01/2013  10:09:00      -59.328      -64.413       13.340       48.582       45.496       26.613     2360.251     2069.877      708.258        0.649        0.257       87.572       25.530        0.085      341.575       16.383      860.375
10/01/2013  10:10:00      -32.343        9.073        7.794       29.061       30.176       29.034      844.551      910.621      842.993        0.189        0.130       33.591       26.010        0.600      341.980       17.071      860.362
10/01/2013  10:11:00       -8.312       16.678       35.298       33.084       32.575       44.758     1094.536     1061.106     2003.257        0.288        0.208       18.634       23.592        1.603      342.006       17.115      860.357
10/01/2013  10:12:00        4.032      -21.549       34.624       42.779       68.277       30.578     1830.052     4661.783      935.039        0.455        0.371       21.923       34.219        2.436      342.012       17.123      860.340
10/01/2013  10:13:00      168.684     -203.936      -56.435       71.108       87.292       35.200     5056.308     7619.948     1239.007        4.357        0.696      264.658       23.758        0.008      341.686       16.566      860.323
10/01/2013  10:14:00       67.252      -44.158        2.994       65.966       86.292       55.403     4351.505     7446.264     3069.442        1.067        0.743       80.453       60.486        0.565      341.736       16.656      860.319
10/01/2013  10:15:00       15.258      -43.458        8.840       32.235       57.668       35.086     1039.116     3325.542     1230.993        0.390        0.280       46.059       38.012        0.681      341.911       16.954      860.321
10/01/2013  10:16:00       31.727      -11.444       30.992       49.675       57.111       33.393     2467.622     3261.668     1115.094        0.447        0.342       33.728       36.591        1.177      342.257       17.541      860.327
10/01/2013  10:17:00      -15.994      -31.176       30.255       55.576       59.911       34.915     3088.745     3589.282     1219.082        0.502        0.395       35.039       23.361        0.444      342.245       17.520      860.321
10/01/2013  10:18:00       59.787      -65.219        5.945       62.243       71.740       40.756     3874.185     5146.665     1661.027        0.927        0.534       88.476       36.192        0.167      342.175       17.400      860.330
10/01/2013  10:19:00       18.481        1.204       35.349       41.638       54.538       34.958     1733.762     2974.352     1222.084        0.376        0.297       18.520       36.912        3.972      342.316       17.640      860.337
10/01/2013  10:20:00       -5.192       18.031       65.922       25.867       41.225       24.106      669.124     1699.516      581.107        0.382        0.147       18.764        8.647        0.212      342.765       18.405      860.335
10/01/2013  10:21:00       33.156       21.940       39.512       39.111       54.697       40.718     1529.693     2991.709     1657.939        0.466        0.309       39.758       39.077        0.966      342.358       17.712      860.337
10/01/2013  10:22:00      196.562      144.943       48.813       69.049       49.470       54.199     4767.759     2447.312     2937.570        3.609        0.508      244.223       44.844        0.034      341.909       16.946      860.329
10/01/2013  10:23:00      234.144      143.020        6.052       57.507       51.669       45.158     3307.014     2669.682     2039.266        4.166        0.401      274.369       17.088        0.004      341.897       16.924      860.314
10/01/2013  10:24:00      158.996      113.597       33.824       54.190       48.529       39.552     2936.552     2355.019     1564.337        2.309        0.343      195.407       16.074        0.007      341.966       17.045      860.326
10/01/2013  10:25:00      147.474       69.568        2.685       89.864       52.624       41.117     8075.566     2769.267     1690.575        1.956        0.627      163.059       39.408        0.058      341.800       16.762      860.330
10/01/2013  10:26:00      107.618       91.930       13.826      129.056       57.665       46.842    16655.553     3325.295     2194.176        2.120        1.109      141.537       41.207        0.085      341.995       17.093      860.309
10/01/2013  10:27:00      122.828      102.529       28.272       60.921       40.704       46.842     3711.329     1656.830     2194.204        1.698        0.378      159.997       20.272        0.016      341.854       16.853      860.312
10/01/2013  10:28:00       59.578        4.085       49.507       64.681       57.394       46.518     4183.609     3294.127     2163.933        0.783        0.482       59.718       30.233        0.256      342.303       17.618      860.284
10/01/2013  10:29:00       29.752       24.258       62.288       59.004       98.823       42.781     3481.530     9765.893     1830.254        1.021        0.754       38.387       49.957        1.694      342.414       17.807      860.270
10/01/2013  10:30:00      131.642      104.598       90.775       94.919       58.972       48.201     9009.583     3477.744     2323.291        2.566        0.741      168.137       39.141        0.054      342.139       17.336      860.271
10/01/2013  10:31:00      158.372      119.263       67.982      105.475       48.000       63.273    11125.016     2303.998     4003.421        3.068        0.872      198.256       60.064        0.092      342.110       17.287      860.275
10/01/2013  10:32:00      243.586      108.579       16.417      131.030       86.337       63.462    17168.776     7454.066     4027.465        5.002        1.433      266.690       50.407        0.036      342.259       17.540      860.283
10/01/2013  10:33:00      171.774      131.372       21.944       80.998       68.214       62.518     6560.754     4653.185     3908.461        3.118        0.756      216.252       38.005        0.031      342.039       17.167      860.294
10/01/2013  10:34:00      124.414       81.158       58.042       82.084       59.376       69.371     6737.765     3525.558     4812.329        2.025        0.754      148.544       37.252        0.063      342.477       17.913      860.270
10/01/2013  10:35:00      141.251      137.162       19.154       87.188       86.167       66.109     7601.795     7424.715     4370.429        2.926        0.970      196.889       52.584        0.071      342.385       17.756      860.278
10/01/2013  10:36:00       34.471      121.708       10.921       62.205       83.863       47.832     3869.490     7033.046     2287.869        1.465        0.660      126.496       51.923        0.168      342.539       18.020      860.296
10/01/2013  10:37:00      178.687      111.827       20.257       56.529       53.755       50.882     3195.543     2889.595     2588.981        2.676        0.434      210.794       35.557        0.028      342.474       17.907      860.292
10/01/2013  10:38:00      158.877       99.178       41.176       78.940       68.412       56.446     6231.498     4680.200     3186.097        2.543        0.705      187.291       34.587        0.034      342.250       17.525      860.288
10/01/2013  10:39:00      114.948       93.307       22.592       59.361       61.586       51.270     3523.748     3792.853     2628.580        1.619        0.497      148.052       22.707        0.024      342.347       17.692      860.281
10/01/2013  10:40:00       57.760       91.748      108.340       66.651       45.299       40.008     4442.308     2051.961     1600.654        1.579        0.405      108.416       14.719        0.018      342.493       17.942      860.259
10/01/2013  10:41:00       73.127       89.899       63.617       59.308       54.911       51.648     3517.415     3015.237     2667.535        1.334        0.460      115.885       36.170        0.097      342.168       17.389      860.267
10/01/2013  10:42:00      142.845      105.524       49.301       97.106       65.014       61.387     9429.636     4226.825     3768.357        2.569        0.871      177.595       45.806        0.067      342.232       17.495      860.255
10/01/2013  10:43:00      237.456      145.032       39.490       76.350       74.595       58.023     5829.250     5564.408     3366.708        4.687        0.738      278.244       37.222        0.018      342.095       17.260      860.264
10/01/2013  10:44:00      135.045       81.720       23.143      100.293       54.171       60.828    10058.708     2934.540     3700.072        2.107        0.835      157.846       35.581        0.051      342.254       17.533      860.260
10/01/2013  10:45:00       75.085       60.060       73.794      100.838       82.007       62.897    10168.267     6725.220     3956.071        1.777        1.042       96.150       57.515        0.358      342.229       17.491      860.253
10/01/2013  10:46:00       56.471      105.836        1.407       71.409       69.291       42.740     5099.229     4801.200     1826.702        1.306        0.586      119.960       31.706        0.070      342.287       17.591      860.258
10/01/2013  10:47:00      154.950       92.947        0.783       65.075       37.906       32.187     4234.785     1436.839     1036.000        1.968        0.335      180.689       15.716        0.008      342.080       17.236      860.253
10/01/2013  10:48:00       97.961       68.214       10.185       31.378       36.516       39.998      984.605     1333.432     1599.861        0.913        0.196      119.371       12.416        0.011      342.175       17.401      860.247
10/01/2013  10:49:00       29.243       27.081       26.622       37.967       42.807       33.585     1441.482     1832.406     1127.957        0.335        0.220       39.856       24.419        0.375      342.475       17.910      860.242
10/01/2013  10:50:00       39.472        0.476       11.433       76.442       96.721       58.297     5843.414     9354.876     3398.521        1.014        0.930       39.475       37.943        0.924      342.551       18.039      860.240
10/01/2013  10:51:00       34.148       66.430       90.896       80.730       77.751       35.930     6517.351     6045.179     1290.953        1.384        0.693       74.693       32.684        0.191      342.629       18.173      860.252
10/01/2013  10:52:00       17.486      -14.721       35.466       32.459       70.503       48.527     1053.562     4970.623     2354.843        0.508        0.419       22.857       47.371        4.295      342.438       17.847      860.261
10/01/2013  10:53:00       57.681       47.675       91.699       72.023       97.779       65.880     5187.379     9560.726     4340.234        1.654        0.954       74.834       69.172        0.854      342.179       17.406      860.246
10/01/2013  10:54:00       10.698      -16.838       24.093       38.330       63.012       35.857     1469.187     3970.573     1285.723        0.385        0.336       19.949       28.971        2.109      342.638       18.189      860.238
10/01/2013  10:55:00       39.333       19.197       12.245       76.033       61.882       47.905     5780.971     3829.340     2294.889        0.698        0.595       43.767       32.109        0.538      342.866       18.575      860.218
10/01/2013  10:56:00       24.117       -3.967       61.496       48.481       78.816       43.123     2350.417     6211.958     1859.582        0.740        0.521       24.441       29.022        1.410      343.192       19.132      860.182
10/01/2013  10:57:00       84.264        6.871       49.929       75.404      106.737       59.998     5685.784    11392.703     3599.734        1.516        1.034       84.544       38.026        0.202      342.868       18.579      860.173
10/01/2013  10:58:00       79.169       87.688       61.981       92.348       71.511       69.743     8528.155     5113.773     4864.049        1.815        0.925      118.140       54.588        0.214      342.566       18.064      860.168
10/01/2013  10:59:00       97.995       26.260       74.507       71.845      136.050       70.653     5161.733    18509.522     4991.883        2.225        1.433      101.453       83.359        0.675      342.322       17.648      860.159
10/01/2013  11:00:00        8.979       13.206       49.913       39.634       64.649       40.368     1570.854     4179.446     1629.544        0.506        0.369       15.969       33.197        4.321      342.930       18.683      860.156
10/01/2013  11:01:00      154.216       70.962       82.419       95.694      107.480       55.892     9157.390    11551.987     3123.945        2.972        1.192      169.759       51.682        0.093      342.459       17.881      860.135
10/01/2013  11:02:00      133.129      127.737       71.136      102.682       66.551       76.154    10543.694     4429.067     5799.367        2.993        1.039      184.499       64.089        0.121      342.556       18.045      860.124
10/01/2013  11:03:00       44.127      -10.942       -1.423       91.653      107.925       32.962     8400.262    11647.727     1086.512        1.160        1.057       45.463       26.416        0.338      342.895       18.625      860.116
10/01/2013  11:04:00       55.789       25.591       17.212       72.792       99.708       41.829     5298.603     9941.623     1749.676        1.052        0.849       61.378       26.533        0.187      343.108       18.987      860.110
10/01/2013  11:05:00       92.769       77.861       55.389       78.910       84.143       58.903     6226.781     7080.035     3469.560        1.725        0.839      121.113       54.189        0.200      342.722       18.328      860.119
10/01/2013  11:06:00       96.719      105.016      115.665       85.053       76.266       56.601     7234.023     5816.547     3203.716        2.500        0.813      142.769       50.199        0.124      342.600       18.120      860.105
10/01/2013  11:07:00       98.033      105.447       83.965      108.648       63.547       65.349    11804.433     4038.192     4270.532        2.394        1.006      143.978       55.800        0.150      342.551       18.040      860.101
10/01/2013  11:08:00       36.710       -1.915       29.448       78.696       54.844       28.583     6193.057     3007.839      817.012        0.612        0.501       36.760       22.394        0.371      342.625       18.166      860.111
10/01/2013  11:09:00      116.878      -50.465       43.990       95.457       67.788       50.615     9111.962     4595.254     2561.854        1.720        0.813      127.307       49.349        0.150      342.533       18.009      860.092
10/01/2013  11:10:00       68.572     -154.172        9.902       63.757       86.716       57.174     4064.932     7519.727     3268.817        2.171        0.743      168.734       55.424        0.108      342.644       18.197      860.086
10/01/2013  11:11:00       24.756      -35.953       15.880       60.604       70.193       37.568     3672.792     4927.107     1411.347        0.608        0.501       43.652       30.134        0.477      342.941       18.703      860.093
10/01/2013  11:12:00      118.043     -143.699       -8.934       81.605       91.103       50.374     6659.354     8299.826     2537.566        2.608        0.875      185.967       38.830        0.044      342.655       18.214      860.085
10/01/2013  11:13:00       28.152      -35.607       25.958       49.946       90.595       49.084     2494.642     8207.398     2409.225        0.792        0.656       45.391       32.110        0.500      342.831       18.516      860.099
10/01/2013  11:14:00       49.811       80.355       60.650       45.446       56.092       46.893     2065.294     3146.358     2198.988        1.001        0.371       94.541       31.696        0.112      343.085       18.948      860.123
10/01/2013  11:15:00       86.192       74.653       17.030       46.208       32.984       45.135     2135.193     1087.937     2037.137        0.928        0.263      114.027       29.700        0.068      342.910       18.651      860.127
10/01/2013  11:16:00      101.612      149.753       -7.161       91.665      102.119       61.542     8402.463    10428.318     3787.387        2.771        1.131      180.972       52.601        0.084      342.697       18.285      860.112
10/01/2013  11:17:00      182.778      147.108       16.381       86.456       64.096       58.817     7474.645     4108.308     3459.439        3.518        0.752      234.624       34.658        0.022      342.479       17.913      860.112
10/01/2013  11:18:00      103.897       59.578       33.259       84.482       42.574       34.124     7137.234     1812.587     1164.442        1.278        0.506      119.767       10.874        0.008      342.337       17.675      860.118
10/01/2013  11:19:00       97.188       87.880       44.609       39.299       32.735       42.923     1544.373     1071.563     1842.365        1.181        0.223      131.029       14.758        0.013      342.508       17.967      860.086
10/01/2013  11:20:00       79.872       55.395       41.900       50.618       38.363       37.320     2562.152     1471.743     1392.769        0.831        0.271       97.202       30.201        0.097      342.855       18.556      860.058
10/01/2013  11:21:00      152.202      119.516       16.433       51.034       51.453       49.559     2604.485     2647.392     2456.061        2.271        0.385      193.519       27.302        0.020      342.599       18.120      860.054
10/01/2013  11:22:00       93.346       90.125       12.251       45.462       43.184       29.162     2066.825     1864.820      850.446        1.088        0.239      129.754       21.728        0.028      342.502       17.957      860.046
10/01/2013  11:23:00       54.956       51.225       19.450       47.738       35.845       33.872     2278.900     1284.884     1147.306        0.537        0.236       75.128       24.886        0.110      342.894       18.624      860.034
10/01/2013  11:24:00       98.782       20.797       28.546       96.946       55.625       47.767     9398.524     3094.160     2281.733        1.289        0.739      100.948       39.793        0.155      342.885       18.606      860.017
10/01/2013  11:25:00       55.721       72.285       49.592       77.370       43.178       50.537     5986.075     1864.344     2554.004        1.059        0.520       91.269       35.840        0.154      343.040       18.872      860.011
10/01/2013  11:26:00      107.296       58.984       19.829       44.343       53.344       59.379     1966.295     2845.578     3525.856        1.186        0.417      122.440       41.596        0.115      342.891       18.618      860.024
10/01/2013  11:27:00       27.416       41.647       16.020       58.601       44.201       43.190     3434.110     1953.766     1865.358        0.500        0.363       49.861       32.715        0.430      343.066       18.916      860.011
10/01/2013  11:28:00       -0.450      -31.426       28.732       41.164       41.911       32.040     1694.451     1756.502     1026.535        0.314        0.224       31.430       18.781        0.357      343.617       19.856      860.009
10/01/2013  11:29:00       29.731      -75.160       32.056       35.987       55.972       38.899     1295.093     3132.810     1513.097        0.675        0.297       80.827       26.176        0.105      343.152       19.064      860.013
10/01/2013  11:30:00       26.946       25.975       43.737       30.787       48.708       37.258      947.840     2372.503     1388.172        0.401        0.235       37.426       28.809        0.592      343.172       19.097      860.000
10/01/2013  11:31:00       14.114       13.609       27.750       30.541       30.706       23.272      932.742      942.830      541.572        0.179        0.121       19.606       22.730        1.344      343.325       19.358      860.001
10/01/2013  11:32:00       17.482      -33.098       -3.631       30.762       23.949       18.128      946.313      573.578      328.625        0.163        0.092       37.431        6.887        0.034      342.826       18.509      859.991
10/01/2013  11:33:00       57.944       89.679       64.294       61.026       42.845       33.244     3724.176     1835.676     1105.148        1.110        0.333      106.770       29.154        0.075      343.310       19.332      859.981
10/01/2013  11:34:00       30.606      -17.272       46.487       56.863      114.353       54.205     3233.405    13076.533     2938.224        1.132        0.962       35.144       65.636        3.488      342.856       18.559      859.979
10/01/2013  11:35:00       70.465       11.886        1.921       46.514       95.614       41.045     2163.562     9142.054     1684.714        0.905        0.650       71.460       26.597        0.139      342.836       18.526      859.972
10/01/2013  11:36:00       21.980       24.038       40.809       38.261       44.085       33.048     1463.926     1943.487     1092.145        0.361        0.225       32.572       28.848        0.784      343.452       19.573      859.982
10/01/2013  11:37:00      119.947      117.694       78.618       85.722       47.192       52.027     7348.341     2227.093     2706.850        2.335        0.614      168.046       45.807        0.074      343.342       19.385      859.979
10/01/2013  11:38:00      160.390       90.233       32.437       71.256       48.278       51.770     5077.412     2330.732     2680.109        2.250        0.504      184.030       32.190        0.031      343.065       18.911      859.978
10/01/2013  11:39:00       89.433       52.268       39.083       69.102       62.356       56.749     4775.126     3888.290     3220.454        1.207        0.594      103.587       49.592        0.229      342.966       18.744      859.973
10/01/2013  11:40:00      146.463       86.214       38.210       50.845       36.379       40.141     2585.253     1323.399     1611.292        1.793        0.276      169.954       22.458        0.017      342.841       18.531      859.956
10/01/2013  11:41:00       98.897       74.217       35.975       47.734       24.229       40.998     2278.513      587.022     1680.844        1.056        0.227      123.648       17.579        0.020      342.906       18.643      859.949
10/01/2013  11:42:00       88.671       75.886       51.325       35.239       29.580       41.895     1241.806      874.969     1755.164        1.006        0.194      116.711       21.405        0.034      343.001       18.805      859.937
10/01/2013  11:43:00       16.677       47.001       28.234       33.926       31.565       25.935     1150.946      996.363      672.608        0.305        0.141       49.872       19.744        0.157      343.101       18.977      859.926
10/01/2013  11:44:00       34.904       33.580       19.112       58.329       53.709       37.933     3402.251     2884.709     1438.878        0.522        0.386       48.434       25.216        0.271      343.469       19.603      859.909
10/01/2013  11:45:00       13.252       36.690       61.076       37.735       47.215       22.891     1423.938     2229.235      523.996        0.471        0.209       39.010       17.224        0.195      343.587       19.805      859.902
10/01/2013  11:46:00       98.974       86.141       25.641       31.703       24.324       32.013     1005.107      591.636     1024.835        1.025        0.131      131.210       19.132        0.021      342.706       18.303      859.896
10/01/2013  11:47:00       17.324       23.979        9.064       18.733       37.694       34.886      350.916     1420.854     1217.032        0.197        0.149       29.583       10.083        0.116      343.021       18.839      859.877
10/01/2013  11:48:00       60.432       59.062       17.734       44.716       32.788       34.374     1999.554     1075.026     1181.561        0.585        0.213       84.500       21.920        0.067      343.153       19.063      859.881
10/01/2013  11:49:00       42.016       38.029        9.581       23.602       26.111       26.344      557.056      681.802      693.988        0.262        0.097       56.670       18.190        0.103      343.083       18.944      859.861
10/01/2013  11:50:00        2.985      103.139       10.972       28.982       60.907       34.902      839.956     3709.715     1218.158        0.827        0.288      103.182       31.347        0.092      343.646       19.903      859.871
10/01/2013  11:51:00       74.673       76.120       26.331       67.627       68.431       46.175     4573.441     4682.849     2132.119        1.172        0.569      106.632       37.180        0.122      343.694       19.986      859.864
10/01/2013  11:52:00       57.586       87.487        5.487       61.199       48.191       38.527     3745.343     2322.414     1484.296        0.927        0.378      104.738       31.233        0.089      343.215       19.170      859.881
10/01/2013  11:53:00       10.431       83.660        1.254       61.692       45.866       40.014     3805.866     2103.664     1601.158        0.731        0.376       84.308       37.239        0.195      343.203       19.149      859.874
10/01/2013  11:54:00       -8.502       34.183       10.123       62.905       32.505       28.251     3956.983     1056.603      798.140        0.358        0.291       35.224       38.208        1.177      343.584       19.799      859.866
10/01/2013  11:55:00       33.633       36.713       46.325       46.403       55.773       44.033     2153.238     3110.623     1938.927        0.591        0.360       49.790       37.936        0.581      343.693       19.985      859.862
10/01/2013  11:56:00       79.861       55.431       43.447      119.907       88.658       39.578    14377.591     7860.280     1566.399        1.757        1.190       97.213       41.697        0.184      343.576       19.784      859.858
10/01/2013  11:57:00       30.002      -51.980       25.970       51.762       86.687       49.933     2679.354     7514.707     2493.268        0.848        0.634       60.017       46.851        0.609      343.697       19.991      859.847
10/01/2013  11:58:00       34.738      -55.550       22.273       54.843       86.188       46.191     3007.729     7428.395     2133.573        0.868        0.628       65.518       31.708        0.234      343.667       19.940      859.843
10/01/2013  11:59:00       60.118       92.128       94.068       64.378       57.777       46.460     4144.513     3338.161     2158.569        1.529        0.482      110.008       37.432        0.116      343.379       19.449      859.854
10/01/2013  12:00:00       45.727       32.163       47.520       65.404       65.642       45.808     4277.663     4308.905     2098.386        0.803        0.534       55.905       42.958        0.590      343.179       19.108      859.866
10/01/2013  12:01:00       29.267      -24.500       -5.444       43.680       39.573       22.830     1907.916     1565.988      521.227        0.274        0.200       38.168       15.400        0.163      343.020       18.837      859.852
10/01/2013  12:02:00       43.804        3.832       17.834       42.522       70.869       35.110     1808.121     5022.348     1232.695        0.516        0.403       43.971       38.000        0.747      343.331       19.368      859.843
10/01/2013  12:03:00       67.054      -24.115       33.937       81.824       79.192       45.660     6695.101     6271.412     2084.841        1.064        0.753       71.259       41.482        0.339      343.282       19.284      859.827
10/01/2013  12:04:00      -22.108      -20.002       15.687       21.141       27.727       25.241      446.961      768.791      637.118        0.149        0.093       29.813        2.965        0.010      343.675       19.954      859.844
10/01/2013  12:05:00       14.861      -46.140       13.514       65.675       73.939       38.418     4313.242     5466.995     1475.942        0.689        0.563       48.475       13.283        0.075      343.351       19.402      859.850
10/01/2013  12:06:00      110.908       72.707       17.304       43.555       43.096       36.575     1897.019     1857.269     1337.722        1.149        0.255      132.616       26.840        0.041      343.164       19.083      859.866
10/01/2013  12:07:00       84.437       88.611       32.456       22.746       24.511       32.338      517.373      600.772     1045.732        0.910        0.108      122.399       15.304        0.016      343.027       18.849      859.880
10/01/2013  12:08:00       25.447       33.020       -8.126       25.668       61.122       28.445      658.834     3735.887      809.101        0.350        0.260       41.688       20.414        0.240      343.197       19.139      859.874
10/01/2013  12:09:00        0.274      -34.524      -24.358       22.804       21.720       16.994      520.035      471.768      288.794        0.153        0.064       34.525       12.067        0.122      343.273       19.269      859.864
10/01/2013  12:10:00      -32.011        5.155      -23.507       16.506       14.806       12.786      272.455      219.215      163.482        0.113        0.033       32.424        7.186        0.049      343.257       19.243      859.853
10/01/2013  12:11:00        9.691        0.839        9.391       23.918       19.445       16.905      572.077      378.093      285.769        0.071        0.062        9.727       11.426        1.380      343.693       19.986      859.829
10/01/2013  12:12:00       34.661       -5.696       12.011       44.472       29.405       30.523     1977.783      864.625      931.639        0.258        0.189       35.125       31.838        0.822      343.659       19.927      859.824
10/01/2013  12:13:00       12.400     -102.843       10.874       48.444       53.706       33.303     2346.862     2884.288     1109.105        0.859        0.317      103.588       26.783        0.067      343.484       19.627      859.788
10/01/2013  12:14:00      -13.011      -28.891       25.045       18.014       22.419       19.863      324.514      502.592      394.559        0.143        0.061       31.686        7.548        0.057      343.911       20.356      859.776
10/01/2013  12:15:00       -9.149       22.011       27.302       30.214       18.498       19.716      912.883      342.186      388.716        0.148        0.082       23.837       14.122        0.351      344.061       20.613      859.771
10/01/2013  12:16:00        3.275        9.642       36.927       20.453       28.104       21.621      418.322      789.816      467.465        0.157        0.084       10.183       16.475        2.617      344.310       21.038      859.767
10/01/2013  12:17:00       30.785      -58.983       -0.222       41.278       38.556       32.875     1703.894     1486.587     1080.758        0.435        0.214       66.534       26.339        0.157      343.253       19.234      859.749
10/01/2013  12:18:00       73.402      -89.682       -0.143       41.259       44.119       32.486     1702.346     1946.506     1055.328        0.907        0.235      115.891       15.203        0.017      343.199       19.141      859.735
10/01/2013  12:19:00       22.516       24.551       33.041       36.964       35.336       24.732     1366.313     1248.615      611.653        0.271        0.161       33.312       21.836        0.430      344.134       20.739      859.721
10/01/2013  12:20:00       18.374      -41.617       17.774       38.417       65.394       37.607     1475.844     4276.393     1414.277        0.477        0.358       45.493       34.939        0.590      343.963       20.444      859.702
10/01/2013  12:21:00       19.522      -55.580        9.122       25.799       39.313       27.559      665.576     1545.515      759.525        0.326        0.149       58.909       23.547        0.160      343.963       20.444      859.701
10/01/2013  12:22:00       25.622       30.832       32.396       43.269       49.886       25.663     1872.214     2488.649      658.576        0.384        0.251       40.089       15.195        0.144      343.920       20.371      859.696
10/01/2013  12:23:00       42.824       59.815       74.246       71.179       71.937       33.949     5066.402     5174.890     1152.566        1.116        0.570       73.565       32.725        0.198      343.813       20.188      859.692
10/01/2013  12:24:00       27.312       82.230      127.189       64.704       94.247       61.086     4186.569     8882.509     3731.499        2.024        0.840       86.647       58.460        0.455      343.654       19.916      859.676
10/01/2013  12:25:00       91.714       63.655       50.034       86.505       57.589       42.126     7483.078     3316.547     1774.575        1.377        0.629      111.640       32.859        0.087      343.447       19.565      859.676
10/01/2013  12:26:00       89.806     -112.945        0.390       83.936       99.164       60.835     7045.189     9833.557     3700.889        2.070        1.029      144.297       58.240        0.163      343.660       19.926      859.655
10/01/2013  12:27:00       89.875      -69.168       38.184       70.996      106.703       69.564     5040.498    11385.454     4839.210        1.779        1.063      113.410       67.709        0.356      343.890       20.319      859.635
10/01/2013  12:28:00       42.825      -50.442       26.498       67.114      108.695       69.278     4504.245    11814.565     4799.419        1.310        1.056       66.169       60.114        0.825      343.844       20.241      859.638
10/01/2013  12:29:00       96.229     -155.993        6.205      120.455      173.864       92.527    14509.413    30228.697     8561.296        4.346        2.665      183.286      107.912        0.347      343.770       20.115      859.599
10/01/2013  12:30:00      190.286     -285.359      -24.906       71.837       77.412       45.134     5160.543     5992.609     2037.097        6.572        0.660      342.985       36.397        0.011      343.375       19.439      859.610
10/01/2013  12:31:00       74.473      -45.401        8.926       68.977      119.109       54.871     4757.866    14186.853     3010.863        1.482        1.098       87.221       48.350        0.307      343.671       19.946      859.642
10/01/2013  12:32:00        8.511       30.424       20.472       45.083       25.478       37.781     2032.498      649.125     1427.440        0.276        0.205       31.592       31.785        1.012      343.714       20.021      859.623
10/01/2013  12:33:00      110.531       88.587       35.090       47.596       41.609       48.813     2265.354     1731.328     2382.731        1.384        0.319      141.650       17.161        0.015      343.497       19.649      859.589
10/01/2013  12:34:00       71.641       53.291       54.486       59.719       47.738       40.887     3566.347     2278.897     1671.768        0.923        0.376       89.288       30.282        0.115      343.690       19.978      859.570
10/01/2013  12:35:00       29.268       66.950       92.850       72.143       58.955       51.715     5204.671     3475.725     2674.400        1.266        0.568       73.068       54.023        0.547      343.532       19.709      859.558
10/01/2013  12:36:00       66.997      -12.926       37.541       64.680       98.871       61.913     4183.462     9775.461     3833.222        1.192        0.890       68.233       69.685        1.043      343.443       19.558      859.548
10/01/2013  12:37:00       98.636      -88.283        0.181       80.358       78.818       39.748     6457.472     6212.263     1579.922        1.588        0.712      132.374       44.255        0.112      343.691       19.978      859.549
10/01/2013  12:38:00       90.666      -64.793       -4.308       72.995       65.003       56.224     5328.264     4225.340     3161.135        1.257        0.636      111.438       52.000        0.218      343.701       19.997      859.545
10/01/2013  12:39:00       88.832     -204.172      -14.275       58.787       65.710       35.655     3455.965     4317.831     1271.307        2.941        0.452      222.660       17.291        0.006      343.793       20.152      859.564
10/01/2013  12:40:00       63.764      -67.239        6.657       62.062       62.949       49.506     3851.646     3962.581     2450.817        0.945        0.513       92.666       41.138        0.197      343.760       20.100      859.568
10/01/2013  12:41:00       17.833      -70.484        8.111       51.063       75.523       43.507     2607.411     5703.771     1892.823        0.778        0.510       72.705       25.118        0.119      343.976       20.466      859.568
10/01/2013  12:42:00       45.091      -86.747       13.042       49.396       55.456       52.773     2439.943     3075.417     2784.941        0.901        0.415       97.766       40.682        0.173      344.048       20.590      859.572
10/01/2013  12:43:00       28.229     -102.663       -0.038       89.750       61.295       35.695     8055.047     3757.078     1274.160        1.221        0.654      106.473       30.145        0.080      343.912       20.359      859.586
10/01/2013  12:44:00     -120.188     -113.782       -8.266       60.065       59.362       34.329     3607.795     3523.855     1178.474        1.788        0.416      165.504       33.526        0.041      343.618       19.854      859.589
10/01/2013  12:45:00      -36.308      -26.078       20.322       71.627       45.645       28.669     5130.376     2083.428      821.928        0.522        0.402       44.702       36.564        0.669      344.049       20.592      859.592
10/01/2013  12:46:00      -56.944       -8.367        1.136       45.953       26.747       27.494     2111.652      715.400      755.930        0.345        0.179       57.556       26.960        0.219      343.743       20.070      859.593
10/01/2013  12:47:00       68.983       75.486        5.894       44.373       27.516       38.494     1968.996      757.110     1481.810        0.735        0.210      102.258       28.834        0.080      343.603       19.831      859.558
10/01/2013  12:48:00      113.907       27.140       37.864       61.053       58.186       42.479     3727.487     3385.557     1804.454        1.203        0.446      117.096       35.203        0.090      343.496       19.648      859.524
10/01/2013  12:49:00       60.289       63.562       36.495       38.671       22.679       32.755     1495.475      514.318     1072.899        0.604        0.154       87.607       13.061        0.022      343.736       20.058      859.506
10/01/2013  12:50:00       16.425       40.126       19.043       43.236       44.619       37.214     1869.383     1990.844     1384.908        0.374        0.262       43.357       13.075        0.091      343.842       20.239      859.504
10/01/2013  12:51:00       50.914      -12.924       30.054       50.897       61.500       45.759     2590.457     3782.276     2093.852        0.606        0.423       52.529       29.102        0.307      343.599       19.825      859.488
10/01/2013  12:52:00      128.034      -27.606       12.368      111.037       88.788       76.526    12329.264     7883.234     5856.236        2.168        1.303      130.976       80.439        0.377      343.553       19.745      859.432
10/01/2013  12:53:00       39.504       40.167       77.537       83.210       79.562       59.082     6923.888     6330.164     3490.708        1.296        0.837       56.338       39.317        0.487      343.850       20.253      859.377
10/01/2013  12:54:00       16.287      123.760      153.826       82.403       74.480       62.277     6790.254     5547.274     3878.369        2.773        0.811      124.827       53.844        0.186      343.794       20.154      859.346
10/01/2013  12:55:00      105.138       99.570       91.260      112.283       64.584       62.025    12607.397     4171.055     3847.075        2.496        1.031      144.804       50.347        0.121      343.842       20.237      859.326
10/01/2013  12:56:00       62.238       86.146      114.431       79.012       94.206       70.040     6242.958     8874.820     4905.607        2.220        1.001      106.277       75.153        0.500      343.755       20.086      859.320
10/01/2013  12:57:00      130.289       51.800       67.077      100.019       74.909       75.693    10003.866     5611.433     5729.453        2.275        1.067      140.208       71.067        0.257      343.749       20.078      859.341
10/01/2013  12:58:00      126.505       84.596       12.974       48.834       49.198       43.372     2384.712     2420.408     1881.132        1.501        0.334      152.184       29.081        0.037      343.839       20.233      859.349
10/01/2013  12:59:00       18.490      -22.104      -16.652       68.463       55.203       31.934     4687.134     3047.423     1019.797        0.493        0.438       28.818       34.740        1.453      343.728       20.044      859.341
10/01/2013  13:00:00      -16.535      -24.674      -21.991       29.767       24.570       20.353      886.060      603.678      414.246        0.163        0.095       29.703       16.614        0.313      343.791       20.153      859.329
10/01/2013  13:01:00       -9.385        6.560        2.603       24.889       33.994       27.502      619.442     1155.567      756.368        0.133        0.127       11.450       19.828        2.999      344.064       20.617      859.317
10/01/2013  13:02:00       38.158       37.350       30.626       32.522       32.400       23.246     1057.652     1049.748      540.362        0.322        0.132       53.395       11.941        0.050      344.038       20.574      859.303
10/01/2013  13:03:00       76.696       67.191       30.293       45.010       47.956       27.024     2025.895     2299.820      730.305        0.818        0.253      101.965       15.255        0.022      344.114       20.703      859.290
10/01/2013  13:04:00       37.190       13.432       18.828       41.455       17.125       22.993     1718.541      293.256      528.674        0.223        0.127       39.541        6.337        0.026      344.093       20.667      859.289
10/01/2013  13:05:00       -2.238       56.111       -7.998       22.384       34.039       17.870      501.046     1158.621      319.349        0.260        0.099       56.156       20.421        0.132      344.087       20.657      859.284
10/01/2013  13:06:00      -29.413       64.955      -16.848       23.658       26.946       13.818      559.695      726.101      190.938        0.342        0.074       71.304        5.769        0.007      344.097       20.674      859.276
10/01/2013  13:07:00      -74.396        8.104       -0.707       46.346       32.427       33.194     2147.957     1051.502     1101.809        0.495        0.215       74.837       26.906        0.129      344.338       21.086      859.283
10/01/2013  13:08:00      -16.850      -51.408        5.681       42.984       48.299       35.801     1847.636     2332.762     1281.679        0.421        0.273       54.099       27.638        0.261      344.300       21.021      859.284
10/01/2013  13:09:00        0.901     -117.638       10.454       23.683       72.422       27.332      560.905     5244.991      747.016        1.025        0.328      117.641       31.238        0.071      343.922       20.375      859.251
10/01/2013  13:10:00        5.747      -24.015       19.004       17.002       41.296       21.640      289.051     1705.376      468.307        0.172        0.123       24.693       27.868        1.274      344.265       20.963      859.202
10/01/2013  13:11:00      -56.799        1.312       -8.358       31.880       25.380       18.500     1016.329      644.132      342.234        0.265        0.100       56.814       20.195        0.126      344.021       20.543      859.162
10/01/2013  13:12:00      -88.408      -35.330       -0.966       53.061       39.822       24.474     2815.499     1585.757      598.960        0.703        0.250       95.206       16.659        0.031      344.092       20.665      859.183
10/01/2013  13:13:00      -87.738      -28.553        9.623       66.938       56.084       31.331     4480.723     3145.361      981.621        0.861        0.430       92.267       38.339        0.173      344.134       20.738      859.216
10/01/2013  13:14:00      -94.649      -95.960       -7.568       35.032       45.778       18.872     1227.252     2095.620      356.139        1.095        0.184      134.784       19.172        0.020      343.951       20.424      859.220
10/01/2013  13:15:00     -143.640      -93.631        4.265      128.162       83.540       48.417    16425.483     6978.992     2344.252        2.758        1.287      171.462       59.900        0.122      344.201       20.850      859.241
10/01/2013  13:16:00     -201.055       90.413      -16.013      113.866      173.600       63.928    12965.497    30137.111     4086.813        4.801        2.359      220.448       63.875        0.084      344.399       21.186      859.148
10/01/2013  13:17:00     -274.102     -107.233       -0.785      230.831       96.324       57.994    53282.918     9278.355     3363.310        7.626        3.296      294.331       77.563        0.069      344.479       21.323      859.051
10/01/2013  13:18:00     -443.358      -30.366      -20.451      231.803      180.833       78.000    53732.731    32700.676     6083.934       14.519        4.626      444.397       88.772        0.040      344.761       21.806      858.991
10/01/2013  13:19:00     -317.537      -37.084       -5.705      224.224      128.650       69.046    50276.615    16550.715     4767.292        8.690        3.580      319.695       83.699        0.069      344.870       21.992      859.039
10/01/2013  13:20:00     -379.693     -162.002      -20.769       82.565       78.785       45.458     6816.976     6207.059     2066.440        9.296        0.755      412.809       27.400        0.004      344.650       21.616      859.057
10/01/2013  13:21:00     -296.256     -181.139       -5.616      180.124      144.330       70.402    32444.491    20831.275     4956.487        8.941        2.912      347.245       76.822        0.049      344.766       21.814      859.071
10/01/2013  13:22:00     -246.490      -53.882       -8.650      154.311      145.586       59.194    23811.933    21195.212     3503.899        5.611        2.426      252.311       65.243        0.067      345.050       22.300      859.036
10/01/2013  13:23:00      -81.525      -62.204       22.911      111.015       99.028       62.508    12324.309     9806.449     3907.192        1.853        1.302      102.546       54.461        0.282      345.189       22.540      859.002
10/01/2013  13:24:00     -336.105      -56.559        3.896      168.164      129.876       76.429    28279.049    16867.689     5841.392        8.357        2.549      340.831       79.467        0.054      344.962       22.149      858.991
10/01/2013  13:25:00     -438.155     -127.125        3.577      176.689      138.649       63.786    31219.157    19223.530     4068.703       13.132        2.726      456.224       77.047        0.029      344.911       22.061      858.970
10/01/2013  13:26:00     -465.370        1.062      -19.099      234.195      203.305       85.614    54847.270    41332.966     7329.808       16.020        5.176      465.371      108.855        0.055      344.976       22.174      858.959
10/01/2013  13:27:00     -205.658      -85.299       -9.707      227.975      151.403       79.318    51972.641    22922.728     6291.280        6.541        4.059      222.646       94.709        0.181      345.060       22.319      858.959
10/01/2013  13:28:00     -318.012     -144.337      -19.963      210.453      137.239       67.998    44290.294    18834.563     4623.748        9.504        3.387      349.234       81.274        0.054      345.066       22.327      858.949
10/01/2013  13:29:00     -332.897       -0.631       -8.624      181.976      121.689       77.250    33115.349    14808.173     5967.603        8.238        2.695      332.898       83.495        0.063      345.177       22.516      858.948
10/01/2013  13:30:00     -346.962       30.754      -13.288      132.143      128.620       65.350    17461.725    16543.191     4270.598        7.988        1.914      348.322       57.987        0.028      345.051       22.302      858.934
10/01/2013  13:31:00     -305.736        2.419        0.973      104.219      122.349       59.415    10861.626    14969.330     3530.157        6.142        1.468      305.745       52.191        0.029      345.307       22.738      858.956
10/01/2013  13:32:00     -128.296     -109.407       30.181      141.684      164.860       91.093    20074.408    27178.865     8297.998        4.243        2.778      168.611       92.220        0.299      345.195       22.548      858.907
10/01/2013  13:33:00     -413.385     -143.687      -11.406      200.847      145.871       74.572    40339.449    21278.320     5560.963       12.941        3.359      437.645       70.274        0.026      345.170       22.505      858.879
10/01/2013  13:34:00     -523.983      -17.423      -36.132      175.461      143.836       82.364    30786.398    20688.668     6783.809       16.720        2.913      524.273       91.974        0.031      344.978       22.177      858.873
10/01/2013  13:35:00     -369.243      -66.103      -13.969      194.704      132.968       64.155    37909.772    17680.375     4115.832       10.029        2.985      375.113       76.316        0.041      344.968       22.162      858.877
10/01/2013  13:36:00     -342.934      -16.332      -11.406      252.553      115.465       64.241    63782.893    13332.070     4126.924        9.960        4.062      343.323      100.351        0.085      345.283       22.700      858.872
10/01/2013  13:37:00     -375.041      -74.818      -18.303      187.411      113.210       81.469    35122.822    12816.472     6637.198       10.057        2.729      382.431      101.420        0.070      345.096       22.380      858.884
10/01/2013  13:38:00     -141.505      -39.990       21.722      160.217      124.137       82.210    25669.570    15409.991     6758.472        3.496        2.392      147.047       91.460        0.387      345.353       22.822      858.876
10/01/2013  13:39:00     -390.360      -63.044      -11.840      145.801      165.744       73.458    21257.891    27470.980     5396.098       10.530        2.706      395.418       57.614        0.021      345.090       22.368      858.888
10/01/2013  13:40:00     -368.643     -169.247       -7.275      201.215      192.272       87.981    40487.610    36968.673     7740.699       12.488        4.260      405.638       83.899        0.043      345.136       22.446      858.895
10/01/2013  13:41:00     -357.812     -208.659       -8.998      161.214      128.309       77.681    25989.909    16463.172     6034.338       11.006        2.424      414.208       73.997        0.032      345.052       22.304      858.897
10/01/2013  13:42:00      -93.434      -30.181        5.051       85.982       75.032       51.038     7392.987     5629.779     2604.850        1.264        0.781       98.188       33.713        0.118      345.176       22.519      858.883
10/01/2013  13:43:00     -322.986     -103.328       -4.722      118.671      140.280       64.530    14082.729    19678.513     4164.157        7.646        1.896      339.111       62.943        0.034      345.187       22.535      858.860
10/01/2013  13:44:00     -306.411     -233.546      -19.302      150.747      127.172       69.586    22724.717    16172.680     4842.199        9.626        2.187      385.268       82.361        0.046      345.038       22.280      858.867
10/01/2013  13:45:00     -355.302     -114.910      -23.047      162.757      154.207       70.161    26489.692    23779.762     4922.548        9.757        2.760      373.421       69.304        0.034      345.106       22.397      858.877
10/01/2013  13:46:00     -274.033      -93.049        5.429      185.766      153.828       97.547    34508.839    23663.035     9515.414        7.572        3.384      289.399      108.429        0.140      345.199       22.557      858.849
10/01/2013  13:47:00     -376.915     -231.140       -5.338      168.819      131.800       91.364    28499.809    17371.158     8347.300       12.486        2.711      442.143       85.827        0.038      344.983       22.186      858.852
10/01/2013  13:48:00     -255.715     -260.574        6.116      214.263      189.237      104.176    45908.648    35810.522    10852.695       11.293        4.629      365.088      110.285        0.091      345.113       22.408      858.833
10/01/2013  13:49:00     -344.905     -241.566       -3.156      241.275      204.436      113.901    58213.647    41794.224    12973.326       14.513        5.649      421.086      122.294        0.084      344.985       22.188      858.795
10/01/2013  13:50:00     -277.361     -242.155       -5.359      198.120      184.326       96.494    39251.655    33975.941     9311.052       10.905        4.127      368.196      107.724        0.086      345.202       22.561      858.856
10/01/2013  13:51:00     -241.533     -227.689       35.141      231.930      166.687      112.533    53791.684    27784.486    12663.636       10.281        4.712      331.934      127.107        0.147      345.031       22.269      858.850
10/01/2013  13:52:00     -452.861     -332.600      -22.532      189.981      133.229      102.176    36092.910    17749.954    10439.878       19.023        3.214      561.877      109.950        0.038      344.698       21.697      858.843
10/01/2013  13:53:00     -360.695     -170.702       -7.983      226.428      217.063      110.349    51269.605    47116.234    12176.792       13.491        5.528      399.049      128.759        0.104      344.970       22.164      858.840
10/01/2013  13:54:00     -376.687      -60.905      -19.150      213.662      204.054       91.077    45651.272    41638.055     8294.939       12.076        4.779      381.579       94.520        0.061      345.041       22.285      858.818
10/01/2013  13:55:00     -428.843     -114.024      -25.160      183.299      161.235       73.773    33598.629    25996.854     5442.450       13.128        3.252      443.743       65.536        0.022      344.975       22.171      858.807
10/01/2013  13:56:00     -313.892     -270.086        2.537      212.732      163.625       97.008    45254.971    26773.168     9410.507       12.644        4.072      414.095      101.974        0.061      344.975       22.172      858.836
10/01/2013  13:57:00     -298.258     -207.415      -11.088      177.995      144.079       81.911    31682.352    20758.690     6709.427        9.561        2.958      363.288       93.369        0.066      344.921       22.081      858.833
10/01/2013  13:58:00     -365.215     -202.641      -15.026      138.862      135.068       73.583    19282.702    18243.442     5414.497       10.880        2.147      417.666       86.605        0.043      344.809       21.889      858.782
10/01/2013  13:59:00     -121.222     -175.836       13.969      131.549      177.035       65.657    17305.219    31341.410     4310.803        4.937        2.648      213.572       73.737        0.119      345.139       22.455      858.804
10/01/2013  14:00:00     -113.966     -249.175       -6.317      151.761      159.880       73.041    23031.384    25561.676     5334.975        6.451        2.696      274.001       59.072        0.046      345.028       22.263      858.811
10/01/2013  14:01:00     -163.410     -155.019      -16.101      109.687      105.193       55.998    12031.339    11065.630     3135.814        3.861        1.312      225.241       49.901        0.049      345.172       22.510      858.776
10/01/2013  14:02:00     -322.185     -190.292       -0.193      189.294      144.733       78.205    35832.214    20947.682     6115.962       10.144        3.145      374.185       73.244        0.038      345.310       22.746      858.772
10/01/2013  14:03:00     -298.265     -125.891        0.528      184.008      166.856       90.517    33859.006    27841.080     8193.394        8.734        3.495      323.744       89.835        0.077      345.134       22.445      858.784
10/01/2013  14:04:00     -351.674      -88.453      -12.961      206.175      135.091       71.656    42507.925    18249.628     5134.516        9.877        3.295      362.627       82.526        0.052      345.006       22.226      858.805
10/01/2013  14:05:00     -246.675      -42.275      -11.686       95.662       87.925       60.257     9151.154     7730.840     3630.942        4.164        1.026      250.271       50.742        0.041      345.111       22.405      858.793
10/01/2013  14:06:00     -210.095     -126.855        0.373      178.763      128.263       64.135    31956.100    16451.282     4113.251        5.637        2.626      245.422       86.966        0.126      345.164       22.495      858.754
10/01/2013  14:07:00     -202.559     -175.756       19.302      213.092      175.734       78.156    45408.060    30882.575     6108.357        7.733        4.120      268.179       94.283        0.124      345.234       22.615      858.764
10/01/2013  14:08:00     -341.430     -292.639      -19.076      211.252      138.979       80.615    44627.311    19315.235     6498.849       13.649        3.522      449.680       57.568        0.016      345.097       22.380      858.744
10/01/2013  14:09:00     -362.304      -97.858        2.554      208.727      185.608       96.057    43567.126    34450.404     9227.005       11.403        4.362      375.287      110.755        0.087      345.255       22.650      858.760
10/01/2013  14:10:00     -377.115      -60.051       -3.061      204.782      132.159       92.194    41935.658    17465.921     8499.694       10.685        3.395      381.866      107.344        0.079      345.244       22.633      858.794
10/01/2013  14:11:00     -437.712     -137.296      -23.184      172.853      115.924       68.383    29878.022    13438.453     4676.177       12.948        2.400      458.740       81.567        0.032      344.922       22.082      858.803
10/01/2013  14:12:00     -439.809     -176.349      -36.416      121.983       88.370       49.285    14879.857     7809.265     2429.054       12.548        1.256      473.847       50.284        0.011      344.916       22.071      858.772
10/01/2013  14:13:00     -421.283      -82.352      -19.345      186.383      151.246       81.030    34738.541    22875.336     6565.804       12.439        3.209      429.256       80.922        0.036      345.088       22.365      858.793
10/01/2013  14:14:00     -291.342     -103.541        4.568      169.581      155.730       68.582    28757.551    24251.808     4703.488        7.666        2.886      309.194       69.536        0.051      345.194       22.547      858.802
10/01/2013  14:15:00     -433.487     -235.715      -13.331      214.203      179.508       81.622    45882.900    32223.206     6662.108       16.419        4.238      493.430       82.345        0.028      345.103       22.391      858.772
10/01/2013  14:16:00     -221.734     -146.082       -0.279      117.675      114.403       56.455    13847.408    13088.125     3187.183        5.031        1.506      265.529       57.400        0.047      345.316       22.756      858.779
10/01/2013  14:17:00     -200.103     -137.347       20.300      170.484      116.447       66.102    29064.804    13559.997     4369.512        5.315        2.350      242.704       74.379        0.094      345.473       23.027      858.790
10/01/2013  14:18:00     -355.204     -190.266        8.671      193.838      132.485       79.231    37573.212    17552.351     6277.627       11.191        3.070      402.952       74.672        0.034      345.111       22.403      858.774
10/01/2013  14:19:00     -393.251     -243.574      -13.707      212.716      162.774       84.953    45248.139    26495.352     7217.060       14.655        3.948      462.574       82.694        0.032      345.189       22.538      858.744
10/01/2013  14:20:00     -303.052     -218.244       -3.295      182.853      146.396       73.978    33435.071    21431.916     5472.698        9.990        3.017      373.458       76.320        0.042      345.355       22.823      858.773
10/01/2013  14:21:00     -319.002     -190.401       -1.110      159.708      126.390       79.371    25506.609    15974.421     6299.827        9.289        2.389      371.503       79.741        0.046      345.040       22.284      858.777
10/01/2013  14:22:00     -468.771     -278.080      -14.528      252.854      216.300       88.358    63935.172    46785.736     7807.105       20.788        5.926      545.045       93.187        0.029      344.977       22.176      858.735
10/01/2013  14:23:00     -435.523     -355.504       -3.010      231.048      167.131      108.897    53383.235    27932.862    11858.656       20.460        4.659      562.196      117.329        0.044      344.925       22.084      858.730
10/01/2013  14:24:00     -463.327     -276.032      -16.386      208.350      205.908       91.619    43409.768    42398.197     8393.984       19.265        4.710      539.319      109.044        0.041      344.956       22.140      858.750
10/01/2013  14:25:00     -325.353      -98.221        2.424      153.751      184.374       72.457    23639.522    33993.843     5249.965        8.918        3.144      339.856       72.857        0.046      344.987       22.194      858.742
10/01/2013  14:26:00     -244.415      -26.393       -2.269      175.492      112.165       71.438    30797.555    12580.987     5103.435        5.445        2.424      245.835       76.633        0.097      345.285       22.704      858.725
10/01/2013  14:27:00     -318.825     -191.299        1.372      175.429      140.313       79.072    30775.320    19687.814     6252.431        9.747        2.836      371.813       98.515        0.070      345.063       22.324      858.702
10/01/2013  14:28:00     -419.580      -25.289      -18.947      198.062      117.730       71.081    39228.732    13860.296     5052.485       11.758        2.907      420.341       82.212        0.038      345.287       22.706      858.675
10/01/2013  14:29:00     -310.191     -198.032      -16.052      160.382      128.509       73.953    25722.354    16514.657     5469.048        9.169        2.385      368.015       83.286        0.051      345.375       22.856      858.693
10/01/2013  14:30:00     -338.305     -181.652        0.922      219.366      162.801       80.106    48121.290    26504.176     6416.930       11.423        4.052      383.989       99.692        0.067      345.075       22.344      858.704
10/01/2013  14:31:00     -274.975     -163.506       -9.470      223.499      136.789       65.772    49951.802    18711.208     4325.926        8.770        3.649      319.915       82.891        0.067      345.025       22.259      858.694
10/01/2013  14:32:00     -392.256     -251.779       -8.211      192.453      159.096       93.187    37038.041    25311.404     8683.795       14.416        3.552      466.109       87.471        0.035      345.137       22.449      858.681
10/01/2013  14:33:00     -363.642     -113.533       -4.553      258.124      165.764       92.569    66628.157    27477.584     8568.954       12.389        5.134      380.953       96.610        0.064      345.274       22.684      858.680
10/01/2013  14:34:00     -289.586     -254.285        8.295      199.713      182.232      110.070    39885.358    33208.540    12115.486       11.688        4.260      385.384      119.574        0.096      345.086       22.362      858.697
10/01/2013  14:35:00     -282.410     -187.398      -10.386      119.826      118.705       65.667    14358.276    14090.776     4312.128        7.386        1.638      338.929       59.451        0.031      345.102       22.389      858.718
10/01/2013  14:36:00     -374.732     -248.850       -5.031      170.464      150.175       79.407    29057.903    22552.461     6305.496       13.013        2.896      449.834       69.420        0.024      345.020       22.248      858.712
10/01/2013  14:37:00     -385.784     -266.776        7.793      197.519      155.503       89.620    39013.764    24181.263     8031.727       14.563        3.561      469.040       89.663        0.037      344.961       22.149      858.718
10/01/2013  14:38:00     -397.068     -214.972        8.694      232.072      202.268       94.207    53857.341    40912.243     8874.985       15.378        5.182      451.526      108.172        0.057      344.988       22.195      858.717
10/01/2013  14:39:00     -429.282     -261.861      -16.276      225.474      203.244       94.843    50838.722    41308.105     8995.229       17.711        5.057      502.846      103.665        0.043      344.903       22.048      858.744
10/01/2013  14:40:00     -415.710     -325.422      -20.482      244.852      222.522      100.359    59952.689    49516.073    10072.026       19.931        5.977      527.934      114.543        0.047      344.836       21.935      858.719
10/01/2013  14:41:00     -380.270     -295.299       -2.228      242.747      183.784       95.266    58926.203    33776.678     9075.652       16.677        5.089      481.463      110.420        0.053      344.912       22.064      858.708
10/01/2013  14:42:00     -438.568     -254.315      -21.846      202.133      192.435       98.986    40857.833    37031.103     9798.312       17.257        4.384      506.969      108.572        0.046      345.079       22.351      858.687
10/01/2013  14:43:00     -464.914     -168.860      -13.100      210.586      186.096       96.712    44346.337    34631.874     9353.201       16.656        4.417      494.630       98.364        0.040      345.110       22.403      858.704
10/01/2013  14:44:00     -566.756      -94.224      -19.171      206.100      147.850       89.408    42477.341    21859.642     7993.799       20.138        3.617      574.535       98.989        0.030      345.053       22.305      858.714
10/01/2013  14:45:00     -340.273     -185.774       12.276      241.520      156.081      116.268    58331.817    24361.289    13518.277       12.331        4.811      387.682      119.297        0.095      345.126       22.431      858.725
10/01/2013  14:46:00     -413.962     -273.574       -9.283      199.570      173.574       74.878    39828.258    30127.930     5606.749       16.091        3.778      496.193       83.195        0.028      345.063       22.322      858.735
10/01/2013  14:47:00     -454.705     -331.290       13.156      230.099      145.805      101.140    52945.605    21259.096    10229.399       20.054        4.222      562.592      109.063        0.038      344.866       21.985      858.701
10/01/2013  14:48:00     -242.101     -217.962        2.056      168.854      148.973       69.004    28511.629    22193.018     4761.537        8.078        2.773      325.761       76.190        0.055      345.044       22.291      858.711
10/01/2013  14:49:00     -321.024     -214.887       10.890      274.633      137.888       94.398    75423.389    19013.140     8910.942       12.633        5.167      386.307      113.358        0.086      345.162       22.492      858.706
10/01/2013  14:50:00     -374.049     -152.371        9.022      248.076      221.196      102.351    61541.551    48927.504    10475.803       14.205        6.047      403.893      106.139        0.069      345.108       22.400      858.661
10/01/2013  14:51:00     -454.307     -291.251       -0.032      258.606      220.429      107.065    66877.268    48588.929    11462.934       20.905        6.346      539.650      117.443        0.047      345.113       22.408      858.673
10/01/2013  14:52:00     -165.541     -300.352        4.665      179.977      171.959       87.999    32391.813    29569.726     7743.845        9.366        3.485      342.950       79.538        0.054      345.208       22.571      858.721
10/01/2013  14:53:00     -304.993     -314.461       -2.707      199.297      175.599       86.538    39719.431    30835.044     7488.827       13.496        3.902      438.072       83.064        0.036      345.112       22.407      858.714
10/01/2013  14:54:00     -409.501     -286.882      -16.376      239.653      187.730       98.886    57433.515    35242.396     9778.463       17.634        5.123      499.992      100.822        0.041      344.981       22.183      858.684
10/01/2013  14:55:00     -522.313     -299.531      -15.494      187.227      178.850       88.768    35053.816    31987.157     7879.835       21.883        3.746      602.104       80.140        0.018      344.967       22.157      858.643
10/01/2013  14:56:00     -131.537     -167.798       33.646      207.095      153.513       77.278    42888.151    23566.299     5971.871        5.949        3.621      213.209       74.895        0.123      345.269       22.676      858.665
10/01/2013  14:57:00     -333.237     -101.803       -4.663      193.334      173.621       91.261    37378.213    30144.350     8328.655        9.863        3.793      348.441      102.347        0.086      345.309       22.742      858.685
10/01/2013  14:58:00     -382.744     -313.963       -8.879      186.808      175.669       89.005    34897.182    30859.464     7921.930       15.940        3.684      495.042       88.130        0.032      345.145       22.463      858.685
10/01/2013  14:59:00     -406.955     -265.450       -4.610      202.449      180.318       79.963    40985.703    32514.589     6394.067       15.798        3.995      485.877       94.637        0.038      344.977       22.176      858.695
10/01/2013  15:00:00     -350.515     -113.978      -12.994      198.777      115.425       76.819    39512.170    13322.941     5901.102        9.737        2.937      368.580       93.126        0.064      345.214       22.580      858.676
10/01/2013  15:01:00     -309.806      -51.317        4.574      212.102      119.012       75.748    44987.289    14163.876     5737.772        8.175        3.244      314.027       84.754        0.073      345.258       22.656      858.669
10/01/2013  15:02:00     -368.910      -97.494      -36.820      134.217      129.627       66.371    18014.285    16803.089     4405.107        9.308        1.961      381.575       62.835        0.027      345.198       22.553      858.638
10/01/2013  15:03:00     -382.818      -68.889      -29.116      142.793      135.964       77.222    20389.866    18486.146     5963.177        9.848        2.242      388.967       72.562        0.035      345.298       22.725      858.621
10/01/2013  15:04:00     -198.963     -140.307       13.810      184.018      145.803       73.743    33862.479    21258.397     5437.980        6.000        3.028      243.459       71.734        0.087      345.375       22.859      858.617
10/01/2013  15:05:00     -154.359     -264.415       12.577      120.524      140.244       72.378    14525.916    19668.421     5238.622        6.666        1.972      306.173       68.083        0.049      345.191       22.542      858.637
10/01/2013  15:06:00     -297.200     -127.563        3.384      197.852      152.897       82.651    39145.308    23377.577     6831.156        8.697        3.468      323.419      102.507        0.100      345.353       22.819      858.636
10/01/2013  15:07:00     -277.686     -237.770       -9.545      161.428      125.471       76.368    26059.134    15742.914     5832.047        9.068        2.382      365.573       76.101        0.043      345.288       22.705      858.627
10/01/2013  15:08:00     -443.111     -370.632      -16.110      239.871      194.115      123.343    57538.093    37680.613    15213.449       22.218        5.522      577.681      136.526        0.056      345.141       22.455      858.621
10/01/2013  15:09:00     -535.156     -342.216      -29.109      202.519      161.775      101.111    41013.988    26171.102    10223.375       24.086        3.870      635.219      102.894        0.026      345.090       22.369      858.610
10/01/2013  15:10:00     -374.666     -225.636        6.586      201.429      164.707       97.253    40573.760    27128.551     9458.212       13.423        3.858      437.363       98.063        0.050      345.262       22.663      858.631
10/01/2013  15:11:00     -533.272     -374.648      -10.143      229.562      198.458      111.944    52698.677    39385.497    12531.563       26.471        5.231      651.721      113.991        0.031      345.068       22.331      858.653
10/01/2013  15:12:00     -415.390     -341.394      -18.689      219.124      182.139      102.962    48015.261    33174.745    10601.113       19.060        4.590      537.679      115.873        0.046      344.876       22.004      858.686
10/01/2013  15:13:00     -402.721     -298.837      -10.433      187.159      155.872       93.062    35028.677    24296.050     8660.491       15.978        3.399      501.486      100.181        0.040      344.817       21.903      858.690
10/01/2013  15:14:00     -232.645     -243.732       -5.998      179.302      161.558       83.610    32149.163    26101.004     6990.640        8.939        3.262      336.941      103.221        0.094      344.998       22.212      858.673
10/01/2013  15:15:00     -335.608     -172.659      -18.182      174.329      134.146       69.542    30390.543    17995.097     4836.024        9.799        2.661      377.417       77.918        0.043      345.092       22.373      858.645
10/01/2013  15:16:00     -255.372      -93.206       -2.168      124.672      131.023       67.519    15543.051    17167.088     4558.805        5.558        1.863      271.850       63.189        0.054      345.337       22.792      858.653
10/01/2013  15:17:00     -316.637      -61.122      -10.864      136.810      108.350       73.262    18716.945    11739.740     5367.380        6.996        1.791      322.482       73.145        0.051      345.311       22.746      858.671
10/01/2013  15:18:00     -236.228      -62.663        2.098      161.682      128.385       53.804    26141.075    16482.703     2894.854        5.262        2.276      244.398       32.054        0.017      345.470       23.020      858.629
10/01/2013  15:19:00     -429.587      -91.569      -13.996      195.264      107.750       94.364    38128.208    11610.029     8904.569       12.587        2.932      439.238       97.148        0.049      345.433       22.956      858.622
10/01/2013  15:20:00     -380.459     -357.492      -13.197      239.180      171.718      113.767    57207.200    29487.224    12943.032       18.616        4.982      522.063      129.320        0.061      345.286       22.703      858.636
10/01/2013  15:21:00     -293.485     -236.848       -7.311      189.904      142.794       90.699    36063.660    20390.090     8226.345       10.347        3.234      377.135       92.123        0.060      345.277       22.688      858.634
10/01/2013  15:22:00     -362.954     -274.815      -22.789      145.576      170.025       80.842    21192.235    28908.590     6535.471       13.220        2.832      455.257       64.379        0.020      345.247       22.637      858.635
10/01/2013  15:23:00     -261.389     -134.790        6.491      164.884      154.372       79.325    27186.619    23830.677     6292.493        7.191        2.865      294.096       84.627        0.083      345.344       22.804      858.633
10/01/2013  15:24:00     -225.274      -91.101       12.557      177.198      136.572       84.180    31399.293    18652.044     7086.249        5.816        2.857      242.997       82.357        0.115      345.273       22.682      858.636
10/01/2013  15:25:00     -216.731     -155.910      -12.334      128.761      112.432       64.276    16579.336    12641.012     4131.390        5.239        1.668      266.984       55.612        0.043      345.239       22.623      858.632
10/01/2013  15:26:00     -136.492     -214.124       15.138      143.781      127.339       64.079    20673.116    16215.185     4106.086        5.284        2.050      253.928       65.226        0.066      345.267       22.672      858.600
10/01/2013  15:27:00     -380.615     -271.423      -19.602      237.353      194.823       97.302    56336.287    37956.036     9467.768       16.132        5.188      467.481      113.347        0.059      345.283       22.699      858.587
10/01/2013  15:28:00     -453.462     -319.837       -1.527      228.373      184.875      107.403    52154.281    34178.612    11535.377       20.288        4.893      554.909      119.919        0.047      345.094       22.374      858.621
10/01/2013  15:29:00     -381.698     -308.971        4.299      186.494      175.953      101.779    34779.828    30959.379    10359.048       15.862        3.805      491.076       90.209        0.034      344.966       22.156      858.655
10/01/2013  15:30:00     -342.288     -330.295      -11.208      220.586      154.192       98.597    48658.202    23775.271     9721.351       15.425        4.108      475.663      117.017        0.061      345.052       22.303      858.672
10/01/2013  15:31:00     -331.962     -181.411       -7.891      172.396      177.719       86.615    29720.495    31583.968     7502.244       10.598        3.440      378.298       93.078        0.061      345.117       22.415      858.687
10/01/2013  15:32:00     -244.505      -85.781        0.116      141.189      127.293       60.724    19934.265    16203.517     3687.358        5.348        1.991      259.116       68.600        0.070      345.187       22.535      858.692
10/01/2013  15:33:00     -339.120     -129.732      -18.047      133.037       91.673       53.263    17698.768     8403.975     2836.964        8.054        1.447      363.088       55.045        0.023      345.152       22.474      858.697
10/01/2013  15:34:00     -457.466     -218.542      -11.137      237.536      170.398       88.413    56423.572    29035.490     7816.932       17.520        4.664      506.987      100.448        0.039      345.015       22.241      858.699
10/01/2013  15:35:00     -459.275     -302.919      -26.862      258.699      211.533      111.420    66925.387    44746.202    12414.421       21.373        6.204      550.176      100.880        0.034      345.005       22.223      858.648
10/01/2013  15:36:00     -470.856     -376.222      -17.762      226.451      165.486      106.509    51279.864    27385.677    11344.248       22.677        4.500      602.701      109.069        0.033      344.984       22.187      858.667
10/01/2013  15:37:00     -476.963     -370.883        0.442      232.923      191.242      113.601    54253.127    36573.386    12905.215       23.437        5.187      604.192      119.987        0.039      345.007       22.227      858.692
10/01/2013  15:38:00     -459.986     -315.842      -30.121      161.607      167.313       87.910    26116.810    27993.765     7728.135       18.703        3.092      557.981       83.348        0.022      345.096       22.378      858.725
10/01/2013  15:39:00     -270.115     -148.786       10.818      168.353      156.013       86.653    28342.577    24340.105     7508.662        7.769        3.010      308.382       82.955        0.072      345.148       22.467      858.765
10/01/2013  15:40:00     -392.046     -243.080       -2.154      171.365      155.016       74.797    29366.051    24029.858     5594.565       13.588        2.950      461.290       88.687        0.037      344.977       22.174      858.727
10/01/2013  15:41:00     -495.500     -322.996       -2.519      208.264      141.570      105.363    43373.879    20041.985    11101.435       21.217        3.726      591.479      106.010        0.032      344.939       22.111      858.716
10/01/2013  15:42:00     -321.507      -99.894      -17.168      141.472      140.720       60.491    20014.328    19802.171     3659.213        7.855        2.174      336.668       53.311        0.025      345.112       22.405      858.695
10/01/2013  15:43:00     -263.472     -261.110        5.977      189.414      201.646      107.924    35877.688    40660.921    11647.640       11.289        4.409      370.940      118.227        0.102      345.184       22.530      858.698
10/01/2013  15:44:00     -366.719     -211.232       -3.919      204.043      161.923       85.902    41633.698    26218.936     7379.141       12.716        3.762      423.204      103.566        0.060      345.267       22.671      858.701
10/01/2013  15:45:00     -234.209     -194.229        2.441      197.591      149.752       83.973    39042.176    22425.776     7051.500        8.054        3.426      304.267      102.719        0.114      345.326       22.772      858.706
10/01/2013  15:46:00     -269.226     -105.661       -2.572      153.482      118.833       62.493    23556.764    14121.344     3905.430        6.261        2.079      289.218       67.824        0.055      345.361       22.834      858.721
10/01/2013  15:47:00     -183.496      -52.632       16.702      146.550      102.894       70.006    21476.838    10587.181     4900.782        3.683        1.848      190.895       73.356        0.148      345.371       22.850      858.749
10/01/2013  15:48:00     -252.627     -172.589       -4.272      158.913      123.786       68.860    25253.442    15323.067     4741.687        6.946        2.266      305.953       73.105        0.057      345.202       22.560      858.724
10/01/2013  15:49:00     -401.884     -255.838        5.756      245.487      172.743      107.319    60263.804    29840.234    11517.322       16.429        5.081      476.407      111.896        0.055      345.082       22.354      858.686
10/01/2013  15:50:00     -373.699     -241.676        0.637      258.300      163.281      101.031    66718.690    26660.643    10207.346       15.080        5.179      445.038      106.446        0.057      344.931       22.097      858.707
10/01/2013  15:51:00     -291.649      -96.717      -22.633      178.439      214.664       85.432    31840.528    46080.634     7298.669        9.006        4.261      307.267       92.985        0.092      344.991       22.200      858.717
10/01/2013  15:52:00     -291.307     -124.395       -7.887      166.216      156.272       58.650    27627.681    24420.968     3439.804        7.793        2.774      316.756       68.944        0.047      345.111       22.406      858.705
10/01/2013  15:53:00     -314.826     -158.309       16.210      151.647      138.911       77.252    22996.900    19296.279     5967.938        8.634        2.413      352.387       80.861        0.053      345.162       22.492      858.719
10/01/2013  15:54:00     -208.705      -78.587       14.231      193.444      141.042       74.664    37420.707    19892.753     5574.639        5.640        3.144      223.010       86.702        0.151      345.227       22.603      858.725
10/01/2013  15:55:00      -92.389      -25.586        6.692      104.408       99.041       60.927    10900.941     9809.111     3712.138        1.682        1.221       95.866       63.100        0.433      345.403       22.909      858.713
10/01/2013  15:56:00     -186.050        6.881       -8.219      175.637      114.926       56.291    30848.235    13208.006     3168.674        4.097        2.361      186.178       67.197        0.130      345.448       22.984      858.691
10/01/2013  15:57:00     -227.053      -72.597        8.331      198.922      117.612       62.942    39570.101    13832.478     3961.701        5.712        2.868      238.377       73.511        0.095      345.356       22.825      858.688
10/01/2013  15:58:00     -499.323     -116.759      -21.747      196.831      146.204       79.683    38742.252    21375.618     6349.355       16.493        3.323      512.793       96.088        0.035      345.024       22.256      858.673
10/01/2013  15:59:00     -259.526     -211.680        1.408      254.278      158.622       87.168    64657.114    25160.798     7598.207       10.477        4.871      334.906      109.148        0.106      345.071       22.338      858.649
10/01/2013  16:00:00     -206.557       -2.291       -3.210      139.304      111.836       60.139    19405.644    12507.197     3616.681        3.910        1.776      206.570       50.902        0.061      345.254       22.650      858.680
10/01/2013  16:01:00     -309.163      -32.526      -31.197      151.153      123.894       70.477    22847.237    15349.816     4966.971        7.038        2.158      310.870       67.840        0.048      345.203       22.562      858.680
10/01/2013  16:02:00     -269.708      -90.276       11.958      169.143      134.230       70.930    28609.344    18017.724     5031.073        6.634        2.583      284.415       65.775        0.053      345.271       22.678      858.672
10/01/2013  16:03:00     -500.275      -69.269      -22.759      194.280      168.578       84.922    37744.826    28418.618     7211.724       16.447        3.669      505.048       99.876        0.039      345.144       22.461      858.673
10/01/2013  16:04:00     -274.125     -139.464        0.162      140.136      120.674       73.585    19638.105    14562.172     5414.689        6.710        1.981      307.562       74.586        0.059      345.314       22.752      858.696
10/01/2013  16:05:00     -327.400     -212.091       -0.446      129.029      123.835       69.246    16648.457    15335.107     4794.956        9.447        1.839      390.094       68.728        0.031      345.109       22.400      858.688
10/01/2013  16:06:00     -302.902      -34.649      -11.529      205.830      154.272       72.019    42366.166    23799.975     5186.701        8.220        3.568      304.878       71.061        0.054      345.128       22.433      858.677
10/01/2013  16:07:00     -201.453     -211.856        8.513      165.895      118.128       71.735    27521.076    13954.245     5145.850        6.607        2.331      292.347       74.960        0.066      345.247       22.637      858.666
10/01/2013  16:08:00     -421.816     -353.724      -24.147      189.492      182.979      103.306    35907.325    33481.227    10672.079       19.183        4.003      550.499       97.364        0.031      344.989       22.196      858.661
10/01/2013  16:09:00     -344.885     -108.791       -4.309      138.671      156.391       80.510    19229.607    24458.057     6481.832        9.047        2.508      361.637       80.678        0.050      345.106       22.396      858.689
10/01/2013  16:10:00     -462.492     -142.152      -13.638      164.961      123.332       72.730    27212.207    15210.824     5289.669       14.099        2.386      483.846       80.931        0.028      344.887       22.022      858.675
10/01/2013  16:11:00     -337.383     -161.650       -8.933      207.184      144.713       84.487    42925.399    20941.825     7138.137       10.551        3.550      374.109       87.444        0.055      344.935       22.104      858.658
10/01/2013  16:12:00     -229.778     -101.750       10.885      160.040      158.018       73.235    25612.779    24969.810     5363.438        5.960        2.797      251.299       75.879        0.091      345.192       22.544      858.678
10/01/2013  16:13:00     -336.402     -196.816      -14.074      227.292      159.528       99.231    51661.582    25449.167     9846.810       11.951        4.348      389.747      121.499        0.097      345.122       22.425      858.670
10/01/2013  16:14:00     -386.958     -301.596       -1.994      201.362      146.059       98.694    40546.828    21333.179     9740.491       15.615        3.581      490.609      107.941        0.048      345.003       22.219      858.663
10/01/2013  16:15:00     -302.647     -222.470      -12.550      194.442      148.511       76.212    37807.532    22055.462     5808.286       10.345        3.284      375.617       92.755        0.061      345.057       22.312      858.666
10/01/2013  16:16:00     -133.851      -67.346       26.154      120.241      101.743       72.534    14458.005    10351.638     5261.175        2.660        1.504      149.839       75.840        0.256      345.248       22.640      858.687
10/01/2013  16:17:00     -319.835      -21.553       -1.006      254.403      169.771       72.486    64720.940    28822.102     5254.162       10.076        4.940      320.560       86.181        0.072      345.151       22.474      858.665
10/01/2013  16:18:00     -431.405     -234.997       -6.803      256.039      204.379       97.456    65555.869    41770.710     9497.578       17.908        5.841      491.257      112.737        0.053      344.994       22.204      858.632
10/01/2013  16:19:00     -415.156     -259.251      -24.418      211.673      159.416       98.175    44805.482    25413.546     9638.286       15.999        3.993      489.455       65.563        0.018      344.971       22.165      858.660
10/01/2013  16:20:00     -403.479      -46.584        2.304      218.775      186.328      109.477    47862.534    34718.288    11985.315       12.975        4.728      406.159      110.514        0.074      345.021       22.251      858.660
10/01/2013  16:21:00     -497.964     -126.797        3.378      275.481      189.482      101.071    75889.985    35903.398    10215.369       19.301        6.100      513.854      132.911        0.067      344.953       22.135      858.698
10/01/2013  16:22:00     -474.624     -213.081      -15.026      186.957      151.998       79.025    34952.785    23103.259     6244.885       16.759        3.215      520.262       77.744        0.022      344.891       22.028      858.709
10/01/2013  16:23:00     -376.010     -142.351      -14.309      175.392      138.003       84.729    30762.441    19044.784     7178.994       10.941        2.849      402.054       64.548        0.026      344.904       22.051      858.724
10/01/2013  16:24:00     -308.843     -317.560       11.164      217.534      149.251       94.001    47321.124    22275.923     8836.192       13.738        3.922      442.977      112.877        0.065      344.866       21.986      858.743
10/01/2013  16:25:00     -483.378     -286.549       -2.627      254.981      188.856      107.802    65015.171    35666.594    11621.245       21.402        5.615      561.930      131.055        0.054      344.716       21.729      858.762
10/01/2013  16:26:00     -272.962     -177.929        9.100      139.796       92.937       65.315    19542.867     8637.345     4266.020        6.934        1.622      325.833       65.724        0.041      344.821       21.908      858.756
10/01/2013  16:27:00     -134.525     -116.313       21.203      131.970      114.554       72.393    17416.085    13122.552     5240.779        3.392        1.789      177.836       82.528        0.215      344.958       22.144      858.751
10/01/2013  16:28:00     -144.349     -154.934       10.670      106.449       90.412       57.276    11331.456     8174.307     3280.589        3.387        1.139      211.758       59.917        0.080      344.982       22.185      858.756
10/01/2013  16:29:00     -116.396     -110.491       10.430      130.954       94.715       58.715    17148.976     8970.986     3447.478        2.771        1.478      160.488       56.534        0.124      345.049       22.299      858.757
10/01/2013  16:30:00     -491.296     -179.323      -27.446      178.779      132.930       83.156    31962.036    17670.278     6914.904       16.540        2.827      523.000       81.566        0.024      344.838       21.936      858.766
10/01/2013  16:31:00     -489.759     -184.856      -41.847      162.302      165.054       73.483    26341.872    27242.724     5399.714       16.737        2.949      523.484       66.586        0.016      344.822       21.908      858.749
10/01/2013  16:32:00     -346.548      -83.248      -15.415      175.195      144.970       71.596    30693.298    21016.400     5126.040        9.204        2.842      356.407       79.292        0.049      344.886       22.020      858.730
10/01/2013  16:33:00     -375.930      -31.740       -9.310      217.715      133.311       71.546    47399.877    17771.911     5118.805       10.634        3.515      377.267       84.085        0.050      344.827       21.918      858.689
10/01/2013  16:34:00     -382.224       27.331      -26.042      198.591      132.689       74.720    39438.260    17606.370     5583.005       10.506        3.131      383.200       82.669        0.047      344.884       22.016      858.682
10/01/2013  16:35:00     -186.671     -147.372       -7.133      128.858      107.322       59.546    16604.465    11517.968     3545.758        4.414        1.583      237.833       48.716        0.042      344.930       22.096      858.719
10/01/2013  16:36:00     -296.244     -188.578      -11.311      113.177      102.887       65.155    12809.109    10585.728     4245.125        7.554        1.382      351.172       56.632        0.026      344.823       21.910      858.699
10/01/2013  16:37:00     -318.972     -176.777      -18.901      147.642      104.094       66.649    21798.087    10835.571     4442.150        8.521        1.854      364.682       55.930        0.024      344.875       22.001      858.674
10/01/2013  16:38:00     -199.927     -141.296        8.008      165.969      128.660       70.784    27545.692    16553.380     5010.321        5.454        2.455      244.817       68.586        0.078      345.064       22.325      858.686
10/01/2013  16:39:00     -345.435       -4.935      -18.092      146.485      157.605       79.351    21457.725    24839.316     6296.519        8.612        2.630      345.470       68.214        0.039      345.145       22.463      858.677
10/01/2013  16:40:00     -330.350     -154.387       -6.393      238.964      162.134       94.286    57103.789    26287.316     8889.848       11.263        4.614      364.646      120.372        0.109      345.035       22.276      858.682
10/01/2013  16:41:00     -450.599     -217.301      -21.023      201.924      178.617       88.873    40773.312    31903.945     7898.390       16.562        4.029      500.259       90.082        0.032      344.814       21.895      858.721
10/01/2013  16:42:00     -453.765     -150.787      -22.105      182.402      128.179       81.923    33270.375    16429.891     6711.345       14.276        2.821      478.162       97.266        0.041      344.837       21.934      858.733
10/01/2013  16:43:00     -440.560     -201.806      -14.141      243.446      188.759       91.284    59265.856    35629.806     8332.820       16.910        5.161      484.581      103.754        0.046      344.807       21.884      858.727
10/01/2013  16:44:00     -434.681      -71.072       -7.017      202.570      168.716       89.374    41034.758    28465.222     7987.635       13.575        3.874      440.453       93.858        0.045      344.936       22.103      858.722
10/01/2013  16:45:00     -380.952      -66.786        3.930      185.102      180.217       96.486    34262.736    32478.267     9309.541       11.281        3.803      386.762      101.411        0.069      344.869       21.991      858.733
10/01/2013  16:46:00     -328.241     -151.680      -14.054      207.179      165.167       97.087    42923.017    27280.004     9425.947       10.527        3.981      361.592       95.963        0.070      344.816       21.899      858.737
10/01/2013  16:47:00     -303.370     -203.382      -12.994      224.360      133.788       91.432    50337.563    17899.163     8359.854       10.507        3.830      365.236       99.080        0.074      344.787       21.850      858.740
10/01/2013  16:48:00     -310.736     -131.216      -10.849      189.199      152.973       86.443    35796.199    23400.650     7472.362        9.027        3.333      337.305       87.551        0.067      344.879       22.007      858.742
10/01/2013  16:49:00     -350.321     -273.672       -4.684      197.437      152.881       98.124    38981.269    23372.479     9628.323       13.480        3.599      444.546      102.793        0.053      344.792       21.857      858.731
10/01/2013  16:50:00     -311.893     -261.362       -5.978      175.514      126.322       82.854    30805.092    15957.171     6864.707       10.961        2.681      406.924       76.036        0.035      344.827       21.918      858.732
10/01/2013  16:51:00     -327.695      -88.317      -20.945      103.854      101.237       57.197    10785.585    10248.832     3271.484        6.996        1.215      339.388       52.480        0.024      344.869       21.991      858.745
10/01/2013  16:52:00     -168.152      -97.191        6.695      125.321      100.095       57.785    15705.406    10019.089     3339.093        3.341        1.453      194.220       60.972        0.099      344.999       22.214      858.736
10/01/2013  16:53:00     -333.700     -140.846       -0.439      188.348      160.273       93.935    35474.955    25687.492     8823.706       10.058        3.499      362.206      105.601        0.085      344.856       21.968      858.746
10/01/2013  16:54:00     -367.694     -201.695       -8.605      176.793      163.069       80.041    31255.796    26591.499     6406.608       12.009        3.213      419.381       91.285        0.047      344.686       21.678      858.729
10/01/2013  16:55:00     -393.665     -325.665      -15.636      198.983      158.227      102.643    39594.303    25035.690    10535.643       16.820        3.758      510.911      108.047        0.045      344.690       21.684      858.702
10/01/2013  16:56:00     -446.853     -253.816      -15.075      215.731      143.641       86.021    46539.661    20632.694     7399.625       16.943        3.729      513.907       86.433        0.028      344.668       21.647      858.700
10/01/2013  16:57:00     -300.068     -149.703       -3.087      122.200       99.020       55.341    14932.730     9804.967     3062.626        7.013        1.390      335.338       56.066        0.028      344.697       21.696      858.711
10/01/2013  16:58:00     -232.473     -128.769        9.575      179.064      129.970       72.019    32063.837    16892.083     5186.720        6.242        2.707      265.754       93.660        0.124      344.838       21.938      858.712
10/01/2013  16:59:00     -418.558     -322.748        5.026      241.901      184.169      107.403    58516.044    33918.066    11535.511       19.166        5.198      528.543      117.442        0.049      344.662       21.637      858.702
10/01/2013  17:00:00     -500.520     -298.014      -22.160      200.112      158.172       84.268    40044.880    25018.303     7101.122       20.598        3.608      582.523       80.181        0.019      344.600       21.531      858.696
10/01/2013  17:01:00     -403.097     -285.957      -16.750      228.955      163.407      101.609    52420.501    26701.910    10324.373       16.697        4.472      494.225      116.304        0.055      344.597       21.525      858.701
10/01/2013  17:02:00     -440.488     -305.501      -19.017      210.387      160.781       96.129    44262.633    25850.421     9240.741       18.352        3.968      536.060      101.336        0.036      344.611       21.550      858.687
10/01/2013  17:03:00     -302.554     -213.228        3.940      191.604      145.036       99.555    36712.214    21035.477     9911.269       10.233        3.383      370.142       92.994        0.063      344.691       21.685      858.695
10/01/2013  17:04:00     -347.990     -166.940       -5.429      214.154      139.666       74.306    45861.986    19506.702     5521.380       10.993        3.545      385.961       83.472        0.047      344.760       21.803      858.685
10/01/2013  17:05:00     -444.378     -212.507        5.784      235.839      181.051      109.153    55620.230    32779.372    11914.337       17.147        5.016      492.576      123.123        0.062      344.664       21.639      858.687
10/01/2013  17:06:00     -427.001     -142.952       -8.962      210.909      166.408       86.052    44482.400    27691.559     7404.904       14.120        3.979      450.295       89.200        0.039      344.706       21.711      858.681
10/01/2013  17:07:00     -336.190     -241.074       -8.125      214.086      155.554       96.283    45832.817    24197.083     9270.422       12.524        3.965      413.691      108.749        0.069      344.611       21.550      858.707
10/01/2013  17:08:00     -347.528     -160.763      -16.181      161.502      130.557       81.446    26082.792    17045.243     6633.512        9.831        2.488      382.911       74.710        0.038      344.658       21.628      858.694
10/01/2013  17:09:00     -269.903     -111.771        3.122      150.723      144.872       69.915    22717.519    20988.036     4888.122        6.696        2.430      292.131       73.051        0.063      344.715       21.726      858.703
10/01/2013  17:10:00     -431.472     -129.785      -36.955      196.550      140.776       73.851    38631.977    19817.751     5453.931       13.413        3.195      450.569       81.345        0.033      344.721       21.738      858.723
10/01/2013  17:11:00     -342.782      -57.608       -3.497      182.622      118.244       72.450    33350.851    13981.569     5249.015        8.670        2.629      347.589       92.282        0.070      344.722       21.738      858.720
10/01/2013  17:12:00     -333.792      -67.877       -8.641      174.703      132.102       73.565    30521.015    17450.883     5411.808        8.473        2.669      340.624       77.149        0.051      344.765       21.812      858.732
10/01/2013  17:13:00     -288.165     -103.541        4.133      175.975      139.476       74.058    30967.192    19453.539     5484.611        7.483        2.795      306.202       85.428        0.078      344.818       21.905      858.734
10/01/2013  17:14:00     -262.401     -167.415       14.195      176.875      169.922       84.151    31284.782    28873.553     7081.333        8.215        3.362      311.259       92.704        0.089      344.771       21.823      858.767
10/01/2013  17:15:00     -384.104     -181.695       -3.040      220.006      156.823       87.867    48402.681    24593.380     7720.550       13.062        4.036      424.910       97.435        0.053      344.676       21.660      858.756
10/01/2013  17:16:00     -244.201     -167.949       -0.625      148.054      115.299       64.269    21919.875    13293.753     4130.470        6.358        1.967      296.380       76.490        0.067      344.646       21.610      858.769
10/01/2013  17:17:00     -363.911     -136.363      -13.130      166.960      151.910       82.179    27875.710    23076.739     6753.316       10.444        2.885      388.621       95.526        0.060      344.642       21.603      858.776
10/01/2013  17:18:00     -350.631     -169.107      -13.225      169.153      156.449       83.484    28612.869    24476.404     6969.627       10.587        3.003      389.280       85.454        0.048      344.613       21.552      858.778
10/01/2013  17:19:00     -305.900     -101.638       -3.820      169.658      173.087       76.099    28783.895    29959.160     5791.095        8.421        3.227      322.343       84.850        0.069      344.701       21.703      858.781
10/01/2013  17:20:00     -505.563     -187.061        0.330      229.253      199.452      102.277    52557.042    39780.929    10460.625       19.667        5.140      539.060      106.718        0.039      344.570       21.479      858.769
10/01/2013  17:21:00     -389.937     -223.843      -10.276      240.035      158.018       97.013    57616.563    24969.616     9411.565       14.711        4.600      449.618      122.864        0.075      344.589       21.512      858.800
10/01/2013  17:22:00     -389.085     -215.697       -7.237      214.012      147.607       83.019    45800.930    21787.714     6892.168       13.621        3.724      444.874       98.548        0.049      344.580       21.497      858.801
10/01/2013  17:23:00     -568.632     -259.211      -30.829      189.798      144.555       94.716    36023.207    20896.112     8971.069       22.867        3.295      624.926       88.554        0.020      344.530       21.411      858.794
10/01/2013  17:24:00     -272.121     -149.782      -12.668      157.303      144.679       74.906    24744.092    20931.889     5610.959        7.396        2.564      310.620       82.746        0.071      344.648       21.612      858.817
10/01/2013  17:25:00     -305.963      -61.280       -0.496      183.245      138.280       71.919    33578.662    19121.395     5172.276        7.761        2.894      312.039       71.172        0.052      344.719       21.734      858.831
10/01/2013  17:26:00     -393.077      -73.654      -10.752      224.528      169.969       82.535    50412.707    28889.620     6812.028       12.306        4.306      399.918       86.356        0.047      344.635       21.589      858.804
10/01/2013  17:27:00     -459.964     -137.327      -31.797      194.851      130.519       81.183    37967.034    17035.118     6590.669       14.650        3.080      480.027       96.897        0.041      344.592       21.516      858.811
10/01/2013  17:28:00     -352.385     -104.651       -7.140      158.512      116.094       77.345    25125.966    13477.716     5982.270        8.987        2.229      367.596       85.371        0.054      344.576       21.490      858.806
10/01/2013  17:29:00     -211.338     -105.908       12.175      160.587      172.894       80.482    25788.266    29892.251     6477.319        5.908        3.108      236.390       92.597        0.153      344.623       21.570      858.820
10/01/2013  17:30:00     -355.043     -226.910      -10.399      184.044      153.332       85.595    33872.229    23510.838     7326.478       12.117        3.235      421.360       95.605        0.051      344.555       21.454      858.803
10/01/2013  17:31:00     -444.940     -111.391      -20.739      211.338      159.316       82.415    44663.900    25381.577     6792.156       14.381        3.842      458.671       84.838        0.034      344.518       21.389      858.797
10/01/2013  17:32:00     -386.917     -203.050      -21.216      155.569      143.540       81.528    24201.562    20603.798     6646.802       12.141        2.573      436.960       89.579        0.042      344.540       21.429      858.807
10/01/2013  17:33:00     -180.807     -143.537       27.898      162.922      159.770       81.602    26543.464    25526.314     6658.808        5.639        2.936      230.855       83.598        0.131      344.569       21.479      858.817
10/01/2013  17:34:00     -316.517     -263.926        7.538      184.681      153.840       96.733    34107.126    23666.844     9357.218       11.850        3.357      412.116      110.834        0.072      344.518       21.391      858.802
10/01/2013  17:35:00     -431.831     -337.368      -24.625      248.055      155.598       88.088    61531.410    24210.847     7759.541       19.718        4.675      547.992       84.363        0.024      344.432       21.243      858.802
10/01/2013  17:36:00     -346.016     -218.872       -1.046      216.289      157.419       84.775    46780.888    24780.642     7186.727       12.317        3.937      409.428       93.574        0.052      344.438       21.254      858.793
10/01/2013  17:37:00     -426.684     -146.012      -19.454      198.550      135.019       82.604    39422.256    18230.124     6823.443       13.410        3.224      450.976       86.355        0.037      344.431       21.239      858.795
10/01/2013  17:38:00     -316.309     -262.910       -2.000      206.332      177.443       92.540    42572.920    31485.872     8563.683       12.588        4.131      411.306      102.067        0.062      344.458       21.288      858.788
10/01/2013  17:39:00     -319.336     -180.300       -1.719      144.454      137.021       78.922    20867.064    18774.738     6228.672        9.017        2.294      366.720       78.653        0.046      344.502       21.363      858.817
10/01/2013  17:40:00     -363.824      -86.651      -13.288      145.088      131.766       70.602    21050.406    17362.258     4984.601        9.172        2.170      374.001       81.880        0.048      344.490       21.342      858.826
10/01/2013  17:41:00     -299.146     -106.448      -11.563      159.443       88.706       55.235    25422.226     7868.773     3050.932        6.864        1.817      317.520       60.821        0.037      344.539       21.426      858.850
10/01/2013  17:42:00     -141.773      -66.975        9.638      114.321       92.413       59.072    13069.301     8540.162     3489.453        2.488        1.255      156.797       62.645        0.160      344.614       21.556      858.843
10/01/2013  17:43:00     -186.798     -171.325       -3.368      155.278      128.179       76.490    24111.218    16429.828     5850.711        5.532        2.320      253.468       91.133        0.129      344.528       21.409      858.835
10/01/2013  17:44:00     -189.183     -144.650        4.374      139.588       85.453       69.165    19484.759     7302.271     4783.829        4.415        1.579      238.147       63.508        0.071      344.501       21.362      858.835
10/01/2013  17:45:00     -248.048     -124.143      -12.694      126.798      109.400       66.855    16077.651    11968.376     4469.652        5.480        1.626      277.379       73.435        0.070      344.545       21.436      858.835
10/01/2013  17:46:00     -188.859     -110.072        1.010      135.537       97.963       70.923    18370.146     9596.742     5030.035        4.038        1.650      218.594       67.600        0.096      344.484       21.331      858.828
10/01/2013  17:47:00     -310.162     -146.722        0.302      195.850      139.820       67.322    38357.158    19549.718     4532.253        9.007        3.122      343.115       80.704        0.055      344.457       21.285      858.823
10/01/2013  17:48:00     -165.709      -81.363       12.038      188.009      109.172       76.490    35347.556    11918.443     5850.646        4.366        2.656      184.606       87.302        0.224      344.461       21.294      858.817
10/01/2013  17:49:00     -315.847      -53.527       -5.794      149.048      105.889       68.963    22215.184    11212.426     4755.917        7.041        1.909      320.350       63.977        0.040      344.497       21.353      858.849
10/01/2013  17:50:00     -398.544     -162.902       -9.814      245.203      176.871       94.769    60124.484    31283.225     8981.094       14.291        5.019      430.551      118.036        0.075      344.407       21.202      858.846
10/01/2013  17:51:00     -566.899     -148.762      -48.278      257.529      181.880       86.796    66320.967    33080.301     7533.502       22.636        5.347      586.093      110.823        0.036      344.327       21.063      858.840
10/01/2013  17:52:00     -312.369     -198.760      -12.976      183.291      174.532       80.188    33595.546    30461.461     6430.184       10.385        3.524      370.243      100.433        0.074      344.338       21.083      858.868
10/01/2013  17:53:00     -308.132     -152.424       -6.879      177.436      132.887       81.384    31483.497    17659.038     6623.336        8.698        2.788      343.771       91.487        0.071      344.324       21.059      858.860
10/01/2013  17:54:00     -278.911     -135.596       -3.300      200.997      137.687       83.912    40399.926    18957.792     7041.210        8.128        3.320      310.125       97.982        0.100      344.313       21.040      858.869
10/01/2013  17:55:00     -214.565     -123.287        0.163      194.420      120.932       73.849    37799.105    14624.625     5453.708        5.955        2.894      247.463       77.412        0.098      344.314       21.043      858.872
10/01/2013  17:56:00     -375.673     -223.258      -25.637      179.031      137.788       78.808    32052.219    18985.438     6210.677       12.443        2.862      437.006       86.628        0.039      344.258       20.946      858.879
10/01/2013  17:57:00     -364.740     -197.473      -19.554      166.755      149.180       81.163    27807.202    22254.736     6587.513       11.452        2.832      414.766       88.670        0.046      344.234       20.904      858.870
10/01/2013  17:58:00     -433.413     -206.997      -17.173      200.466      181.066       82.195    40186.563    32784.924     6756.025       15.534        3.986      480.307       93.833        0.038      344.194       20.836      858.882
10/01/2013  17:59:00     -267.279     -110.425       -1.510      163.203      172.473       78.419    26635.060    29746.958     6149.495        7.307        3.127      289.192       80.106        0.077      344.215       20.872      858.885
10/01/2013  18:00:00     -253.891      -87.691      -20.985      144.721      132.242       73.553    20944.172    17487.937     5410.025        5.821        2.192      268.608       61.335        0.052      344.219       20.880      858.889
10/01/2013  18:01:00     -260.256      -82.311      -20.889      177.163      155.909       89.519    31386.626    24307.514     8013.679        6.931        3.185      272.962      102.917        0.142      344.215       20.871      858.901
10/01/2013  18:02:00     -253.975      -13.158        4.974      228.713      128.709       78.882    52309.828    16566.125     6222.298        6.988        3.755      254.316      103.416        0.165      344.198       20.844      858.894
10/01/2013  18:03:00     -349.047      -54.438      -12.508      206.258      136.956       80.758    42542.182    18757.032     6521.926        9.637        3.391      353.267       83.487        0.056      344.135       20.737      858.891
10/01/2013  18:04:00     -278.790     -141.938       -9.675      151.556      110.097       61.616    22969.209    12121.376     3796.525        6.842        1.944      312.842       66.938        0.046      344.113       20.700      858.912
10/01/2013  18:05:00     -258.562      -80.290       -2.722      171.788      137.011       77.485    29511.231    18771.912     6003.871        6.379        2.714      270.742       84.374        0.097      344.112       20.697      858.906
10/01/2013  18:06:00     -360.206      -59.812        0.114      218.404      126.620       79.100    47700.095    16032.515     6256.835       10.164        3.499      365.138       94.108        0.066      344.077       20.637      858.908
10/01/2013  18:07:00     -192.824     -149.458       -7.490      152.263      142.738       60.272    23183.963    20374.266     3632.756        5.337        2.360      243.965       41.277        0.029      344.140       20.745      858.907
10/01/2013  18:08:00     -354.822     -200.505      -24.900      174.543      111.472       65.024    30465.170    12425.977     4228.134       10.691        2.356      407.555       68.779        0.028      344.076       20.637      858.904
10/01/2013  18:09:00     -246.800      -55.200      -18.776      129.169       86.925       52.469    16684.739     7555.948     2753.028        4.565        1.350      252.897       59.762        0.056      344.067       20.620      858.900
10/01/2013  18:10:00     -231.422       30.019        6.031       99.981       76.369       59.968     9996.267     5832.193     3596.208        3.696        0.971      233.360       49.959        0.046      344.098       20.673      858.872
10/01/2013  18:11:00     -464.713      -47.550      -15.192      145.655      141.396       76.909    21215.319    19992.757     5914.944       13.278        2.356      467.140       67.287        0.021      344.007       20.519      858.872
10/01/2013  18:12:00     -253.650      -81.270        3.059      189.204      106.358       68.293    35798.066    11312.067     4663.993        6.135        2.589      266.352       74.237        0.078      343.987       20.483      858.858
10/01/2013  18:13:00     -476.157     -133.837      -24.086      143.889      140.303       77.041    20703.999    19685.050     5935.361       14.576        2.316      494.609       70.126        0.020      343.961       20.438      858.857
10/01/2013  18:14:00     -296.800      -63.155       -0.792      184.376      114.227       75.875    33994.366    13047.908     5756.957        7.243        2.640      303.445       86.957        0.082      343.961       20.437      858.863
10/01/2013  18:15:00     -250.110     -142.155        1.155      191.368      150.133       86.854    36621.539    22539.969     7543.616        7.472        3.335      287.686      101.739        0.125      343.915       20.360      858.858
10/01/2013  18:16:00     -238.542      -98.611        8.986      161.891      102.973       69.177    26208.653    10603.439     4785.403        5.414        2.080      258.121       84.848        0.108      343.939       20.402      858.840
10/01/2013  18:17:00     -220.755     -217.368       -2.701      159.618      169.710       91.775    25477.977    28801.523     8422.669        7.933        3.135      309.810      102.783        0.110      343.900       20.334      858.828
10/01/2013  18:18:00     -311.983      -84.404      -16.554      152.320      151.432       66.860    23201.438    22931.621     4470.309        7.766        2.530      323.199       52.851        0.027      343.934       20.392      858.827
10/01/2013  18:19:00     -292.133      -52.193       -5.782      183.745      114.563       82.360    33762.327    13124.586     6783.210        7.087        2.684      296.759       78.935        0.071      343.935       20.394      858.820
10/01/2013  18:20:00     -334.569     -111.142      -20.600      154.580      128.269       82.674    23894.841    16452.904     6835.019        8.594        2.359      352.546       84.145        0.057      343.856       20.258      858.818
10/01/2013  18:21:00     -303.590     -179.464       -7.526      125.302       94.361       60.950    15700.552     8903.974     3714.855        7.637        1.416      352.668       59.956        0.029      343.836       20.225      858.818
10/01/2013  18:22:00     -356.154      -26.546      -16.549      182.760      110.592       75.490    33401.215    12230.671     5698.677        8.957        2.567      357.142       79.973        0.050      343.840       20.234      858.796
10/01/2013  18:23:00     -360.522      -91.598       -7.457      192.932      128.035       81.768    37222.924    16393.004     6685.928        9.935        3.015      371.976       98.343        0.070      343.796       20.158      858.781
10/01/2013  18:24:00     -319.389     -210.973      -10.879      224.060      158.667       92.629    50202.921    25175.181     8580.183       11.528        4.198      382.778      109.324        0.082      343.793       20.152      858.748
10/01/2013  18:25:00     -405.969     -166.851      -20.287      226.176       87.862       79.500    51155.726     7719.721     6320.242       12.912        3.260      438.919      103.639        0.056      343.766       20.106      858.744
10/01/2013  18:26:00     -222.531     -117.542       -1.268      169.248      117.953       76.272    28644.732    13912.795     5817.396        5.585        2.419      251.667       89.108        0.125      343.766       20.106      858.738
10/01/2013  18:27:00     -236.752     -101.622       12.432      188.340      147.078       85.600    35471.841    21631.873     7327.297        6.547        3.222      257.641       97.880        0.144      343.747       20.075      858.710
10/01/2013  18:28:00     -421.119     -165.756      -16.711      256.078      149.926       82.427    65575.796    22477.706     6794.202       14.995        4.742      452.566       99.900        0.049      343.742       20.062      858.705
10/01/2013  18:29:00     -330.563     -156.323       -9.941      173.244      144.112       68.500    30013.504    20768.155     4692.182        9.463        2.774      365.662       75.396        0.043      343.723       20.031      858.700
10/01/2013  18:30:00     -201.987     -129.853        6.605      157.739      140.780       68.080    24881.705    19819.057     4634.947        5.351        2.467      240.126       79.587        0.110      343.650       19.907      858.711
10/01/2013  18:31:00     -291.470     -130.900      -15.749      155.301      116.156       61.350    24118.261    13492.225     3763.877        7.185        2.069      319.514       82.308        0.066      343.657       19.920      858.709
10/01/2013  18:32:00     -312.623     -102.277       -7.917      183.536      174.592       86.417    33685.402    30482.337     7467.833        8.993        3.582      328.928       95.848        0.085      343.670       19.942      858.688
10/01/2013  18:33:00     -454.387      -78.408      -33.695      170.241      145.929       75.062    28982.052    21295.279     5634.379       13.482        2.796      461.102       83.039        0.032      343.643       19.894      858.705
10/01/2013  18:34:00     -218.455      -78.513       -6.493      116.135      121.376       60.209    13487.374    14732.086     3625.066        4.288        1.592      232.135       59.567        0.066      343.609       19.838      858.718
10/01/2013  18:35:00     -119.180      -87.448        0.246      132.547      128.363       79.418    17568.645    16477.116     6307.265        3.109        2.018      147.821       77.479        0.275      343.518       19.685      858.712
10/01/2013  18:36:00     -190.708      -96.731        7.559      141.597      118.430       62.696    20049.668    14025.631     3930.815        4.189        1.900      213.837       60.349        0.080      343.589       19.805      858.726
10/01/2013  18:37:00     -301.196      -60.280       -4.730      152.806      109.721       66.691    23349.647    12038.694     4447.672        6.710        1.992      307.168       71.029        0.053      343.563       19.758      858.720
10/01/2013  18:38:00     -173.489       12.735        6.267       93.986       78.273       58.663     8833.283     6126.647     3441.395        2.435        0.920      173.956       59.924        0.119      343.518       19.683      858.736
10/01/2013  18:39:00     -174.457       25.163       -3.572       90.057       56.683       41.404     8110.233     3212.955     1714.297        2.206        0.652      176.263       40.212        0.052      343.512       19.673      858.749
10/01/2013  18:40:00     -142.026       30.532       -2.569       61.261       50.645       31.029     3752.864     2564.874      962.818        1.419        0.364      145.270       19.047        0.017      343.493       19.644      858.762
10/01/2013  18:41:00     -155.587      -16.538      -16.002       87.877       58.517       30.880     7722.345     3424.285      953.572        1.842        0.605      156.463       29.270        0.035      343.507       19.665      858.782
10/01/2013  18:42:00     -268.406      -25.998      -27.216       81.185       85.881       39.714     6590.964     7375.550     1577.163        4.450        0.777      269.662       44.662        0.027      343.481       19.621      858.810
10/01/2013  18:43:00     -144.145       57.037       -5.646       93.483       51.420       35.811     8739.009     2644.055     1282.464        1.836        0.633      155.019       25.469        0.027      343.417       19.512      858.821
10/01/2013  18:44:00     -120.450        2.057       -7.617       79.887       47.245       30.619     6381.985     2232.064      937.524        1.206        0.478      120.468       35.394        0.086      343.413       19.505      858.849
10/01/2013  18:45:00     -107.343       -0.583       -0.234       68.044       57.766       29.538     4630.019     3336.943      872.518        1.018        0.442      107.344       27.445        0.065      343.389       19.464      858.867
10/01/2013  18:46:00     -132.053      -33.475       -3.546       91.120       53.020       28.885     8302.811     2811.159      834.371        1.526        0.597      136.230       32.210        0.056      343.418       19.514      858.888
10/01/2013  18:47:00      -59.099      -16.868        8.627       74.365       72.393       32.757     5530.210     5240.733     1072.994        0.785        0.592       61.459       32.055        0.272      343.277       19.274      858.905
10/01/2013  18:48:00      -88.027       17.149       -6.104       60.469       48.346       30.324     3656.442     2337.338      919.556        0.750        0.346       89.682       28.207        0.099      343.343       19.388      858.917
10/01/2013  18:49:00     -128.407      -89.184       14.366      100.645       57.514       51.979    10129.317     3307.899     2701.826        2.039        0.807      156.340       44.550        0.081      343.313       19.336      858.945
10/01/2013  18:50:00      -80.182        6.650       -0.383       58.981       51.607       41.458     3478.744     2663.325     1718.791        0.717        0.393       80.457       34.074        0.179      343.309       19.330      858.959
10/01/2013  18:51:00     -113.975       -2.876       -0.463      133.266       63.240       34.780    17759.904     3999.344     1209.628        1.798        1.148      114.012       44.088        0.150      343.312       19.332      858.969
10/01/2013  18:52:00     -166.001       -7.992      -11.346       94.436       63.969       40.511     8918.206     4092.089     1641.168        2.120        0.733      166.193       50.072        0.091      343.280       19.279      858.994
10/01/2013  18:53:00     -159.194      -51.689      -12.511       56.501       57.754       33.727     3192.308     3335.472     1137.483        1.792        0.383      167.375       31.747        0.036      343.336       19.374      859.000
10/01/2013  18:54:00      -95.071       63.026      -24.602       48.478       33.504       29.452     2350.121     1122.536      867.407        0.898        0.217      114.064       19.294        0.029      343.308       19.329      859.012
10/01/2013  18:55:00       23.800       65.001       -0.971       46.060       43.117       28.550     2121.483     1859.075      815.107        0.479        0.240       69.221       27.489        0.158      343.187       19.122      859.014
10/01/2013  18:56:00     -101.456       47.207      -12.505       52.774       33.614       20.384     2785.071     1129.908      415.508        0.850        0.217      111.901       21.401        0.037      343.226       19.189      859.040
10/01/2013  18:57:00      -19.995       37.320       -4.942       38.302       42.751       16.959     1467.055     1827.679      287.597        0.270        0.179       42.339       16.764        0.157      343.239       19.211      859.055
10/01/2013  18:58:00       37.470       79.860       -7.614       25.233       46.218       25.949      636.722     2136.140      673.329        0.564        0.172       88.214       25.416        0.083      343.173       19.100      859.069
10/01/2013  18:59:00       31.188       66.418      -11.293       40.561       55.110       28.944     1645.160     3037.164      837.746        0.551        0.276       73.376       29.557        0.162      343.142       19.047      859.090
10/01/2013  19:00:00      -37.514       54.667       -6.194       76.500       47.049       30.046     5852.273     2213.568      902.763        0.670        0.448       66.301       13.274        0.040      343.029       18.853      859.111
10/01/2013  19:01:00     -122.268       43.029      -13.770       83.263       39.171       28.291     6932.746     1534.356      800.401        1.313        0.463      129.619       34.763        0.072      343.221       19.179      859.131
10/01/2013  19:02:00      -60.781       93.791      -15.857       51.720       36.315       21.093     2674.957     1318.764      444.902        0.859        0.222      111.763       22.557        0.041      343.125       19.016      859.142
10/01/2013  19:03:00      -87.111       96.358      -17.862       43.321       45.547       25.440     1876.699     2074.568      647.178        1.089        0.230      129.896       27.675        0.045      343.128       19.020      859.170
10/01/2013  19:04:00      -11.826       85.477       -0.167       23.635       35.634       25.577      558.626     1269.759      654.185        0.496        0.124       86.291       17.331        0.040      343.050       18.888      859.168
10/01/2013  19:05:00      -75.645      133.187      -15.029       63.404       84.747       38.759     4020.026     7182.005     1502.281        1.819        0.635      153.170       44.032        0.083      343.073       18.928      859.183
10/01/2013  19:06:00      -61.836       77.386      -23.273       86.407       79.480       33.853     7466.101     6317.026     1146.010        1.264        0.746       99.057       28.692        0.084      343.084       18.947      859.192
10/01/2013  19:07:00     -102.449      115.733      -22.463       80.593       60.909       40.647     6495.207     3709.912     1652.190        1.812        0.593      154.564       41.215        0.071      343.100       18.972      859.208
10/01/2013  19:08:00      -78.860      144.789      -19.662       45.499       49.205       25.249     2070.149     2421.113      637.534        1.635        0.256      164.872       21.835        0.018      343.067       18.915      859.210
10/01/2013  19:09:00       23.831       42.201       -2.518       47.676       36.604       17.572     2272.989     1339.889      308.767        0.314        0.196       48.464       13.439        0.077      343.006       18.815      859.221
10/01/2013  19:10:00      -25.444       87.018        9.278       48.228       72.487       40.096     2325.906     5254.406     1607.653        0.874        0.459       90.662       40.966        0.204      342.898       18.629      859.227
10/01/2013  19:11:00      -52.016      115.307       -1.307       40.905       49.047       32.287     1673.196     2405.565     1042.447        1.056        0.256      126.497       26.795        0.045      343.032       18.859      859.247
10/01/2013  19:12:00      -34.001       11.712      -16.017       43.525       47.766       14.891     1894.439     2281.618      221.743        0.297        0.220       35.961       16.163        0.202      343.092       18.960      859.265
10/01/2013  19:13:00      -63.941      -26.816       -5.878       32.181       49.464       15.023     1035.611     2446.711      225.677        0.427        0.185       69.336       12.665        0.033      343.060       18.905      859.278
10/01/2013  19:14:00      -37.666        4.106        6.098       30.238       34.311       17.382      914.365     1177.255      302.145        0.193        0.120       37.889       18.659        0.243      342.959       18.735      859.271
10/01/2013  19:15:00     -121.799        7.941       -7.542       40.006       28.239       24.912     1600.496      797.461      620.610        0.899        0.151      122.057       17.719        0.021      343.057       18.903      859.274
10/01/2013  19:16:00     -134.514      -12.567       -5.624       65.880       54.260       36.043     4340.158     2944.143     1299.091        1.343        0.429      135.100       39.475        0.085      343.034       18.861      859.293
10/01/2013  19:17:00     -105.873       -0.177      -11.321       52.908       24.089       22.766     2799.239      580.288      518.286        0.762        0.195      105.873       16.855        0.025      342.980       18.772      859.314
10/01/2013  19:18:00     -106.486       20.132      -12.941       37.230       37.820       22.692     1386.074     1430.389      514.935        0.762        0.167      108.372       18.473        0.029      343.022       18.843      859.319
10/01/2013  19:19:00     -129.738       44.345      -27.679       55.794       46.053       28.958     3112.930     2120.905      838.579        1.282        0.304      137.107       31.321        0.052      343.030       18.854      859.314
10/01/2013  19:20:00      -38.673       38.695      -12.027       41.394       61.707       19.122     1713.429     3807.778      365.632        0.451        0.294       54.707       22.289        0.166      342.976       18.761      859.325
10/01/2013  19:21:00     -133.290      -35.822       -1.881       64.349       52.923       26.572     4140.756     2800.847      706.076        1.335        0.382      138.019       24.221        0.031      342.989       18.786      859.343
10/01/2013  19:22:00     -143.826       -9.815      -25.066       25.105       35.295       19.977      630.267     1245.768      399.069        1.184        0.114      144.161       10.720        0.006      343.010       18.821      859.354
10/01/2013  19:23:00     -131.025      -48.368       -9.677       43.125       39.175       24.401     1859.743     1534.713      595.406        1.179        0.199      139.668       23.381        0.028      342.997       18.799      859.361
10/01/2013  19:24:00     -200.315      -54.188      -28.684       41.754       44.240       31.766     1743.396     1957.206     1009.055        2.430        0.235      207.515       20.533        0.010      342.943       18.703      859.379
10/01/2013  19:25:00     -162.296      -67.925      -21.297       76.321       42.148       50.438     5824.847     1776.419     2544.042        2.077        0.507      175.937       37.720        0.046      343.015       18.828      859.396
10/01/2013  19:26:00     -119.437       31.352       -3.606       66.697       96.436       32.593     4448.551     9299.970     1062.321        1.503        0.741      123.483       34.488        0.078      342.999       18.800      859.395
10/01/2013  19:27:00     -163.649       68.049      -29.052       52.948       65.578       43.253     2803.489     4300.412     1870.852        2.061        0.449      177.233       38.260        0.047      343.013       18.825      859.382
10/01/2013  19:28:00     -223.982       10.953      -36.809       86.264       76.818       33.580     7441.461     5900.935     1127.593        3.305        0.723      224.250       20.640        0.008      343.032       18.854      859.412
10/01/2013  19:29:00     -151.293       53.051       -9.495       71.889      103.383       49.969     5168.057    10688.137     2496.903        2.207        0.918      160.325       45.682        0.081      343.039       18.870      859.405
10/01/2013  19:30:00     -175.043      -51.567      -12.326       62.637       71.352       36.811     3923.341     5091.059     1355.077        2.191        0.518      182.481       30.612        0.028      343.030       18.852      859.411
10/01/2013  19:31:00     -228.382     -115.821        0.782       81.609       52.633       38.693     6659.998     2770.277     1497.140        3.825        0.546      256.071       37.967        0.022      342.895       18.620      859.415
10/01/2013  19:32:00     -213.828      -78.389       -0.554      102.329       76.470       45.669    10471.165     5847.703     2085.696        3.513        0.920      227.744       48.368        0.045      342.856       18.557      859.426
10/01/2013  19:33:00     -296.607     -125.717      -20.739      101.110       93.740       49.404    10223.311     8787.255     2440.744        6.283        1.073      322.150       44.679        0.019      342.959       18.728      859.423
10/01/2013  19:34:00     -326.092     -150.943      -11.785      131.313      106.199       54.146    17243.032    11278.290     2931.812        8.035        1.573      359.332       58.735        0.027      342.912       18.651      859.420
10/01/2013  19:35:00     -248.371     -126.526      -10.124       76.411       66.087       42.799     5838.678     4367.443     1831.745        4.492        0.602      278.742       33.392        0.014      342.826       18.503      859.433
10/01/2013  19:36:00     -249.034      -68.909      -10.496       75.976       67.940       36.698     5772.330     4615.874     1346.753        3.930        0.587      258.392       33.392        0.017      342.761       18.391      859.434
10/01/2013  19:37:00     -228.401      -70.828       -8.291      133.985       87.035       45.056    17952.043     7575.111     2030.045        4.240        1.378      239.131       50.338        0.044      342.709       18.305      859.433
10/01/2013  19:38:00     -332.218     -100.470      -18.676       90.292       76.083       50.913     8152.592     5788.627     2592.144        6.867        0.827      347.078       43.930        0.016      342.738       18.354      859.421
10/01/2013  19:39:00     -380.426      -88.668       -9.334      123.240       91.308       59.411    15188.068     8337.241     3529.649        8.986        1.353      390.623       57.214        0.021      342.754       18.381      859.410
10/01/2013  19:40:00     -318.075     -110.897        4.959      137.253      107.917       65.081    18838.517    11646.150     4235.510        7.410        1.736      336.853       64.290        0.036      342.697       18.285      859.401
10/01/2013  19:41:00     -236.824      -28.333       -0.052      117.154       96.392       59.426    13725.151     9291.351     3531.504        4.171        1.327      238.513       66.036        0.077      342.606       18.130      859.393
10/01/2013  19:42:00     -330.618      -79.953      -10.533      164.135      134.349       65.601    26940.420    18049.546     4303.512        8.254        2.465      340.148       70.042        0.042      342.623       18.160      859.388
10/01/2013  19:43:00     -399.811      -83.946      -20.755      106.976       89.889       51.587    11443.860     8079.982     2661.238        9.475        1.109      408.529       46.396        0.013      342.693       18.277      859.363
10/01/2013  19:44:00     -381.929      -97.529       -3.022      159.807      114.526       67.494    25538.275    13116.154     4555.418        9.929        2.160      394.185       68.252        0.030      342.629       18.169      859.363
10/01/2013  19:45:00     -305.325     -106.229      -15.141      158.075      142.003       68.035    24987.820    20164.826     4628.742        7.725        2.489      323.276       49.955        0.024      342.632       18.174      859.356
10/01/2013  19:46:00     -348.249      -59.519      -18.469      151.952       99.567       62.997    23089.467     9913.662     3968.632        8.106        1.849      353.298       72.429        0.042      342.593       18.108      859.356
10/01/2013  19:47:00     -327.723     -107.915       -6.243      130.811      111.613       68.587    17111.426    12457.452     4704.146        7.667        1.714      345.034       53.050        0.024      342.618       18.150      859.346
10/01/2013  19:48:00     -328.493      -17.851      -15.109      112.574      138.910       56.932    12672.866    19296.032     3241.201        7.183        1.761      328.978       58.132        0.031      342.596       18.113      859.351
10/01/2013  19:49:00     -358.179      -55.343      -24.306      107.812       92.400       55.382    11623.495     8537.682     3067.197        7.758        1.161      362.429       49.247        0.018      342.588       18.100      859.355
10/01/2013  19:50:00     -298.084      -46.630        3.266      144.171      101.756       73.990    20785.396    10354.185     5474.473        6.382        1.831      301.710       73.814        0.060      342.548       18.031      859.370
10/01/2013  19:51:00     -283.545      -31.701        1.832      100.509      105.614       56.870    10102.018    11154.364     3234.253        5.294        1.225      285.312       46.952        0.027      342.561       18.054      859.382
10/01/2013  19:52:00     -299.263       59.126      -29.214      133.540       95.086       50.238    17832.983     9041.308     2523.811        6.165        1.470      305.048       28.793        0.009      342.534       18.008      859.398
10/01/2013  19:53:00     -176.433      -13.026      -10.066      106.648       90.334       54.082    11373.738     8160.203     2924.823        2.692        1.123      176.913       59.760        0.114      342.524       17.992      859.420
10/01/2013  19:54:00     -220.720      -60.998       -3.900      116.930       80.200       53.295    13672.533     6432.040     2840.338        3.769        1.147      228.993       51.972        0.052      342.468       17.895      859.452
10/01/2013  19:55:00     -216.172      -58.650      -17.237       76.073       90.422       45.091     5787.125     8176.067     2033.221        3.323        0.800      223.987       29.208        0.017      342.510       17.967      859.478
10/01/2013  19:56:00     -202.526      -15.283      -13.446       88.525       81.633       50.590     7836.679     6663.872     2559.379        2.924        0.853      203.102       36.111        0.032      342.535       18.010      859.518
10/01/2013  19:57:00     -229.420       26.682      -23.847       93.421       85.504       49.541     8727.390     7310.977     2454.300        3.620        0.925      230.966       29.192        0.016      342.522       17.989      859.550
10/01/2013  19:58:00      -50.071       34.053       -7.215       66.512       38.766       39.175     4423.902     1502.837     1534.708        0.559        0.373       60.553       39.687        0.430      342.451       17.869      859.594
10/01/2013  19:59:00     -115.629       40.976      -13.913      119.493       57.959       28.166    14278.509     3359.250      793.322        1.683        0.922      122.675       27.903        0.052      342.438       17.847      859.624
10/01/2013  20:00:00      -26.974       48.368       21.138       93.244       67.358       45.644     8694.450     4537.164     2083.368        0.941        0.766       55.381       40.542        0.536      342.441       17.854      859.661
10/01/2013  20:01:00       17.002      146.411      -10.778       44.232       70.817       37.542     1956.491     5015.063     1409.405        1.511        0.419      147.395       38.197        0.067      342.388       17.763      859.680
10/01/2013  20:02:00      -41.619      140.355      -11.850       46.824       55.867       31.951     2192.506     3121.089     1020.875        1.395        0.317      146.396       34.568        0.056      342.408       17.797      859.722
10/01/2013  20:03:00       29.131       96.141      -15.054       32.283       53.245       29.910     1042.217     2835.061      894.629        0.754        0.239      100.458       33.623        0.112      342.282       17.582      859.750
10/01/2013  20:04:00       10.402      194.571      -21.466       49.869      100.019       30.054     2486.965    10003.713      903.272        2.591        0.670      194.848       28.962        0.022      342.281       17.578      859.787
10/01/2013  20:05:00        9.390      224.508      -22.716       52.803       54.682       38.502     2788.153     2990.093     1482.440        2.913        0.363      224.705       33.462        0.022      342.256       17.534      859.811
10/01/2013  20:06:00        0.526      291.830      -40.880       42.362       78.216       30.811     1794.521     6117.732      949.318        4.785        0.443      291.831       30.647        0.011      342.300       17.609      859.829
10/01/2013  20:07:00        2.992      193.033       -4.047       56.616       95.193       50.381     3205.360     9061.698     2538.277        2.604        0.740      193.056       52.261        0.073      342.114       17.294      859.850
10/01/2013  20:08:00      -15.020      280.986      -29.937       62.239       53.337       30.283     3873.691     2844.868      917.050        4.385        0.382      281.387       26.175        0.009      342.225       17.480      859.886
10/01/2013  20:09:00      -37.802      273.134      -30.122       60.011       58.100       33.062     3601.331     3375.656     1093.124        4.250        0.404      275.737       27.267        0.010      342.275       17.567      859.914
10/01/2013  20:10:00      -30.307      335.760      -38.069       70.200       70.391       42.635     4928.090     4954.955     1817.755        6.340        0.585      337.125       36.763        0.012      342.300       17.608      859.937
10/01/2013  20:11:00       -0.488      288.033      -36.748       49.921       65.651       33.168     2492.079     4310.002     1100.117        4.611        0.395      288.034       26.692        0.009      342.321       17.645      859.952
10/01/2013  20:12:00        4.227      232.391      -25.354       52.599       93.769       36.145     2766.699     8792.661     1306.431        3.376        0.643      232.429       37.133        0.026      342.256       17.537      859.962
10/01/2013  20:13:00      -16.742      275.042      -33.902       68.112       76.114       32.461     4639.238     5793.293     1053.705        4.428        0.574      275.551       31.075        0.013      342.324       17.650      859.958
10/01/2013  20:14:00      -53.541      224.029      -11.637       59.307       81.775       38.984     3517.305     6687.111     1519.784        3.246        0.586      230.338       41.568        0.033      342.200       17.439      859.973
10/01/2013  20:15:00      -51.285      269.524      -22.657       66.372       73.702       41.640     4405.303     5431.964     1733.906        4.368        0.579      274.360       35.118        0.016      342.240       17.509      859.984
10/01/2013  20:16:00       20.732      294.848      -42.532       58.023       81.675       39.996     3366.696     6670.830     1599.719        5.040        0.582      295.576       29.759        0.010      342.147       17.350      859.984
10/01/2013  20:17:00        2.460      298.190      -24.531       65.854      152.638       56.334     4336.798    23298.283     3173.479        6.016        1.540      298.200       73.628        0.061      342.106       17.280      859.995
10/01/2013  20:18:00      -62.036      352.608      -43.985       58.634       75.318       40.456     3437.914     5672.798     1636.727        7.043        0.537      358.023       31.897        0.008      342.123       17.309      860.005
10/01/2013  20:19:00      -40.588      349.508      -40.567       75.782       66.403       38.417     5742.872     4409.314     1475.888        6.854        0.581      351.857       30.765        0.008      342.078       17.233      859.998
10/01/2013  20:20:00      -31.962      326.681      -32.164       68.026       87.528       48.217     4627.546     7661.201     2324.875        6.169        0.731      328.241       47.347        0.021      341.978       17.063      860.009
10/01/2013  20:21:00      -19.683      266.534      -26.928       77.264       88.874       52.348     5969.754     7898.659     2740.283        4.438        0.830      267.260       48.266        0.033      341.993       17.088      860.016
10/01/2013  20:22:00      -11.475      324.340      -47.307       81.256       96.649       50.570     6602.597     9341.004     2557.340        6.303        0.925      324.543       51.324        0.025      341.983       17.073      860.008
10/01/2013  20:23:00       17.154      276.929      -18.084       86.994      123.297       76.404     7567.933    15202.080     5837.600        5.295        1.430      277.460       75.387        0.074      341.971       17.050      860.010
10/01/2013  20:24:00      -15.508      298.504      -30.440       57.459      119.976       50.652     3301.485    14394.252     2565.588        5.526        1.013      298.907       56.715        0.036      341.964       17.040      860.032
10/01/2013  20:25:00      -22.417      377.699      -41.837       68.948       79.797       46.710     4753.813     6367.582     2181.832        7.910        0.665      378.364       43.554        0.013      342.028       17.146      860.027
10/01/2013  20:26:00      -36.658      417.175      -46.915       78.001      108.381       49.691     6084.116    11746.417     2469.146        9.894        1.015      418.783       46.996        0.013      342.066       17.212      860.039
10/01/2013  20:27:00      -25.033      322.684      -46.564       68.986       97.091       41.076     4759.088     9426.613     1687.269        6.139        0.794      323.654       46.111        0.020      342.010       17.116      860.040
10/01/2013  20:28:00      -61.816      434.185      -54.702       75.089       96.920       44.407     5638.418     9393.448     1971.979       10.616        0.850      438.563       42.433        0.009      342.024       17.142      860.034
10/01/2013  20:29:00     -106.010      416.688      -46.631       71.032       88.531       52.305     5045.613     7837.820     2735.864       10.133        0.781      429.962       45.721        0.011      341.987       17.079      860.035
10/01/2013  20:30:00     -121.683      355.532      -45.989       76.483      149.107       58.096     5849.708    22233.029     3375.131        8.738        1.573      375.778       61.712        0.027      341.971       17.051      860.026
10/01/2013  20:31:00     -177.869      279.847      -50.930       97.058       99.574       62.214     9420.312     9915.023     3870.643        6.787        1.160      331.589       56.988        0.030      341.943       17.002      860.042
10/01/2013  20:32:00     -172.622       93.618      -32.025       90.654      105.972       47.020     8218.208    11230.049     2210.925        3.062        1.083      196.374       41.376        0.044      341.944       17.006      860.060
10/01/2013  20:33:00     -200.876      127.663      -29.313       87.354       89.660       40.466     7630.682     8038.885     1637.494        3.740        0.865      238.010       30.979        0.017      341.937       16.994      860.067
10/01/2013  20:34:00     -220.447      125.720      -36.383       91.697       88.379       51.831     8408.363     7810.873     2686.441        4.231        0.945      253.776       38.029        0.022      341.921       16.967      860.075
10/01/2013  20:35:00     -133.301      124.014       -5.070       96.533       92.375       60.540     9318.535     8533.095     3665.041        2.734        1.076      182.067       58.100        0.102      341.861       16.867      860.071
10/01/2013  20:36:00     -150.260      219.067      -43.260       96.718      106.348       69.598     9354.300    11309.842     4843.846        4.897        1.275      265.648       69.296        0.068      341.879       16.895      860.058
10/01/2013  20:37:00     -128.852      302.690      -33.393      101.403      131.062       56.491    10282.623    17177.367     3191.250        6.999        1.533      328.974       50.060        0.023      341.867       16.875      859.991
10/01/2013  20:38:00     -200.919      113.527      -27.105       85.692       97.931       56.644     7343.102     9590.455     3208.516        3.706        1.007      230.774       47.893        0.043      341.858       16.858      860.023
10/01/2013  20:39:00     -210.128       36.521      -32.890       83.070       87.405       39.539     6900.616     7639.706     1563.369        3.133        0.805      213.278       35.016        0.027      341.878       16.892      860.062
10/01/2013  20:40:00     -329.905      -66.678      -13.858      109.290      127.823       57.391    11944.261    16338.826     3293.733        7.252        1.579      336.576       58.484        0.030      341.556       16.347      860.091
10/01/2013  20:41:00     -221.146      -48.980      -12.025       95.170       72.000       47.953     9057.400     5183.971     2299.463        3.399        0.827      226.505       49.680        0.048      341.380       16.049      860.121
10/01/2013  20:42:00     -220.806       23.402      -19.355       77.746       52.180       37.793     6044.426     2722.791     1428.327        2.993        0.510      222.043       38.952        0.031      341.383       16.054      860.121
10/01/2013  20:43:00      -64.230       46.387       -1.295       75.781       57.349       37.135     5742.797     3288.855     1379.038        0.834        0.521       79.229       33.904        0.183      341.414       16.110      860.108
10/01/2013  20:44:00     -184.184       90.115      -24.118      109.367       98.363       60.131    11961.035     9675.345     3615.722        3.393        1.263      205.047       63.131        0.095      341.512       16.274      860.127
10/01/2013  20:45:00     -116.162      110.554       -6.917       94.489      114.123       59.663     8928.182    13023.978     3559.621        2.563        1.276      160.361       46.216        0.083      341.599       16.422      860.175
10/01/2013  20:46:00     -106.904      155.918      -16.146       50.932       65.632       50.221     2594.094     4307.559     2522.110        2.271        0.471      189.048       38.529        0.042      341.616       16.450      860.183
10/01/2013  20:47:00     -127.130      108.101      -22.619       99.920      102.845       60.466     9983.936    10577.185     3656.118        2.628        1.211      166.877       42.191        0.064      341.612       16.443      860.186
10/01/2013  20:48:00     -210.973      242.329      -61.572      103.964      136.704       50.806    10808.567    18687.864     2581.294        6.954        1.604      321.299       62.358        0.038      341.648       16.503      860.210
10/01/2013  20:49:00     -174.555      134.010      -35.349       94.136       78.978       48.882     8861.493     6237.601     2389.442        3.358        0.874      220.064       44.704        0.041      341.604       16.430      860.248
10/01/2013  20:50:00     -139.404       60.549      -18.262       94.706       89.291       63.557     8969.262     7972.951     4039.458        2.220        1.049      151.986       59.894        0.155      341.506       16.263      860.267
10/01/2013  20:51:00     -129.726        9.662      -18.110       59.859       61.318       44.966     3583.125     3759.885     2021.950        1.331        0.468      130.085       22.189        0.029      341.469       16.201      860.259
10/01/2013  20:52:00     -177.785       35.761      -22.251       54.126       83.892       41.960     2929.600     7037.928     1760.640        2.255        0.586      181.346       26.711        0.022      341.435       16.145      860.261
10/01/2013  20:53:00     -215.488      107.653      -20.875      106.737       82.378       57.916    11392.842     6786.056     3354.252        3.999        1.077      240.883       59.591        0.061      341.456       16.177      860.297
10/01/2013  20:54:00     -115.563      105.522      -17.064       61.426       79.915       39.158     3773.163     6386.360     1533.336        1.823        0.585      156.492       40.494        0.067      341.449       16.168      860.281
10/01/2013  20:55:00     -129.808       91.138      -24.702       73.981      104.214       53.697     5473.119    10860.476     2883.355        2.249        0.961      158.607       48.335        0.093      341.464       16.193      860.247
10/01/2013  20:56:00     -188.168       13.375      -22.526       88.062      104.941       39.604     7754.915    11012.674     1568.472        2.821        1.017      188.642       33.981        0.032      341.435       16.144      860.269
10/01/2013  20:57:00     -200.013      -63.076      -19.342      127.320       95.487       71.613    16210.444     9117.684     5128.403        3.740        1.523      209.723       72.767        0.120      341.407       16.096      860.285
10/01/2013  20:58:00     -255.710       50.109      -42.865      106.895      120.156       57.447    11426.469    14437.494     3300.139        4.944        1.458      260.574       51.703        0.039      341.369       16.029      860.290
10/01/2013  20:59:00     -186.990      174.375      -31.622      100.865      132.226       61.882    10173.745    17483.661     3829.361        4.892        1.574      255.680       41.339        0.026      341.390       16.066      860.262
10/01/2013  21:00:00     -235.780      185.330      -46.885      112.118      137.871       82.459    12570.444    19008.447     6799.519        6.525        1.919      299.899       83.944        0.078      341.454       16.174      860.261
10/01/2013  21:01:00     -231.440      211.568      -30.851      117.675      107.516       66.874    13847.370    11559.708     4472.171        6.457        1.494      313.569       52.008        0.028      341.461       16.184      860.244
10/01/2013  21:02:00     -155.322       48.331      -20.427      110.496       97.464       50.260    12209.277     9499.295     2526.042        2.555        1.212      162.668       50.892        0.098      341.454       16.176      860.231
10/01/2013  21:03:00     -193.300       44.847      -17.560      114.143       95.967       45.628    13028.719     9209.680     2081.949        3.200        1.216      198.434       36.548        0.034      341.380       16.051      860.222
10/01/2013  21:04:00     -164.342      -13.588      -12.543       92.860       82.175       55.139     8622.954     6752.722     3040.336        2.288        0.921      164.903       49.286        0.089      341.316       15.942      860.216
10/01/2013  21:05:00     -231.290       11.251      -30.084       94.132      104.894       67.807     8860.767    11002.688     4597.812        3.949        1.223      231.563       54.907        0.056      341.362       16.018      860.208
10/01/2013  21:06:00     -262.895      107.271      -31.240      124.050      132.037       71.635    15388.410    17433.756     5131.610        5.977        1.898      283.938       80.187        0.080      341.357       16.010      860.206
10/01/2013  21:07:00     -220.741      111.571      -28.676       99.405       86.800       48.813     9881.366     7534.271     2382.679        4.089        0.990      247.335       33.648        0.019      341.377       16.045      860.196
10/01/2013  21:08:00     -129.931      -23.086       -4.322      133.861       87.681       57.966    17918.639     7687.926     3360.033        2.319        1.448      131.965       57.017        0.187      341.324       15.957      860.178
10/01/2013  21:09:00     -173.339      -46.105      -11.261      112.196       61.377       52.749    12587.932     3767.076     2782.422        2.571        0.957      179.366       47.626        0.071      341.200       15.745      860.169
10/01/2013  21:10:00     -228.804       -5.758      -21.534      106.529      130.379       57.223    11348.364    16998.785     3274.461        4.223        1.581      228.876       52.790        0.053      341.217       15.772      860.162
10/01/2013  21:11:00     -243.190       23.402      -14.694      133.757      154.543       70.590    17890.916    23883.507     4982.991        5.332        2.338      244.314       75.284        0.095      341.200       15.745      860.167
10/01/2013  21:12:00     -349.218      -87.284      -14.621      100.866       99.892       53.930    10173.963     9978.395     2908.493        7.642        1.153      359.960       37.984        0.011      341.088       15.554      860.164
10/01/2013  21:13:00     -395.952      -57.009      -39.825       94.575      117.862       48.405     8944.401    13891.376     2343.037        9.339        1.259      400.035       39.145        0.010      341.039       15.472      860.171
10/01/2013  21:14:00     -404.633      -38.228      -28.398      179.502      106.792       67.173    32220.890    11404.468     4512.197       10.706        2.407      406.435       76.366        0.035      341.036       15.467      860.183
10/01/2013  21:15:00     -273.952      -81.665      -11.228      161.922      151.190       74.310    26218.810    22858.414     5521.947        6.821        2.730      285.866       66.406        0.054      341.078       15.537      860.150
10/01/2013  21:16:00     -304.351      140.930      -56.381      101.503      147.376       71.301    10302.777    21719.796     5083.854        7.638        1.855      335.396       53.608        0.026      341.156       15.669      860.144
10/01/2013  21:17:00     -173.878       84.070       -5.711      131.213      159.415       80.184    17216.782    25413.053     6429.417        4.319        2.453      193.136       77.106        0.159      341.175       15.703      860.121
10/01/2013  21:18:00     -343.779      153.225      -62.476      135.963       99.890       70.373    18485.811     9977.988     4952.334        8.948        1.671      376.380       62.963        0.028      341.253       15.835      860.118
10/01/2013  21:19:00     -251.003      136.604      -52.964      115.419      140.621       70.124    13321.526    19774.270     4917.372        6.123        1.901      285.768       53.839        0.035      341.252       15.833      860.125
10/01/2013  21:20:00     -321.724     -119.697      -31.202      156.396       98.078       73.630    24459.815     9619.252     5421.329        7.915        1.975      343.269       68.171        0.039      341.206       15.755      860.126
10/01/2013  21:21:00     -336.787      -52.239      -15.194      172.123      140.007       74.417    29626.345    19601.871     5537.828        8.556        2.738      340.814       70.582        0.043      341.129       15.624      860.133
10/01/2013  21:22:00     -374.903      -78.513      -27.642      145.686      126.773       73.477    21224.420    16071.304     5398.868        9.508        2.135      383.036       67.074        0.031      341.112       15.594      860.124
10/01/2013  21:23:00     -365.059      -86.826      -14.488      132.429      124.948       67.317    17537.361    15612.100     4531.609        8.934        1.884      375.242       45.413        0.015      341.086       15.551      860.139
10/01/2013  21:24:00     -300.480      -62.348      -21.272      151.472      118.630       70.086    22943.879    14073.133     4912.019        6.827        2.096      306.880       69.140        0.051      341.117       15.603      860.144
10/01/2013  21:25:00     -353.920       18.441      -42.765      148.870      184.268       82.057    22162.280    33954.769     6733.359        9.513        3.143      354.400       74.622        0.044      341.164       15.684      860.159
10/01/2013  21:26:00     -417.507      -60.765      -42.301      184.555      133.291       92.158    34060.374    17766.423     8493.183       12.004        3.016      421.906       88.644        0.044      341.262       15.849      860.147
10/01/2013  21:27:00     -270.663      -45.403      -16.003      201.989      136.486       90.101    40799.358    18628.517     8118.114        7.155        3.377      274.445       88.013        0.103      341.238       15.809      860.114
10/01/2013  21:28:00     -369.604      -60.261      -16.235      251.246      148.937       91.206    63124.688    22182.270     8318.456       11.704        4.681      374.485       92.788        0.061      341.236       15.807      860.118
10/01/2013  21:29:00     -434.337      -82.114      -26.386      162.424       93.066       67.405    26381.398     8661.232     4543.459       11.783        1.979      442.031       70.753        0.026      341.250       15.829      860.121
10/01/2013  21:30:00     -450.590        9.489      -54.448      162.731      143.389       73.829    26481.419    20560.504     5450.774       12.928        2.625      450.690       73.603        0.027      341.293       15.901      860.147
10/01/2013  21:31:00     -398.482     -111.151      -28.216      152.731      143.445       68.983    23326.808    20576.510     4758.688       11.029        2.433      413.694       72.450        0.031      341.245       15.823      860.120
10/01/2013  21:32:00     -333.948      -64.748      -36.150      158.576      113.354       72.829    25146.337    12849.144     5304.022        8.015        2.165      340.167       71.207        0.044      341.235       15.804      860.131
10/01/2013  21:33:00     -418.582      -38.120      -28.089      220.628      120.867       78.597    48676.494    14608.872     6177.503       12.344        3.473      420.314       97.875        0.054      341.270       15.863      860.124
10/01/2013  21:34:00     -274.451      -72.817      -27.406      145.625      115.012       62.182    21206.538    13227.811     3866.643        5.983        1.915      283.946       57.108        0.040      341.268       15.862      860.111
10/01/2013  21:35:00     -241.298      -87.812       -9.341      204.759      133.042       74.264    41926.134    17700.183     5515.208        6.557        3.257      256.779       70.057        0.074      341.320       15.950      860.098
10/01/2013  21:36:00     -421.125      -48.426      -46.723      138.774      115.675       69.656    19258.148    13380.776     4852.016       10.968        1.875      423.900       62.975        0.022      341.290       15.897      860.107
10/01/2013  21:37:00     -293.215      -12.611      -28.708      115.220      190.199       82.580    13275.637    36175.502     6819.429        7.160        2.814      293.487       63.023        0.046      341.277       15.874      860.101
10/01/2013  21:38:00     -255.436      -37.810      -22.844      155.256      108.085       74.700    24104.469    11682.402     5580.079        5.427        2.068      258.219       66.813        0.067      341.278       15.877      860.096
10/01/2013  21:39:00     -296.468      -82.021      -28.750      169.044      147.015       73.392    28575.797    21613.443     5386.430        7.550        2.779      307.605       76.905        0.063      341.249       15.829      860.085
10/01/2013  21:40:00     -382.010      -81.065      -18.465      149.625      157.166       77.194    22387.604    24701.130     5958.931       10.294        2.652      390.517       61.654        0.025      341.259       15.844      860.104
10/01/2013  21:41:00     -314.340      -34.124      -30.069      148.969      134.613       63.049    22191.827    18120.617     3975.159        7.257        2.214      316.187       42.925        0.018      341.237       15.808      860.101
10/01/2013  21:42:00     -334.319       -0.404      -32.779      147.846      184.186       75.905    21858.402    33924.351     5761.631        8.718        3.077      334.319       76.414        0.052      341.216       15.770      860.106
10/01/2013  21:43:00     -217.904      -97.915       -5.862      186.563      133.075       68.638    34805.891    17708.868     4711.206        5.715        2.861      238.893       81.600        0.117      341.219       15.775      860.096
10/01/2013  21:44:00     -316.764      -55.365      -19.015      133.279      102.124       61.793    17763.271    10429.380     3818.351        6.788        1.601      321.566       59.412        0.034      341.199       15.744      860.116
10/01/2013  21:45:00     -348.721       -7.279      -28.907      107.294      107.833       63.154    11512.057    11627.869     3988.428        7.481        1.356      348.797       54.148        0.024      341.201       15.746      860.129
10/01/2013  21:46:00     -353.117      -93.727      -10.672      177.348      104.875       82.860    31452.337    10998.783     6865.739        9.144        2.466      365.344       79.749        0.048      341.228       15.792      860.131
10/01/2013  21:47:00     -256.441      -16.191      -16.398      123.452      118.611       59.858    15240.501    14068.568     3582.937        4.959        1.645      256.952       57.130        0.049      341.213       15.766      860.108
10/01/2013  21:48:00     -247.822      -68.843      -13.782      133.663      118.015       57.177    17865.714    13927.596     3269.170        5.070        1.753      257.207       49.906        0.038      341.204       15.753      860.085
10/01/2013  21:49:00     -300.898      -50.390      -16.753      158.993      131.686       75.982    25278.716    17341.130     5773.229        7.087        2.420      305.089       88.177        0.084      341.190       15.727      860.087
10/01/2013  21:50:00     -411.274      -34.649      -43.042      221.211      122.302       65.841    48934.259    14957.889     4335.100       12.020        3.411      412.731       72.736        0.031      341.224       15.785      860.066
10/01/2013  21:51:00     -402.203      -68.006      -26.088      201.520      141.069       72.177    40610.508    19900.378     5209.526       11.638        3.286      407.912       70.577        0.030      341.225       15.788      860.055
10/01/2013  21:52:00     -496.221      -98.826      -42.308      187.990      120.484       75.151    35340.344    14516.454     5647.712       15.664        2.775      505.966       79.119        0.024      341.271       15.866      860.032
10/01/2013  21:53:00     -414.425      -97.327      -35.249      164.510      132.425       79.761    27063.692    17536.481     6361.751       11.670        2.548      425.700       79.712        0.035      341.303       15.919      860.024
10/01/2013  21:54:00     -318.918      -89.148        8.551      128.464      116.281       78.143    16503.026    13521.311     6106.339        7.292        1.807      331.144       62.258        0.035      341.265       15.854      860.016
10/01/2013  21:55:00     -281.568      -38.725      -22.693      132.197       94.360       55.735    17475.952     8903.859     3106.436        5.538        1.474      284.219       61.159        0.046      341.213       15.767      860.039
10/01/2013  21:56:00     -217.630      -65.802       -4.131      125.908      150.809       73.526    15852.882    22743.488     5406.064        4.785        2.200      227.360       75.802        0.111      341.201       15.745      860.043
10/01/2013  21:57:00     -245.579      -58.904       -2.672       93.259      112.845       54.902     8697.250    12734.050     3014.275        4.411        1.222      252.544       45.251        0.032      341.184       15.718      860.051
10/01/2013  21:58:00     -338.370     -117.461      -22.718      131.310      134.483       66.139    17242.441    18085.548     4374.356        8.425        1.985      358.178       67.512        0.036      341.334       15.971      860.066
10/01/2013  21:59:00     -450.600       57.458      -43.047      164.997       99.293       63.697    27223.944     9859.048     4057.304       12.466        2.057      454.248       68.190        0.023      341.365       16.024      860.078
10/01/2013  22:00:00     -434.845      -21.606      -25.627      122.790      101.647       67.804    15077.482    10332.135     4597.332       11.010        1.500      435.381       65.321        0.023      341.317       15.942      860.087
10/01/2013  22:01:00     -153.962      -56.183      -10.532      114.283      104.338       52.158    13060.514    10886.451     2720.472        2.681        1.333      163.893       41.908        0.065      341.272       15.868      860.122
10/01/2013  22:02:00     -265.945      -66.717        9.683      125.351       94.984       50.093    15712.824     9021.972     2509.348        5.125        1.362      274.186       58.060        0.045      341.254       15.836      860.135
10/01/2013  22:03:00      -54.875       13.036       -6.092      115.684       42.999       30.893    13382.764     1848.877      954.403        0.970        0.809       56.402       42.663        0.572      341.211       15.765      860.152
10/01/2013  22:04:00      -29.232       17.266       15.484       56.659       51.393       31.556     3210.206     2641.190      995.771        0.412        0.342       33.950       28.808        0.720      341.163       15.685      860.163
10/01/2013  22:05:00      -15.912       46.421       21.996       88.872       74.982       42.075     7898.276     5622.236     1770.299        0.909        0.765       49.072       36.955        0.567      341.223       15.784      860.183
10/01/2013  22:06:00      112.163       70.090       15.285       50.641       50.724       42.047     2564.496     2572.889     1767.938        1.231        0.345      132.262       26.383        0.040      341.113       15.600      860.195
10/01/2013  22:07:00      114.784       89.278       77.324       78.425       52.268       56.576     6150.430     2731.960     3200.808        1.960        0.604      145.416       49.500        0.116      341.093       15.566      860.231
10/01/2013  22:08:00      167.813       69.775       47.904      107.152       75.982       71.100    11481.638     5773.231     5055.155        2.881        1.116      181.741       50.610        0.078      341.070       15.525      860.255
10/01/2013  22:09:00      126.523       73.104       35.693       84.153       59.247       51.421     7081.784     3510.213     2644.118        1.793        0.662      146.124       43.706        0.089      341.031       15.461      860.304
10/01/2013  22:10:00       80.851       28.177       27.000       56.928       51.450       33.976     3240.779     2647.117     1154.387        0.755        0.352       85.620       19.317        0.051      340.963       15.347      860.317
10/01/2013  22:11:00      108.731      109.846       89.434       72.055       58.591       52.936     5191.973     3432.874     2802.193        2.165        0.571      154.559       47.391        0.094      340.895       15.231      860.312
10/01/2013  22:12:00      121.473       44.609       63.631       71.324       58.487       52.026     5087.049     3420.709     2706.683        1.600        0.561      129.405       33.430        0.067      340.851       15.155      860.312
10/01/2013  22:13:00      126.598       75.889       55.438       73.006       52.554       47.944     5329.832     2761.906     2298.582        1.762        0.520      147.602       43.012        0.085      340.878       15.203      860.314
10/01/2013  22:14:00       78.072       55.029       61.855       55.401       48.252       47.648     3069.263     2328.297     2270.336        1.031        0.383       95.517       33.656        0.124      340.837       15.132      860.312
10/01/2013  22:15:00      116.636       31.312       51.481       93.220       66.000       53.565     8689.997     4356.003     2869.249        1.657        0.796      120.766       41.314        0.117      340.826       15.114      860.306
10/01/2013  22:16:00      113.347       63.671       80.183       86.997       75.154       50.538     7568.410     5648.190     2554.092        1.955        0.789      130.006       44.842        0.119      340.797       15.064      860.321
10/01/2013  22:17:00      175.035      112.189       96.469       90.172       90.454       50.841     8130.908     8181.917     2584.790        3.571        0.945      207.903       44.730        0.046      340.902       15.239      860.318
10/01/2013  22:18:00      116.193       35.862       67.270       99.983       85.455       58.715     9996.582     7302.630     3447.401        2.003        1.037      121.601       63.003        0.268      340.940       15.307      860.320
10/01/2013  22:19:00      159.993       33.633       39.902      105.554      120.442       72.043    11141.556    14506.283     5190.192        2.957        1.542      163.490       42.733        0.068      341.020       15.441      860.321
10/01/2013  22:20:00      289.020      144.518       23.899       87.510       90.322       71.180     7658.049     8158.018     5066.615        6.293        1.044      323.138       47.819        0.022      341.392       16.069      860.360
10/01/2013  22:21:00      177.128       98.942       45.515       72.385       45.239       49.131     5239.629     2046.542     2413.866        2.647        0.485      202.889       31.087        0.023      341.539       16.319      860.400
10/01/2013  22:22:00      142.274       72.794       42.068       84.428       55.669       50.297     7128.117     3099.032     2529.802        2.003        0.638      159.815       53.034        0.110      341.388       16.065      860.411
10/01/2013  22:23:00      124.070      177.383      -12.591       96.606      111.743       65.290     9332.626    12486.520     4262.748        3.654        1.304      216.467       62.658        0.084      341.487       16.232      860.418
10/01/2013  22:24:00       35.933       69.958       -5.272       42.021       40.132       33.970     1765.805     1610.609     1153.930        0.537        0.227       78.647       29.034        0.136      341.434       16.143      860.450
10/01/2013  22:25:00       16.984       14.926       20.603       41.337       22.043       31.090     1708.710      485.911      966.592        0.205        0.158       22.610       25.339        1.256      341.291       15.902      860.439
10/01/2013  22:26:00      -50.405       -0.808       -0.786       37.918       22.299       13.859     1437.788      497.232      192.058        0.233        0.106       50.411       12.960        0.066      341.394       16.074      860.438
10/01/2013  22:27:00      -41.857       -9.734       -2.481       23.454       15.565       12.780      550.094      242.258      163.329        0.140        0.048       42.975       12.730        0.088      341.251       15.834      860.425
10/01/2013  22:28:00      -21.366       18.322       -9.247       21.226       19.239        8.961      450.552      370.123       80.304        0.089        0.045       28.146       10.089        0.128      341.352       16.005      860.422
10/01/2013  22:29:00       -3.560       69.755       -6.820       26.075       27.411       18.146      679.892      751.378      329.281        0.334        0.088       69.846       17.558        0.063      341.451       16.173      860.420
10/01/2013  22:30:00      -13.175      117.837        6.821       65.277       60.922       32.034     4261.140     3711.514     1026.154        1.155        0.450      118.571       31.619        0.071      341.328       15.963      860.409
10/01/2013  22:31:00      -63.932       38.738      -17.359       31.667       49.400       24.794     1002.794     2440.330      614.725        0.497        0.203       74.752       26.378        0.125      341.439       16.153      860.405
10/01/2013  22:32:00      -53.525        7.796        0.935       25.683       34.959       22.196      659.637     1222.133      492.678        0.265        0.119       54.089       17.685        0.107      341.270       15.867      860.416
10/01/2013  22:33:00      -23.189       15.532       -6.131       40.786       68.873       23.714     1663.471     4743.479      562.338        0.389        0.348       27.910       29.812        1.141      341.360       16.017      860.426
10/01/2013  22:34:00     -122.741      -12.576      -18.776       95.146       64.134       31.951     9052.697     4113.152     1020.876        1.488        0.709      123.383       40.704        0.109      341.378       16.048      860.432
10/01/2013  22:35:00     -150.127        5.979      -19.295       89.344      105.490       38.658     7982.321    11128.146     1494.429        2.177        1.030      150.246       29.742        0.039      341.350       15.999      860.425
10/01/2013  22:36:00     -179.242      -34.255       -5.262       61.820       49.512       33.536     3821.675     2451.432     1124.652        2.036        0.370      182.486       31.294        0.029      341.296       15.909      860.448
10/01/2013  22:37:00     -197.227      -82.874      -10.620       60.339       51.662       29.678     3640.758     2668.963      880.813        2.653        0.360      213.931       20.422        0.009      341.348       15.995      860.451
10/01/2013  22:38:00     -187.747      -51.341       -7.969       50.796       53.603       35.397     2580.280     2873.240     1252.958        2.233        0.335      194.640       33.262        0.029      341.483       16.224      860.439
10/01/2013  22:39:00      -37.707      -51.408       18.249       79.598       40.004       29.273     6335.804     1600.353      856.908        0.659        0.440       63.754       37.846        0.352      341.389       16.067      860.437
10/01/2013  22:40:00      -38.204      -97.891       -4.005       29.337       32.355       14.877      860.666     1046.835      221.313        0.659        0.106      105.082        5.469        0.003      341.459       16.187      860.449
10/01/2013  22:41:00      -34.760      -33.973        8.994       42.708       34.949       23.070     1823.957     1221.431      532.220        0.301        0.179       48.605       15.044        0.096      341.288       15.896      860.464
10/01/2013  22:42:00      -12.043     -105.777       10.468       35.963       43.323       24.943     1293.326     1876.841      622.134        0.762        0.190      106.460       15.231        0.020      341.170       15.697      860.468
10/01/2013  22:43:00      -20.123      -12.202       13.421       36.704       52.252       28.562     1347.187     2730.229      815.769        0.281        0.245       23.533       20.563        0.763      340.947       15.320      860.457
10/01/2013  22:44:00       -2.320       17.758       39.987       14.734       24.153       15.592      217.093      583.348      243.109        0.148        0.052       17.909       12.615        0.496      340.721       14.937      860.482
10/01/2013  22:45:00       25.228       23.966       33.001       29.943       37.937       27.010      896.607     1439.179      729.515        0.268        0.153       34.796       30.915        0.789      340.765       15.012      860.507
10/01/2013  22:46:00       40.228       61.820       53.190       40.217       30.750       23.816     1617.379      945.539      567.197        0.570        0.157       73.757       16.102        0.048      340.747       14.982      860.532
10/01/2013  22:47:00       19.988       15.997       24.938       29.725       30.703       23.166      883.604      942.653      536.669        0.182        0.118       25.601       14.502        0.321      340.596       14.725      860.554
10/01/2013  22:48:00       44.218       52.855       48.581       33.723       28.180       20.404     1137.252      794.103      416.324        0.473        0.117       68.912        6.552        0.009      340.458       14.492      860.584
10/01/2013  22:49:00       46.267      -55.651       -5.278       37.904       75.563       21.531     1436.721     5709.793      463.596        0.644        0.381       72.372       34.798        0.231      340.411       14.412      860.597
10/01/2013  22:50:00       83.194     -109.289      -21.020       40.364       44.305       16.645     1629.234     1962.965      277.062        1.159        0.193      137.351       12.962        0.009      340.339       14.291      860.602
10/01/2013  22:51:00       48.488      -77.423      -18.960       41.751       36.492       21.256     1743.139     1331.698      451.803        0.612        0.176       91.353       19.321        0.045      340.398       14.389      860.612
10/01/2013  22:52:00       50.666      -85.357      -15.664       32.581       37.794       26.002     1061.504     1428.386      676.108        0.663        0.158       99.262       24.321        0.060      340.391       14.380      860.618
10/01/2013  22:53:00       10.909      -80.608        7.417       26.414       26.624       30.107      697.687      708.853      906.458        0.449        0.116       81.342       19.914        0.060      340.430       14.445      860.619
10/01/2013  22:54:00       24.090      -56.948       -6.604       27.177       32.694       20.971      738.610     1068.916      439.766        0.306        0.112       61.834       19.424        0.099      340.420       14.429      860.631
10/01/2013  22:55:00       26.520      -26.336       -4.420       27.274       35.028       21.759      743.892     1226.973      473.451        0.193        0.122       37.375       21.543        0.332      340.322       14.261      860.635
10/01/2013  22:56:00       37.987      -40.401        8.114       35.199       33.607       23.129     1238.965     1129.431      534.944        0.302        0.145       55.455       20.562        0.137      340.393       14.382      860.646
10/01/2013  22:57:00       10.087      -22.758       18.304       22.454       24.252       17.788      504.192      588.146      316.409        0.118        0.070       24.893       18.088        0.528      340.455       14.487      860.656
10/01/2013  22:58:00       17.582      -35.064       18.891       20.950       36.043       23.785      438.920     1299.099      565.739        0.210        0.115       39.225       23.478        0.358      340.543       14.636      860.665
10/01/2013  22:59:00       29.019      -51.830        5.117       27.256       36.070       12.615      742.874     1301.079      159.148        0.288        0.110       59.401       19.609        0.109      340.540       14.631      860.673
10/01/2013  23:00:00      -71.462      -19.103       -2.651       12.653        9.933        5.836      160.092       98.658       34.060        0.289        0.015       73.971        2.467        0.001      340.334       14.283      860.687
10/01/2013  23:01:00      -87.562      -27.527       -9.015       16.199       26.507       10.330      262.395      702.636      106.699        0.479        0.054       91.787        6.273        0.005      340.324       14.265      860.701
10/01/2013  23:02:00      -99.685      -46.948        0.186       34.748       21.605       17.410     1207.399      466.785      303.118        0.706        0.099      110.187       16.289        0.022      340.230       14.106      860.708
10/01/2013  23:03:00      -98.575      -48.640        4.829       29.129       28.161       19.531      848.516      793.027      381.448        0.706        0.101      109.922       15.491        0.020      340.164       13.995      860.710
10/01/2013  23:04:00     -112.845        5.915       -0.028       44.462       33.800       20.923     1976.897     1142.460      437.758        0.816        0.178      113.000       22.254        0.039      340.262       14.160      860.723
10/01/2013  23:05:00      -62.874        6.953       -3.232       46.392       44.299       19.179     2152.227     1962.433      367.834        0.425        0.224       63.257       22.520        0.127      340.067       13.831      860.740
10/01/2013  23:06:00     -151.222      -83.555       -3.763       47.000       34.853       22.430     2208.964     1214.750      503.088        1.689        0.196      172.770       22.671        0.017      340.255       14.147      860.724
10/01/2013  23:07:00     -139.081      -52.102       -7.151       58.744       50.305       28.872     3450.862     2530.614      833.598        1.446        0.341      148.520       32.071        0.047      340.265       14.166      860.727
10/01/2013  23:08:00     -224.566      -61.475      -16.100      125.486       64.076       36.923    15746.785     4105.771     1363.339        3.784        1.061      232.828       42.650        0.034      340.267       14.168      860.732
10/01/2013  23:09:00     -198.160        1.513      -23.180       75.279       47.723       33.364     5666.940     2277.532     1113.186        2.443        0.453      198.165       30.135        0.023      340.219       14.086      860.717
10/01/2013  23:10:00      -66.010       51.312      -16.606       43.702       57.228       32.172     1909.832     3275.088     1035.023        0.674        0.311       83.607       24.278        0.084      340.192       14.041      860.724
10/01/2013  23:11:00      -84.031      115.165      -13.890       36.809       89.609       31.249     1354.899     8029.747      976.502        1.544        0.518      142.563       24.042        0.028      340.198       14.052      860.726
10/01/2013  23:12:00      -42.908       63.651      -21.596       50.167       92.877       33.249     2516.757     8626.192     1105.480        0.930        0.612       76.763       28.816        0.141      340.262       14.160      860.735
10/01/2013  23:13:00      -23.445       22.498       18.081       35.749       25.600       29.093     1277.968      655.350      846.409        0.208        0.139       32.494       18.931        0.339      340.155       13.980      860.739
10/01/2013  23:14:00      -34.087       48.954       -1.582       34.205       37.737       28.820     1170.004     1424.059      830.595        0.349        0.171       59.652       21.993        0.136      340.193       14.044      860.746
10/01/2013  23:15:00      -34.477       95.868        4.450       50.293       93.937       39.207     2529.405     8824.085     1537.203        1.164        0.645      101.879       39.133        0.148      340.182       14.025      860.762
10/01/2013  23:16:00      -99.119      171.936      -24.821       51.504       79.705       41.660     2652.636     6352.905     1735.577        2.537        0.537      198.460       34.130        0.030      340.335       14.281      860.778
10/01/2013  23:17:00      -60.784      211.846      -32.441       51.136      103.517       42.020     2614.897    10715.868     1765.703        3.236        0.755      220.393       43.112        0.038      340.291       14.208      860.776
10/01/2013  23:18:00      -92.154      253.538      -25.667       45.737       62.650       33.351     2091.849     3925.074     1112.302        4.028        0.356      269.766       27.125        0.010      340.333       14.277      860.784
10/01/2013  23:19:00      -16.178      203.610      -26.303       50.339       41.816       24.483     2533.966     1748.605      599.395        2.365        0.244      204.252       22.623        0.012      340.277       14.184      860.811
10/01/2013  23:20:00      -46.163      127.477       -5.211       66.380       75.866       36.891     4406.322     5755.636     1360.981        1.496        0.576      135.578       46.073        0.115      340.100       13.887      860.833
10/01/2013  23:21:00       24.378      145.416       -9.958       45.244       86.582       44.266     2047.008     7496.505     1959.510        1.667        0.575      147.445       51.454        0.122      339.972       13.669      860.846
10/01/2013  23:22:00     -106.835      279.783      -28.981       86.784       75.545       39.804     7531.500     5707.052     1584.355        5.267        0.741      299.487       32.025        0.011      339.942       13.617      860.844
10/01/2013  23:23:00     -101.656      181.061      -31.481       59.829       60.072       38.168     3579.535     3608.593     1456.833        2.637        0.432      207.647       24.440        0.014      339.940       13.614      860.848
10/01/2013  23:24:00      -85.312      159.919      -14.277       79.022       77.927       54.155     6244.454     6072.615     2932.738        2.415        0.762      181.251       46.563        0.066      339.937       13.610      860.832
10/01/2013  23:25:00     -138.343      132.987      -28.633       49.173       66.109       37.168     2417.941     4370.400     1381.436        2.291        0.408      191.896       37.271        0.038      339.909       13.562      860.818
10/01/2013  23:26:00      -36.646      151.043      -11.660       36.308       65.243       25.010     1318.273     4256.621      625.522        1.525        0.310      155.425       18.999        0.015      339.885       13.524      860.796
10/01/2013  23:27:00     -111.744      112.127      -31.108       60.295       49.529       30.063     3635.506     2453.073      903.763        1.651        0.350      158.301       31.352        0.039      339.892       13.535      860.789
10/01/2013  23:28:00     -145.166        7.999      -24.015       64.888      105.844       34.839     4210.451    11202.990     1213.764        1.917        0.831      145.386       28.971        0.040      339.911       13.567      860.777
10/01/2013  23:29:00     -140.954       76.667      -24.276       88.675       58.527       41.120     7863.210     3425.390     1690.892        1.965        0.649      160.455       38.585        0.058      339.813       13.402      860.772
10/01/2013  23:30:00     -182.895      109.868      -38.168      112.144       82.826       55.280    12576.320     6860.201     3055.899        3.473        1.125      213.358       66.512        0.097      339.826       13.422      860.762
10/01/2013  23:31:00     -191.927      218.859      -29.610       67.912      137.352       48.244     4612.081    18865.513     2327.502        5.570        1.290      291.093       46.489        0.026      339.783       13.349      860.768
10/01/2013  23:32:00     -188.519      125.439      -46.058       81.821      110.706       49.666     6694.710    12255.778     2466.739        3.740        1.071      226.438       51.793        0.052      339.748       13.292      860.760
10/01/2013  23:33:00     -143.182      162.574      -36.497       53.787       79.071       49.128     2892.998     6252.186     2413.525        2.991        0.578      216.637       32.089        0.022      339.729       13.259      860.756
10/01/2013  23:34:00     -186.750      171.770      -42.675      110.807       73.969       55.246    12278.242     5471.431     3052.151        4.350        1.040      253.733       55.693        0.048      339.708       13.223      860.752
10/01/2013  23:35:00     -157.187      100.490      -29.867       78.450       46.711       41.672     6154.367     2181.885     1736.550        2.288        0.504      186.564       37.923        0.041      339.667       13.156      860.756
10/01/2013  23:36:00     -123.550      100.033      -23.281       66.060       80.395       43.636     4363.936     6463.392     1904.125        1.927        0.637      158.969       45.157        0.081      339.640       13.110      860.753
10/01/2013  23:37:00     -208.522       75.894      -41.139       91.905       96.469       50.609     8446.485     9306.262     2561.321        3.562        1.016      221.904       47.833        0.046      339.631       13.092      860.756
10/01/2013  23:38:00      -79.038       36.182       -9.420       73.001      101.677       38.592     5329.188    10338.270     1489.329        1.240        0.858       86.926       36.737        0.179      339.563       12.981      860.767
10/01/2013  23:39:00     -115.870       42.344      -26.350       60.686       65.256       32.556     3682.845     4258.324     1059.879        1.246        0.450      123.365       28.845        0.055      339.585       13.018      860.792
10/01/2013  23:40:00     -150.432       84.746      -28.614       95.254       80.885       53.224     9073.353     6542.448     2832.754        2.454        0.922      172.661       47.441        0.075      339.563       12.979      860.809
10/01/2013  23:41:00     -100.362      123.932      -20.707       74.417       96.776       49.405     5537.874     9365.640     2440.830        2.160        0.867      159.473       46.929        0.087      339.517       12.903      860.832
10/01/2013  23:42:00      -54.288       53.045        2.556       49.665       67.864       36.896     2466.635     4605.557     1361.317        0.710        0.422       75.901       23.336        0.095      339.465       12.817      860.848
10/01/2013  23:43:00     -116.611      -28.251        0.708       80.537       63.827       39.216     6486.223     4073.938     1537.929        1.324        0.605      119.984       42.726        0.127      339.479       12.840      860.865
10/01/2013  23:44:00      -93.448       91.287       -5.904       67.082      148.041       54.519     4499.971    21916.034     2972.294        2.324        1.469      130.636       63.504        0.236      339.440       12.773      860.883
10/01/2013  23:45:00      -43.933       20.386      -27.265       65.013       86.306       44.291     4226.750     7448.732     1961.705        0.836        0.682       48.433       38.759        0.640      339.446       12.784      860.899
10/01/2013  23:46:00       -6.615       64.826       15.430       42.619       39.443       37.863     1816.390     1555.732     1433.602        0.464        0.240       65.163       26.653        0.167      339.354       12.630      860.933
10/01/2013  23:47:00       -0.692      111.937       14.057       45.603       93.673       36.671     2079.643     8774.691     1344.765        1.246        0.610      111.939       47.740        0.182      339.310       12.556      860.947
10/01/2013  23:48:00       80.173       88.828       12.772       83.319       78.897       46.667     6941.976     6224.704     2177.772        1.491        0.767      119.658       41.415        0.120      339.295       12.530      860.961
10/01/2013  23:49:00      137.034       58.973        7.324       74.805       50.465       40.743     5595.780     2546.679     1660.001        1.605        0.490      149.185       14.340        0.009      339.253       12.459      860.951
10/01/2013  23:50:00      137.531       72.476       11.022       53.390       43.651       31.751     2850.502     1905.374     1008.139        1.503        0.288      155.459       15.554        0.010      339.200       12.369      860.929
10/01/2013  23:51:00      137.265       82.047       13.163       45.063       44.569       36.310     2030.639     1986.363     1318.433        1.554        0.267      159.917       22.174        0.019      339.144       12.276      860.937
10/01/2013  23:52:00      122.272       46.100       14.174       45.775       38.975       34.951     2095.377     1519.021     1221.558        1.106        0.242      130.673       21.524        0.027      339.095       12.193      860.930
10/01/2013  23:53:00       57.635       73.370        9.074       64.809       56.822       49.993     4200.189     3228.737     2499.289        0.936        0.496       93.300       39.126        0.176      339.072       12.154      860.937
10/01/2013  23:54:00      -61.143      184.462      -23.865       76.552       65.210       26.955     5860.141     4252.358      726.547        2.458        0.542      194.331       26.561        0.019      339.118       12.229      860.938
10/01/2013  23:55:00      -95.503      103.501      -26.303       72.331       72.057       44.091     5231.834     5192.141     1944.022        1.644        0.618      140.831       44.916        0.102      339.143       12.273      860.896
10/01/2013  23:56:00      -84.583       94.571      -12.133       67.761       61.231       36.577     4591.615     3749.205     1337.908        1.296        0.484      126.877       40.125        0.100      339.181       12.337      860.885
10/01/2013  23:57:00     -107.183      110.934      -13.382       56.865       80.241       41.568     3233.647     6438.678     1727.889        1.768        0.570      154.255       32.024        0.043      339.203       12.375      860.871
10/01/2013  23:58:00      -55.593       99.963       10.467       84.483       72.627       47.569     7137.336     5274.671     2262.778        1.393        0.734      114.381       48.901        0.183      339.175       12.328      860.854
10/01/2013  23:59:00      -72.027       92.452      -14.856       60.950       55.349       34.698     3714.952     3063.523     1203.966        1.097        0.399      117.198       33.827        0.083      339.150       12.286      860.844
